GFSSW_sfc_thetae_000.txt.gz
Theta_e
322 323 323 325 325 326 327 327 327 326 326 327 326 327 327 327 325 311 307 313 317 330 326 312 311 311 312 310 310 308 303 300 299 298 301 301 301 301 300 301 300 302 301 300 304
321 322 323 323 324 325 326 326 326 326 325 326 326 326 327 326 312 308 317 326 329 329 311 310 308 310 309 307 307 305 302 300 303 302 301 301 302 302 300 300 300 300 301 298 301
320 320 321 322 323 324 325 325 325 325 325 325 325 326 325 323 310 308 323 328 328 324 311 310 309 308 306 307 305 303 302 301 302 303 302 301 300 302 301 300 304 303 304 299 299
318 319 320 320 322 323 324 324 325 325 325 324 325 325 324 315 301 310 324 322 324 314 309 307 307 306 305 303 303 301 301 302 302 302 301 300 301 299 301 305 303 305 304 300 298
316 316 318 319 321 322 323 323 324 325 324 324 325 324 317 308 309 312 318 316 311 309 307 306 306 305 304 302 302 301 301 302 303 301 301 299 300 301 300 304 305 300 299 299 299
316 315 315 317 319 321 322 322 323 324 324 324 325 323 311 302 311 310 308 308 308 308 306 306 306 305 303 303 302 301 301 302 301 301 301 299 301 297 303 300 301 299 299 300 299
316 315 315 316 318 319 321 322 323 323 323 323 325 316 308 306 311 309 308 306 306 307 305 304 306 305 304 300 301 299 299 302 300 300 299 299 298 298 305 297 299 298 299 299 299
316 315 315 316 317 318 320 321 322 322 322 323 323 313 306 311 313 307 307 305 306 305 305 305 306 304 302 301 299 298 297 297 299 299 298 299 295 303 303 299 300 301 299 297 297
315 315 315 316 316 317 319 320 320 320 321 322 315 310 304 313 308 308 307 304 305 304 304 303 305 302 301 300 298 298 295 295 296 299 297 298 296 301 301 297 298 301 301 297 296
314 314 315 315 316 317 319 320 319 318 317 312 308 306 305 303 307 306 304 305 303 304 303 303 302 301 299 299 292 295 294 295 294 297 295 296 295 300 302 299 299 302 303 299 295
314 314 315 315 316 318 317 310 306 303 306 305 303 303 301 307 308 304 303 304 303 301 298 299 298 296 299 300 299 296 295 295 298 295 294 295 295 297 300 300 300 300 301 299 296
314 314 314 315 316 317 310 304 304 304 297 303 301 300 301 306 301 303 303 301 300 297 297 296 294 300 297 296 295 295 295 295 297 293 292 293 292 296 297 298 300 300 302 301 297
316 315 315 315 316 310 305 304 308 307 300 300 301 301 301 303 300 300 301 299 298 295 295 295 298 295 295 294 293 294 294 295 293 292 291 289 291 292 295 295 297 298 299 300 297
316 316 315 315 310 309 303 305 308 306 293 293 295 300 301 301 296 297 298 299 295 295 294 295 296 295 294 294 295 292 296 293 291 290 289 290 285 293 294 294 296 299 298 296 295
316 316 315 315 309 307 303 306 307 299 283 294 293 301 299 297 296 295 297 296 294 293 294 295 291 292 293 295 295 294 291 291 289 289 286 290 285 291 288 290 295 299 300 298 298
316 316 314 311 310 308 305 306 302 290 281 290 296 294 295 295 294 294 295 297 296 293 293 294 293 294 295 289 291 290 290 288 286 286 283 289 287 289 291 293 295 299 298 297 296
316 315 313 311 306 305 305 302 291 283 289 289 292 294 293 293 293 292 291 290 291 288 289 292 291 292 292 291 290 290 291 287 287 284 284 286 284 289 294 296 296 299 301 297 296
316 315 313 311 306 306 302 296 283 290 290 292 293 292 292 293 293 291 290 290 292 290 289 289 288 289 292 295 294 289 292 288 283 284 286 282 282 291 295 297 298 295 295 293 294
316 313 310 311 305 305 296 288 288 292 293 290 291 289 291 292 292 291 291 292 294 292 290 288 290 289 288 290 293 287 286 292 289 279 282 288 292 295 294 293 293 293 294 294 294
312 308 307 309 306 301 292 289 292 294 292 293 289 292 288 291 288 290 290 293 294 293 297 293 287 289 285 288 287 287 290 285 287 282 281 286 288 288 292 293 293 292 293 296 295
311 302 307 307 307 297 287 290 293 295 294 292 292 291 290 291 291 290 291 293 295 293 294 293 291 287 287 286 287 285 286 285 286 286 283 282 286 291 292 295 294 295 297 298 296
308 297 305 307 294 294 289 293 293 293 294 293 293 292 291 290 289 290 290 292 296 293 289 293 291 288 289 287 286 290 289 289 284 283 284 285 286 294 295 296 295 296 296 297 296
302 300 304 305 289 289 293 293 293 294 293 293 292 294 293 290 286 291 292 295 295 294 291 291 288 285 287 284 284 285 287 288 290 288 284 282 285 295 296 294 294 295 297 295 295
303 292 295 297 299 294 292 292 291 295 294 292 291 292 290 290 291 290 290 292 294 295 296 295 289 288 284 287 286 284 286 286 287 284 285 285 288 292 294 294 296 296 294 295 295
303 294 293 285 288 293 294 294 292 290 294 294 291 291 291 287 289 289 292 293 290 292 292 292 286 289 290 292 291 289 288 287 284 286 284 287 288 292 294 295 296 297 297 296 296
299 293 294 293 293 291 291 291 291 294 295 292 290 294 291 288 290 291 292 290 290 290 290 289 286 288 285 289 288 286 288 289 289 288 288 287 286 293 295 296 295 295 295 294 295
303 304 296 291 290 288 288 289 291 294 296 297 295 292 291 293 295 296 297 296 293 291 289 287 286 284 281 287 286 282 285 287 288 290 290 285 290 295 293 294 294 295 295 293 294

GFSSW_sfc_thetae_003.txt.gz
Theta_e
323 323 324 324 325 326 326 326 326 327 327 326 326 327 327 328 325 315 310 316 319 328 325 316 314 314 316 313 314 313 303 302 302 301 303 305 303 305 305 306 305 306 307 305 308
321 321 322 323 324 325 325 325 325 326 326 326 325 326 326 326 318 312 321 325 326 328 315 313 311 313 312 311 311 308 304 303 306 306 304 305 304 306 302 303 304 305 307 303 305
319 319 320 321 322 324 324 325 325 325 326 326 325 326 325 324 312 312 326 327 326 324 315 313 313 312 309 310 309 308 303 306 306 306 305 304 304 306 303 302 306 306 307 304 303
317 317 318 319 320 322 323 324 325 325 325 325 325 326 325 319 302 313 326 325 326 318 313 311 311 308 308 306 308 303 307 306 306 305 304 303 306 303 304 306 307 309 310 306 302
316 316 316 317 318 320 321 322 323 324 325 325 325 326 320 310 309 315 320 320 315 312 310 310 309 310 306 307 306 304 306 305 306 305 304 305 302 303 305 309 310 308 304 306 303
317 316 316 316 317 318 319 321 322 323 324 324 324 324 314 303 314 314 311 311 311 311 309 309 309 310 307 305 305 305 304 305 306 305 304 301 303 302 306 308 308 308 305 304 304
318 317 316 316 316 317 318 319 321 322 322 323 325 320 310 307 314 313 311 310 309 310 308 309 310 308 308 305 306 303 300 304 305 304 302 302 299 300 306 306 304 305 305 305 305
317 316 316 316 316 316 317 319 321 321 321 323 324 316 306 313 316 310 311 308 309 309 309 308 309 308 306 305 303 300 301 297 304 303 302 301 295 303 307 305 303 305 306 305 305
316 315 316 316 316 317 318 319 320 320 321 321 318 313 304 312 310 311 311 307 308 308 307 307 309 306 304 301 299 301 296 298 301 303 301 299 297 303 306 304 303 304 305 306 305
316 315 316 316 316 316 317 320 320 318 320 316 311 307 307 305 310 309 308 309 306 306 305 305 305 301 302 300 293 296 296 298 298 301 299 298 297 301 304 303 303 304 305 305 306
315 314 315 316 316 317 317 313 308 307 308 306 306 307 303 309 310 307 306 305 306 304 300 303 299 296 300 302 301 299 297 296 299 302 298 297 297 300 303 303 303 303 304 304 305
316 315 316 316 317 317 314 305 308 307 298 305 305 304 306 309 303 305 306 302 301 298 302 298 294 301 302 300 299 298 295 295 300 302 295 296 296 300 301 302 302 302 303 304 305
316 316 316 316 317 314 309 307 312 310 300 301 305 303 303 304 301 303 303 303 300 298 299 296 299 299 298 298 295 296 294 296 296 300 297 295 293 297 300 301 301 301 302 303 303
317 316 316 316 312 313 308 308 312 309 294 297 297 301 303 302 297 299 302 301 299 296 298 298 300 298 296 295 297 293 299 298 296 294 290 295 286 295 298 299 299 299 302 304 302
316 316 316 314 312 308 307 310 311 304 285 297 295 303 302 298 297 296 299 297 295 296 297 296 296 294 294 296 299 295 295 295 295 293 293 292 289 293 294 294 296 299 302 305 303
316 316 315 313 313 312 310 311 307 292 285 293 297 296 296 297 295 295 296 298 297 295 296 295 296 296 297 293 295 294 293 292 291 291 285 291 291 291 294 295 297 300 302 304 302
316 316 314 315 309 311 309 306 292 286 294 294 294 295 295 295 295 293 292 291 292 289 291 295 294 296 295 293 293 293 292 287 287 286 285 294 290 293 298 298 299 299 301 303 301
316 315 313 315 314 311 306 298 286 293 295 296 294 295 293 296 295 294 293 292 294 294 291 291 289 293 294 295 296 291 293 289 284 284 287 288 286 292 300 301 301 301 301 301 300
316 314 311 313 311 310 299 288 293 297 298 297 294 291 292 294 294 294 293 294 297 294 290 290 290 291 294 294 297 292 287 295 290 289 285 289 293 299 301 298 298 298 298 299 298
314 311 310 313 307 304 292 291 299 301 299 296 292 294 291 293 291 292 293 297 295 297 298 295 288 294 288 290 291 291 293 288 289 283 281 286 289 290 295 296 297 297 298 300 300
312 302 310 308 308 297 286 289 299 303 300 293 292 292 294 293 295 293 293 297 298 297 297 295 292 290 288 287 290 287 287 288 288 289 284 282 287 295 296 297 297 299 300 301 301
308 298 307 308 294 292 288 294 298 300 300 294 295 293 293 294 293 292 292 296 299 297 291 294 291 287 290 295 293 293 291 291 285 284 287 286 287 297 297 298 298 298 300 302 303
303 301 306 306 291 289 293 295 298 298 298 294 292 293 294 291 287 292 294 298 299 296 294 293 288 284 286 288 287 287 290 291 292 289 285 283 286 297 298 298 299 297 299 300 299
303 294 296 298 299 295 291 293 293 300 297 297 292 294 292 289 292 289 291 296 296 296 295 296 290 287 284 288 291 288 288 289 289 284 285 286 288 293 295 296 298 299 300 300 300
301 297 295 288 290 293 294 293 292 292 298 298 293 292 291 288 290 289 292 293 294 293 293 292 285 288 290 292 292 290 290 289 286 287 284 287 288 292 295 296 298 299 299 298 298
294 297 295 295 298 291 291 291 291 294 295 294 292 295 294 290 292 291 293 292 291 292 290 292 284 286 284 288 288 286 288 290 289 289 289 289 287 295 296 297 296 297 297 296 297
299 296 290 290 291 290 291 292 292 296 297 299 298 296 293 294 296 297 298 298 296 292 288 287 285 284 280 287 285 281 286 288 289 291 291 286 291 296 296 296 297 297 298 297 297

GFSSW_sfc_thetae_006.txt.gz
Theta_e
322 322 323 324 324 325 326 326 326 326 327 327 327 327 327 327 326 315 310 318 321 328 324 315 314 313 314 312 312 311 297 296 299 298 298 301 298 301 299 297 299 303 299 299 304
320 320 321 322 322 323 324 325 325 325 326 327 326 326 327 326 317 313 324 328 329 328 316 311 310 311 307 309 308 303 300 300 301 300 298 300 300 300 297 297 298 299 301 301 302
318 318 319 320 321 322 323 323 324 325 325 326 326 326 326 323 313 312 329 329 328 325 316 313 312 310 306 308 306 304 299 302 301 302 302 300 300 301 298 297 300 299 301 299 299
318 318 318 318 319 320 321 322 323 324 324 325 325 325 325 321 301 315 326 325 326 319 313 311 309 306 303 304 307 299 304 304 305 303 301 298 301 299 299 300 302 300 301 299 299
319 318 317 317 318 319 319 320 321 322 323 324 325 325 321 309 309 315 323 323 316 313 310 308 306 306 303 304 304 301 302 304 304 302 300 302 299 299 299 302 304 304 302 300 299
319 318 317 317 317 318 318 319 320 321 322 323 324 324 314 301 313 315 311 312 312 310 308 308 306 307 303 302 300 302 302 301 302 302 302 299 298 299 300 303 303 303 300 299 300
319 318 317 317 317 317 317 318 319 321 321 322 323 322 310 305 313 312 311 310 310 309 307 309 308 306 306 302 303 301 296 299 300 301 299 299 295 296 301 301 300 301 301 301 300
318 317 316 316 317 317 318 318 319 320 321 322 324 318 305 314 312 310 310 308 309 309 309 308 307 306 304 303 301 295 296 291 298 300 298 297 290 299 302 300 300 298 298 300 301
317 316 316 316 316 317 318 318 318 321 321 322 317 314 303 314 310 310 309 307 307 308 307 307 308 303 301 295 293 295 290 292 296 300 297 295 292 298 298 297 297 297 298 299 300
316 315 315 316 316 317 317 318 320 318 319 320 313 306 306 305 309 309 307 308 306 305 304 303 301 297 296 293 287 289 290 293 292 296 296 293 293 297 298 298 297 299 300 300 300
316 316 316 316 317 318 315 312 307 309 309 304 305 305 305 308 310 306 306 305 305 302 296 300 293 291 294 297 297 295 293 292 296 298 294 293 294 296 298 298 298 299 300 300 299
317 316 317 317 317 318 314 306 306 305 296 303 304 305 307 309 303 305 305 299 299 294 297 295 291 297 298 297 295 293 291 291 295 297 293 292 293 296 297 298 299 299 299 300 297
317 317 316 317 317 315 310 307 311 311 298 299 302 302 302 305 300 301 301 300 297 295 295 292 295 299 297 294 293 292 290 290 291 293 292 289 288 291 295 298 298 299 300 298 297
318 317 316 316 312 312 307 309 311 310 291 295 298 301 302 302 295 301 302 300 297 294 295 294 298 296 294 293 294 289 294 293 292 288 284 290 284 289 291 293 295 296 298 296 296
317 317 317 316 310 308 308 309 311 305 281 297 295 304 302 297 296 296 298 296 293 293 293 292 292 291 291 293 295 291 292 290 290 287 286 286 283 287 292 290 292 295 298 298 297
317 316 316 314 313 312 312 310 307 289 280 293 296 295 295 296 295 295 295 296 295 292 293 292 294 293 293 292 292 292 289 288 286 285 280 285 285 284 288 291 292 294 296 296 296
317 316 314 315 309 311 310 305 289 282 295 293 293 295 294 293 294 292 290 288 287 284 285 290 291 291 293 290 290 289 286 280 278 277 281 287 284 289 291 293 294 294 295 294 296
317 316 314 314 312 310 305 296 284 294 292 296 294 294 291 294 293 292 290 287 290 289 287 285 285 290 292 291 290 287 288 281 274 278 282 282 280 287 294 296 295 296 295 295 294
317 315 312 314 310 309 299 285 290 297 300 297 297 290 290 292 292 292 289 290 292 291 287 286 286 289 291 291 292 287 284 289 282 276 277 284 287 291 293 293 293 292 292 292 293
313 311 309 315 310 305 292 289 294 303 303 299 293 293 289 291 289 289 290 292 292 294 295 289 285 290 287 287 287 286 288 282 282 272 271 282 283 286 291 293 291 291 291 292 293
311 305 310 312 309 298 286 288 295 302 303 298 296 293 291 290 292 290 290 293 293 294 295 290 289 286 286 283 285 283 283 285 285 284 275 277 283 288 290 291 292 291 292 293 294
308 297 307 309 295 294 289 292 297 297 302 298 294 293 291 291 289 291 291 294 296 294 290 293 289 283 287 291 287 288 287 288 282 280 280 283 284 293 292 291 292 292 294 294 295
302 302 306 307 292 290 293 294 296 296 296 297 296 297 297 293 289 291 292 295 296 294 289 291 285 280 282 288 286 284 286 288 288 286 283 280 283 294 295 294 293 292 293 293 294
299 293 296 298 299 295 292 291 291 298 297 298 297 297 294 291 293 290 291 295 297 295 296 294 287 284 281 284 288 284 285 285 286 282 282 283 285 290 292 293 295 295 296 293 293
297 293 296 289 291 294 295 293 291 291 297 298 294 295 293 289 290 290 291 292 294 296 294 292 283 284 287 288 287 286 286 287 285 285 281 285 285 289 292 293 294 296 296 294 293
290 292 292 293 293 293 292 290 290 293 294 293 293 295 294 291 292 290 291 292 291 291 292 292 284 285 282 285 285 283 286 287 286 287 287 287 286 293 294 295 294 295 295 295 295
297 296 290 287 288 288 288 290 290 292 294 295 295 294 292 295 297 298 298 298 297 293 289 286 285 283 280 285 284 280 284 286 287 289 288 284 289 294 293 294 295 296 296 296 296

GFSSW_sfc_thetae_009.txt.gz
Theta_e
321 321 322 322 323 324 325 325 325 325 325 326 326 326 327 326 326 315 307 316 318 329 322 311 309 308 307 306 306 303 292 290 293 294 294 296 295 297 298 296 297 301 298 299 301
320 320 320 320 321 322 323 323 324 324 325 325 325 325 326 325 316 310 323 334 331 328 313 307 305 305 301 303 303 299 293 295 298 295 294 297 296 297 295 295 295 297 296 300 299
319 319 319 319 320 321 321 322 322 323 324 324 325 325 325 322 310 308 329 333 331 324 312 309 307 306 300 302 300 298 294 298 298 299 298 297 295 298 296 294 296 297 297 298 296
319 319 318 318 319 319 320 320 321 322 323 323 324 324 323 316 291 312 327 328 327 315 310 306 304 300 298 298 303 296 300 301 302 300 298 296 298 297 296 299 301 300 299 298 296
319 319 318 317 318 318 319 319 320 321 321 322 323 324 317 304 304 314 324 323 314 311 306 304 301 301 297 299 299 297 298 301 301 300 299 299 297 296 296 299 300 301 300 297 297
319 318 318 317 317 317 318 319 319 320 320 321 323 323 306 297 310 312 310 311 309 306 304 304 302 303 299 298 296 297 299 298 299 299 299 297 295 297 297 299 299 300 299 297 298
318 317 317 316 316 317 317 318 319 319 319 321 323 321 307 301 309 308 309 306 306 305 303 304 303 300 299 298 300 298 295 295 297 297 297 298 294 294 301 297 298 298 298 298 297
318 316 316 316 316 317 317 319 319 320 320 321 323 314 298 311 305 307 306 304 305 305 306 305 304 302 300 299 297 292 291 288 294 296 297 296 290 296 299 296 296 298 296 296 297
318 316 316 316 316 317 318 318 318 319 321 322 312 307 298 313 305 306 306 304 304 304 302 305 303 298 297 291 288 289 285 287 292 297 295 293 291 296 297 295 296 294 295 297 299
318 316 316 316 317 317 318 318 318 317 317 319 314 300 302 301 307 305 303 306 303 302 300 299 297 291 292 288 283 285 286 289 289 292 292 290 292 296 296 294 294 294 294 294 297
318 317 316 317 317 318 315 306 298 299 305 297 299 298 302 305 306 303 303 303 302 299 292 296 290 288 292 293 291 289 287 286 292 295 293 293 293 295 297 295 294 295 297 299 299
319 317 317 317 318 318 310 302 301 301 292 300 299 302 305 305 299 302 303 297 296 292 293 291 288 294 294 294 292 291 289 288 292 293 291 291 291 295 294 296 297 297 297 299 299
319 317 317 317 317 312 305 302 307 305 294 296 298 297 299 303 298 299 300 297 293 291 291 290 292 297 295 292 290 291 288 289 288 291 290 288 287 290 294 295 297 299 299 299 299
319 318 317 316 310 307 302 305 307 304 285 291 294 298 300 299 293 299 299 297 293 291 291 291 295 293 291 290 292 288 292 291 289 285 284 286 282 287 291 292 293 296 297 297 293
318 318 317 316 306 305 306 306 305 299 277 293 294 302 299 293 293 294 295 293 290 290 290 290 289 289 290 292 292 290 290 289 287 285 283 285 282 285 289 289 292 295 296 296 294
318 317 316 312 308 308 308 305 301 284 277 290 293 292 292 293 292 293 293 294 292 289 290 289 291 291 291 290 291 291 287 286 284 282 279 283 283 284 285 289 291 294 295 297 296
317 317 314 314 308 308 308 304 288 279 290 289 289 292 290 290 290 289 288 286 285 282 282 286 288 290 292 288 288 287 284 278 276 275 279 285 282 288 289 291 293 294 295 296 293
317 317 314 315 310 309 307 296 283 292 290 293 291 290 288 291 291 289 287 284 286 286 283 282 283 288 290 290 287 285 286 278 272 277 281 281 278 285 292 294 293 294 296 292 292
316 315 312 314 311 309 300 287 291 292 298 298 299 294 287 289 289 288 285 285 288 289 284 282 284 287 288 289 291 285 283 288 280 270 274 283 285 288 291 291 292 292 289 291 292
312 311 310 314 311 305 294 293 294 299 301 300 294 296 291 293 288 288 286 289 289 290 294 289 283 288 286 287 286 286 287 281 280 272 270 281 279 285 289 292 294 290 290 290 291
310 304 309 311 309 299 289 290 295 300 299 297 295 295 295 293 295 292 289 292 291 291 292 289 287 286 285 283 284 283 283 284 284 280 279 278 282 287 287 289 290 289 290 290 291
306 296 308 310 296 295 293 293 297 297 299 298 296 296 294 294 293 293 293 294 297 294 289 291 288 281 285 287 287 287 286 286 282 279 279 282 283 295 290 290 290 290 291 289 292
298 298 306 306 292 292 292 293 296 296 295 296 295 297 298 294 289 293 293 298 299 295 291 292 285 280 283 287 284 284 285 287 286 284 281 278 281 295 295 295 294 290 290 292 293
295 290 297 298 299 295 293 293 292 297 296 296 295 297 295 293 295 292 293 296 298 297 297 296 286 284 281 285 288 284 285 286 287 282 283 283 285 290 292 292 294 295 296 296 294
291 287 292 287 291 294 293 293 291 291 296 297 294 294 293 289 291 291 294 294 296 296 294 293 283 285 287 288 288 287 287 287 285 286 282 285 285 288 291 292 294 296 296 295 291
286 287 290 288 290 290 292 290 289 291 291 290 289 291 293 289 290 288 291 292 291 289 291 292 286 287 284 287 286 284 287 288 287 287 287 287 286 293 295 296 295 296 296 295 295
290 294 290 284 282 283 285 287 288 290 291 292 288 286 285 288 291 290 291 291 292 291 290 289 285 285 282 286 285 281 286 287 287 289 288 283 288 293 292 293 295 296 296 295 296

GFSSW_sfc_thetae_012.txt.gz
Theta_e
321 321 321 322 322 322 323 324 324 324 325 325 325 325 326 326 325 313 305 312 317 330 323 310 308 306 305 304 304 300 290 288 290 292 293 295 294 296 296 295 296 300 297 297 299
320 320 320 320 321 321 322 322 322 322 323 324 325 325 325 325 313 307 320 333 333 331 310 305 303 304 300 301 301 297 289 291 295 295 293 295 295 295 293 294 294 296 296 298 299
320 320 320 319 320 320 321 321 321 321 322 323 324 324 325 322 306 305 330 335 332 328 310 307 305 304 298 299 299 297 292 296 298 298 297 296 294 297 294 293 295 296 297 297 295
320 319 319 318 318 319 320 320 320 320 321 322 322 323 324 314 290 308 329 331 331 313 308 304 302 299 297 296 300 294 298 298 300 300 297 295 296 295 295 300 299 298 297 296 295
320 319 318 317 318 318 319 319 320 320 320 321 322 323 314 301 301 314 326 326 316 310 305 303 301 299 296 297 297 296 297 299 300 299 297 298 296 295 295 298 298 299 297 296 297
319 318 317 317 317 317 318 319 319 321 320 320 321 322 303 293 306 313 311 311 308 305 303 303 301 301 298 297 296 295 297 297 297 298 297 297 295 296 300 297 298 298 297 295 297
319 318 317 317 317 317 318 318 319 320 320 320 321 319 306 298 307 308 308 306 305 304 301 302 302 300 297 296 299 296 294 294 296 296 295 296 293 293 301 296 297 297 296 297 296
319 318 317 317 317 318 318 319 319 320 320 320 322 312 296 308 304 305 304 303 303 303 303 303 302 300 297 298 295 291 290 287 292 294 295 295 290 295 298 296 297 296 295 295 297
318 318 317 317 317 318 319 319 319 319 320 322 311 304 297 312 303 305 304 302 303 303 302 305 301 296 296 290 287 286 284 285 290 295 293 292 290 295 296 294 295 296 294 295 296
319 318 317 317 317 318 319 319 317 316 317 318 312 297 301 300 305 303 301 304 300 300 299 298 295 290 290 287 283 284 283 286 287 291 291 289 291 296 296 293 293 294 292 292 295
319 319 318 317 318 319 315 306 297 296 302 295 297 296 300 304 304 301 302 302 301 296 290 293 288 286 291 291 290 286 285 285 288 292 290 290 291 294 298 294 292 294 297 298 296
319 319 318 318 318 318 308 302 300 300 292 299 299 300 302 303 298 301 303 297 296 291 292 289 286 292 292 291 291 289 288 287 291 293 289 290 290 294 294 296 298 297 296 297 298
319 318 318 317 317 310 303 301 305 304 292 294 297 295 297 302 297 297 300 296 291 289 290 290 291 295 292 290 289 288 287 288 288 289 288 286 287 288 292 295 297 296 297 298 299
319 318 317 317 310 306 302 304 305 303 283 288 293 295 298 299 292 297 297 295 291 290 289 289 293 292 290 289 291 287 291 290 287 284 283 285 282 285 289 291 293 294 297 297 298
318 318 318 316 306 305 306 306 304 295 277 291 292 300 298 292 292 292 294 294 288 289 289 288 288 288 288 291 291 290 289 288 286 283 282 281 281 285 288 287 291 294 295 296 298
318 318 317 312 308 309 309 306 300 285 279 288 292 291 290 292 291 291 291 293 291 288 288 288 289 290 290 290 290 289 287 285 283 282 279 283 283 283 284 288 290 294 295 296 298
317 318 314 314 308 309 306 305 295 282 291 288 288 290 289 288 289 288 287 286 285 282 281 284 286 288 290 286 287 287 285 278 275 274 278 284 280 288 289 290 291 293 294 295 296
314 317 315 316 311 309 308 298 288 293 289 294 291 289 287 289 290 288 285 283 286 284 282 281 282 286 289 289 286 286 286 281 273 278 282 281 279 285 291 293 293 293 294 292 291
313 315 313 314 311 311 302 290 292 294 297 297 298 293 288 288 290 288 284 284 287 288 285 282 283 287 288 288 289 283 282 288 281 273 273 282 285 289 288 290 291 291 290 290 290
307 310 310 314 312 307 297 293 296 299 299 299 293 294 289 289 292 288 286 288 288 289 292 288 284 290 285 286 285 286 287 281 280 275 274 280 279 285 287 290 289 289 289 289 290
306 301 307 311 310 300 290 293 297 301 301 297 295 294 294 293 294 293 291 291 291 289 291 289 287 288 285 283 285 283 283 283 283 282 280 278 282 288 287 287 288 288 290 290 289
303 293 308 310 296 296 293 295 298 296 299 298 297 296 294 294 292 293 294 295 297 293 291 291 288 283 286 287 286 286 286 287 282 281 280 282 283 294 294 294 293 294 291 291 291
296 297 307 307 290 292 294 294 297 295 295 295 295 297 297 294 290 294 295 299 299 296 293 293 287 283 283 287 289 283 287 287 286 286 282 280 282 295 295 295 295 292 294 296 292
293 288 297 299 299 294 292 292 292 296 295 296 295 296 294 291 294 291 292 296 297 297 298 296 289 287 282 286 288 285 285 285 285 281 282 283 285 289 292 293 295 296 296 296 294
289 286 292 287 290 292 293 292 290 290 295 296 293 293 291 288 289 289 292 290 292 295 296 294 286 287 288 290 290 289 289 289 287 287 282 285 285 290 292 294 295 297 296 295 292
286 285 288 286 287 288 291 288 289 291 291 290 290 290 288 286 287 285 285 286 286 289 287 290 284 286 285 287 286 285 288 288 289 288 288 288 287 294 296 297 295 296 297 296 295
287 291 288 283 282 280 282 284 286 286 288 291 285 283 283 285 284 285 286 287 287 285 284 283 283 282 279 284 283 279 285 286 287 290 289 284 289 290 289 291 293 293 288 288 289

GFSSW_sfc_thetae_015.txt.gz
Theta_e
321 321 321 322 322 322 323 323 323 323 323 324 324 325 325 325 324 311 304 311 315 330 320 308 307 305 303 302 302 297 289 286 288 290 293 294 293 295 295 295 295 298 295 296 298
321 320 321 321 320 321 322 322 322 322 322 323 323 324 324 324 312 305 318 330 332 331 308 305 302 302 299 300 300 296 287 289 292 293 292 294 294 294 296 293 293 296 296 297 297
320 320 320 320 320 320 320 321 321 321 322 322 322 323 323 319 302 301 327 333 334 325 309 305 303 302 297 298 298 296 292 294 297 298 296 295 293 295 293 293 294 296 297 296 295
320 319 319 319 319 319 319 320 320 321 321 321 322 322 323 312 290 303 330 334 332 314 307 303 301 298 295 296 299 293 297 296 298 298 296 294 295 293 294 300 298 298 296 295 295
319 319 319 318 318 318 319 319 319 320 320 321 321 322 312 297 300 312 328 328 316 308 304 301 299 298 294 295 296 295 296 298 298 298 297 297 295 295 295 299 297 298 296 295 296
319 319 318 318 318 318 319 319 319 320 320 320 321 322 302 291 303 313 312 312 307 304 301 301 299 300 296 296 295 294 296 296 296 297 297 296 296 294 299 296 297 296 296 295 295
320 319 318 318 319 318 319 319 320 320 320 320 320 318 303 297 305 309 308 306 305 303 299 300 300 298 295 293 297 295 293 293 293 294 295 295 293 292 300 295 296 295 296 295 295
320 318 318 318 318 319 319 320 320 320 320 320 320 310 294 306 304 305 304 302 303 302 302 301 301 298 296 296 294 290 289 286 291 292 293 294 288 296 297 295 296 296 294 294 296
319 318 318 318 318 318 319 320 319 319 319 321 310 301 295 309 302 303 303 301 302 301 300 305 299 295 294 288 286 284 282 284 288 293 292 291 289 295 295 293 294 294 295 295 295
319 318 318 318 318 318 319 319 317 316 317 317 311 294 295 298 304 302 301 302 299 298 297 296 293 289 288 286 282 283 282 284 284 289 289 288 289 294 296 293 293 294 295 297 297
319 319 319 319 319 319 314 303 298 295 301 295 297 293 297 302 303 299 302 301 299 294 289 292 288 286 290 290 288 285 284 284 288 291 288 289 290 293 296 296 295 293 296 297 298
320 319 319 319 319 319 305 300 298 298 291 298 298 299 301 302 297 298 301 296 294 290 290 288 285 292 290 289 289 288 287 286 290 292 287 288 288 291 292 294 297 297 297 297 297
319 319 318 318 318 310 302 300 304 303 290 293 296 295 296 301 296 296 299 295 291 289 289 288 289 293 290 288 287 286 285 287 286 288 287 285 286 288 290 293 295 296 297 298 298
320 319 318 317 310 306 302 304 304 299 285 288 291 293 296 297 292 296 296 294 290 289 288 288 292 291 288 287 289 286 289 289 287 283 281 285 280 284 288 290 291 294 295 295 296
319 319 319 317 308 306 307 305 303 294 284 292 291 298 296 290 291 291 294 292 288 288 288 286 287 286 286 289 289 288 288 286 283 281 281 281 278 283 286 287 289 293 294 296 295
317 318 318 313 309 310 308 306 300 289 283 289 291 290 290 291 290 290 290 292 290 287 287 288 288 289 289 288 289 288 286 284 281 281 277 283 282 284 284 288 288 291 293 294 296
314 315 315 314 309 309 308 306 294 287 293 289 287 289 287 287 288 287 286 285 284 281 280 283 285 286 290 286 286 287 283 277 275 274 277 282 280 287 290 289 290 294 293 292 292
311 314 315 316 311 312 309 301 286 292 291 293 289 288 287 289 290 287 284 283 285 283 280 280 283 285 288 288 285 284 284 279 271 277 282 281 278 288 290 291 290 289 291 290 291
310 313 313 314 311 312 303 291 289 294 297 295 296 291 287 288 290 287 284 284 287 286 284 281 283 285 287 287 289 282 281 286 281 276 275 283 285 291 288 288 287 289 289 290 288
301 306 307 314 311 308 298 293 295 300 298 299 293 295 288 286 291 287 287 287 287 288 290 288 283 289 285 285 286 286 286 280 278 274 273 279 281 284 288 291 290 288 289 291 289
302 297 305 311 311 301 290 291 296 301 301 297 295 294 294 293 294 293 293 294 290 290 289 288 287 287 287 283 286 282 282 282 282 281 279 278 282 293 291 289 288 288 289 290 291
301 291 307 311 296 297 292 294 297 297 300 299 298 296 294 295 292 292 292 294 296 294 290 291 288 284 286 285 285 286 285 285 281 280 282 282 283 295 295 292 288 292 296 295 291
292 294 307 306 290 291 294 294 297 295 295 296 294 296 297 293 289 292 293 298 298 295 293 293 287 282 284 285 286 286 290 289 288 286 281 278 281 294 295 295 296 294 292 291 292
290 283 295 299 298 293 291 291 291 296 296 297 295 296 293 291 293 290 290 293 294 294 295 296 290 286 281 285 288 284 286 288 288 283 283 283 285 289 292 293 295 297 295 294 292
287 284 289 286 289 291 292 290 288 288 295 296 293 293 291 287 288 288 288 288 291 293 291 290 284 286 286 286 286 285 285 286 285 287 282 285 286 290 292 293 291 289 290 288 288
284 283 287 282 286 286 288 287 286 288 290 289 289 291 290 287 288 282 282 283 283 286 285 287 279 282 279 282 283 282 284 286 286 285 284 283 283 285 283 282 280 284 282 282 283
286 288 287 282 281 279 281 285 284 284 288 287 284 283 283 284 283 284 284 284 283 281 280 281 280 275 273 278 277 272 278 280 283 285 284 280 278 279 278 278 279 281 281 282 283

GFSSW_sfc_thetae_018.txt.gz
Theta_e
321 321 321 322 321 322 322 323 323 322 323 323 323 324 324 324 323 310 301 310 313 331 319 307 306 303 302 301 300 296 289 285 288 288 291 293 292 294 294 295 294 297 296 295 297
320 320 321 321 320 321 321 321 322 322 322 322 322 323 323 323 310 304 316 328 332 329 306 304 302 302 298 298 299 295 287 288 291 290 292 293 293 297 296 293 292 295 296 296 297
320 320 320 320 320 320 320 320 320 321 321 322 322 322 322 319 298 298 326 329 334 324 307 304 302 301 296 297 297 294 291 292 294 295 295 294 292 294 292 293 294 295 297 295 295
320 319 319 319 319 320 320 320 320 320 320 321 321 322 322 309 290 300 331 334 333 309 305 302 300 297 294 294 297 293 296 295 296 296 295 294 294 292 294 300 297 298 297 295 295
320 320 319 319 319 320 320 320 320 320 320 320 321 322 310 294 298 312 329 328 312 306 303 300 298 297 293 294 294 293 295 297 297 297 297 296 296 294 294 299 297 296 296 295 295
320 319 319 319 319 320 320 320 321 321 320 320 320 321 302 291 301 315 315 310 307 304 301 300 298 299 295 294 294 293 294 295 295 296 296 295 297 293 297 296 297 295 295 294 294
320 319 319 319 320 320 320 320 321 321 321 321 320 316 301 297 304 309 309 305 305 304 299 299 300 298 295 292 294 293 292 291 292 293 293 294 292 290 299 294 295 295 294 295 294
320 319 319 319 319 320 320 321 321 321 320 320 320 309 293 303 304 304 303 300 301 301 300 300 301 298 294 294 292 287 288 285 289 291 291 293 286 296 294 291 294 294 294 294 295
319 318 319 319 319 319 320 320 319 321 320 320 309 299 293 308 300 302 302 300 300 299 299 304 298 294 293 287 286 283 282 283 287 292 291 290 287 293 293 292 293 294 294 296 298
319 319 319 319 319 319 319 319 317 316 317 317 309 294 296 295 301 300 299 301 298 298 296 295 292 289 287 286 281 282 280 283 283 288 288 287 288 292 295 291 294 296 297 297 297
319 319 319 319 319 320 313 301 296 294 300 295 296 292 293 300 301 298 301 300 297 293 289 290 287 285 290 288 288 284 283 282 286 290 286 288 289 291 294 294 295 296 296 297 297
320 320 319 319 319 318 304 299 297 298 293 297 297 298 300 300 295 297 301 296 293 289 289 287 284 291 289 288 287 286 285 285 288 291 286 287 287 290 292 293 295 296 297 297 297
320 319 319 319 318 310 301 299 303 301 290 294 296 294 296 300 295 296 298 293 290 288 287 287 288 291 289 286 286 284 283 285 285 286 286 284 285 286 290 291 295 296 296 295 295
320 320 319 318 311 305 303 303 304 298 288 290 290 293 295 296 291 295 296 294 289 289 287 287 290 289 286 285 287 285 288 287 286 282 279 284 279 284 289 289 289 291 293 293 294
318 319 319 317 309 308 306 304 303 294 284 293 290 297 295 290 290 290 293 291 287 287 287 286 286 285 285 287 288 286 287 285 282 280 279 279 278 282 285 286 289 291 291 292 292
314 315 317 313 310 310 308 306 300 291 285 291 290 289 288 289 289 289 290 291 289 286 286 286 287 288 288 288 289 287 285 283 281 280 276 281 281 281 284 286 287 291 292 292 292
311 311 315 315 310 309 310 309 294 287 294 289 286 288 286 286 287 286 286 285 284 280 279 282 284 286 287 284 285 287 282 277 274 273 276 280 279 285 288 289 290 292 291 292 290
309 311 314 315 310 313 311 301 284 292 293 296 291 289 287 289 289 286 283 282 284 283 280 280 284 285 287 287 285 284 285 279 273 273 281 280 279 288 290 291 290 288 289 289 288
307 308 309 314 311 312 304 291 291 291 295 295 296 291 288 288 290 288 284 284 288 288 286 283 283 285 286 286 288 282 282 286 281 281 276 283 285 291 291 286 287 287 288 289 289
298 300 304 313 311 308 298 292 294 298 298 298 292 294 287 288 287 287 286 287 286 288 290 288 285 290 289 285 285 285 287 282 281 275 274 279 280 284 288 291 292 289 287 289 290
298 293 301 311 311 301 290 290 296 299 300 296 295 293 293 291 293 292 293 293 290 291 290 289 287 286 286 283 284 281 281 282 282 282 278 277 281 292 291 288 287 287 289 289 291
296 288 305 311 296 296 290 292 296 296 298 297 298 296 293 293 291 292 292 295 297 293 289 289 288 284 286 288 286 285 287 286 282 280 280 282 282 294 294 294 292 291 290 288 288
292 292 305 307 288 289 293 293 295 294 294 294 293 295 295 292 288 291 292 297 296 294 293 293 287 282 283 285 286 286 288 289 288 286 281 278 279 292 293 293 283 287 287 287 286
287 280 291 298 296 289 288 288 289 295 295 296 295 295 292 290 293 290 290 293 293 293 296 295 288 285 281 284 287 285 286 285 284 279 281 282 284 289 290 286 283 282 282 283 283
284 281 286 284 286 287 290 289 286 285 291 293 291 291 290 286 288 288 288 287 290 292 290 289 283 286 286 283 283 282 281 282 281 282 278 280 281 285 280 278 280 283 282 282 282
282 281 284 281 282 281 283 284 286 286 288 286 286 287 287 286 287 284 283 283 281 284 284 285 277 280 277 280 280 278 280 280 279 279 279 281 281 278 280 280 279 281 281 280 281
284 285 285 281 280 279 278 281 282 282 284 282 282 281 281 284 284 283 284 283 282 280 279 279 278 272 272 277 272 266 273 276 278 279 278 276 276 276 275 277 278 279 282 279 280

GFSSW_sfc_thetae_021.txt.gz
Theta_e
321 321 322 322 321 322 322 322 322 322 323 323 323 323 323 324 323 312 301 309 313 331 319 308 307 305 305 304 303 300 292 288 291 290 293 296 296 298 298 298 298 300 300 302 301
321 321 321 321 321 321 321 321 321 321 322 322 322 323 323 323 310 303 315 326 333 326 306 304 302 303 300 301 301 297 290 291 293 292 294 296 296 298 298 297 296 298 300 300 301
320 320 321 321 321 321 321 321 321 321 321 321 321 322 322 318 298 297 327 328 333 321 306 304 303 302 298 300 299 296 293 294 295 294 296 296 295 297 296 296 297 298 300 299 298
321 320 320 320 320 321 321 321 322 321 321 321 321 321 322 308 290 298 330 332 332 308 305 303 301 299 297 296 299 294 297 296 298 298 297 296 296 295 296 302 302 300 301 299 298
320 320 320 320 320 321 321 321 322 322 321 321 321 321 308 293 297 314 330 330 309 306 303 301 299 298 295 295 296 295 296 297 298 297 297 297 297 296 296 300 300 299 297 298 298
320 320 320 320 320 321 321 321 322 322 321 321 321 320 298 291 302 318 317 310 307 304 301 301 299 299 296 295 295 295 295 295 295 296 296 296 297 295 297 298 298 297 298 297 296
320 320 319 320 320 321 321 321 321 322 321 321 320 315 297 296 305 311 310 306 305 303 300 300 300 299 297 293 295 294 292 292 292 293 294 294 293 291 299 296 297 297 296 295 297
320 319 319 319 320 320 321 321 321 320 321 320 320 308 291 302 305 305 302 300 302 301 301 301 301 299 296 296 293 289 289 286 290 292 292 294 288 295 295 293 295 295 296 296 297
319 318 319 319 319 320 320 321 319 322 321 320 307 296 292 308 300 302 301 300 300 299 300 302 300 295 294 289 287 286 283 284 287 292 292 291 289 293 294 293 294 296 298 297 299
319 319 319 319 319 320 320 316 316 315 317 317 308 294 296 294 301 300 299 301 298 298 297 296 292 290 287 287 282 283 282 283 284 289 288 288 288 292 295 294 295 296 297 298 299
319 320 320 319 320 321 310 300 300 296 298 294 295 292 293 298 300 298 300 299 297 294 290 291 287 285 290 289 287 284 283 282 286 289 287 289 289 290 293 293 294 296 297 297 297
320 320 320 320 320 318 304 299 297 298 292 299 298 297 298 299 295 296 300 295 292 289 289 287 284 290 289 288 287 286 285 284 288 290 286 287 288 292 293 294 295 296 296 296 296
320 320 320 319 319 310 301 300 303 301 290 295 296 294 296 299 294 295 298 293 290 287 287 286 288 291 289 286 286 284 283 285 284 286 286 284 285 286 291 291 293 295 296 296 295
320 320 320 320 312 305 302 302 303 298 288 292 291 292 294 295 290 294 295 293 289 288 287 286 290 289 286 285 287 284 287 287 285 283 280 285 279 284 289 290 290 292 292 293 293
315 317 319 317 310 307 305 305 303 295 284 292 289 296 294 289 289 291 293 292 287 287 287 286 286 285 285 287 287 286 286 285 284 282 280 281 279 283 285 288 290 293 293 294 294
312 313 317 314 311 309 307 305 303 292 285 291 289 289 288 288 288 290 290 291 288 286 285 286 287 288 288 287 288 287 285 283 281 281 276 281 281 281 284 288 288 292 294 292 292
309 310 315 315 311 310 310 308 293 287 297 290 285 288 285 285 287 287 286 285 284 281 280 283 285 287 287 285 287 286 282 277 276 275 277 280 279 284 288 290 291 292 292 292 290
307 309 312 315 311 312 312 301 286 292 293 296 294 292 290 290 291 289 286 285 287 285 282 280 283 285 287 288 286 284 285 281 275 273 279 281 280 286 290 291 290 289 290 291 291
306 305 307 311 311 312 304 290 289 291 294 294 294 291 287 287 290 287 285 286 289 288 286 285 283 285 285 286 289 284 282 287 282 281 277 282 285 292 291 290 288 289 289 288 288
297 297 302 311 312 309 297 290 292 297 298 297 291 293 287 287 286 287 287 288 287 289 290 290 285 289 288 285 284 286 288 281 281 275 275 280 281 284 287 288 288 286 286 287 288
296 291 298 311 312 300 288 289 293 298 299 295 293 292 292 291 291 290 290 294 292 290 289 291 289 287 288 284 284 282 282 283 283 283 279 278 280 290 288 284 285 285 286 285 285
294 281 302 311 294 295 290 291 295 293 296 295 295 294 292 292 290 290 289 293 297 295 290 291 289 284 286 291 287 287 287 286 281 280 281 283 283 292 285 285 285 283 283 284 284
288 288 300 306 285 288 291 293 295 292 292 293 292 294 293 290 287 289 290 294 295 294 291 292 286 282 282 284 286 286 288 287 286 285 281 278 281 291 290 284 283 281 281 283 283
286 278 286 298 292 289 284 286 286 290 292 294 292 292 290 288 290 288 289 292 293 293 296 295 286 284 280 283 287 284 285 285 283 277 279 280 280 285 286 280 280 282 282 282 282
283 280 285 281 285 283 289 286 284 283 289 289 286 288 286 284 284 285 288 287 290 290 290 289 283 284 286 285 282 281 280 280 279 280 276 279 279 283 279 278 279 280 283 282 280
281 280 282 283 282 283 284 283 284 284 285 284 283 285 284 282 284 282 283 283 283 282 282 285 278 279 277 279 280 277 277 278 278 279 279 279 278 279 279 279 278 278 281 281 279
283 285 284 279 279 277 277 280 280 281 282 281 281 280 279 282 283 284 284 282 282 280 279 279 278 274 272 277 273 270 274 277 277 278 276 273 274 276 276 277 277 277 279 280 279

GFSSW_sfc_thetae_024.txt.gz
Theta_e
321 322 322 322 322 322 322 322 322 322 322 323 323 323 324 324 322 317 306 313 317 330 321 314 314 312 313 310 309 308 302 298 298 298 300 304 303 304 306 305 305 308 309 311 309
321 321 321 321 321 322 322 322 322 322 322 322 322 323 323 323 315 309 320 325 331 326 313 311 309 310 309 308 309 306 301 300 303 303 301 304 303 305 304 305 305 306 310 309 308
321 321 321 321 321 322 322 322 322 322 322 322 322 322 322 322 306 305 326 328 334 323 314 312 312 309 306 307 307 305 300 304 303 303 302 303 303 305 304 303 307 307 309 311 308
321 321 321 321 321 322 322 322 322 322 322 322 321 322 322 316 298 306 329 332 331 315 312 310 309 306 304 303 306 301 304 304 304 303 303 302 304 303 304 306 309 310 311 310 309
321 320 321 321 321 322 322 322 323 323 323 322 322 321 314 303 304 321 331 332 317 312 310 308 306 306 302 303 303 301 304 305 305 304 303 304 303 303 304 308 310 309 307 307 308
320 320 320 320 321 322 322 322 323 323 322 322 321 320 307 296 309 325 325 315 313 311 309 309 307 308 303 302 301 303 302 303 303 303 303 301 302 301 304 307 306 306 306 307 307
320 320 319 320 321 321 322 322 322 322 321 321 321 317 304 303 312 320 315 313 312 311 307 308 308 306 305 301 303 301 298 301 301 301 300 301 298 299 305 306 304 305 306 306 306
320 319 319 319 320 321 322 322 322 320 322 320 321 315 301 307 314 312 310 307 310 309 308 308 308 306 303 303 299 297 296 294 299 298 299 300 295 302 305 302 302 304 306 306 307
319 318 319 320 320 320 321 321 319 322 321 321 314 305 301 310 305 307 308 305 307 306 307 306 307 303 301 298 295 296 292 294 295 298 298 298 296 301 303 301 301 303 304 304 305
319 319 320 320 320 320 320 315 317 318 319 318 311 300 303 300 305 305 306 306 304 305 303 303 302 299 297 295 289 293 292 292 292 297 295 294 294 299 301 300 300 301 303 304 305
320 320 320 320 320 321 314 311 312 308 308 306 305 301 300 304 306 303 305 303 303 302 297 299 296 293 296 297 297 295 292 292 295 298 294 294 295 297 299 299 299 301 302 304 304
321 321 321 320 321 318 313 309 305 305 302 306 304 302 302 305 300 301 305 300 299 295 296 294 292 298 298 295 293 293 292 292 295 297 293 294 293 296 298 299 301 301 302 303 304
321 320 320 321 320 318 310 308 309 307 300 302 301 299 300 303 300 300 302 300 297 293 294 294 297 296 294 294 292 293 291 291 292 294 294 292 292 294 299 300 300 301 302 302 302
320 319 320 320 316 314 309 308 308 306 299 299 296 298 299 301 295 299 300 299 296 293 294 294 296 293 292 291 293 290 296 293 291 289 286 291 285 294 297 297 298 301 300 301 301
314 316 319 318 317 314 309 309 307 302 287 296 294 302 299 295 295 296 299 298 293 293 293 293 292 291 290 292 294 291 292 291 290 289 287 289 285 294 293 295 298 299 298 298 298
311 314 317 318 318 311 309 308 307 297 287 295 295 295 294 294 293 296 296 298 297 293 293 293 294 293 294 292 293 292 292 291 289 288 284 290 288 290 293 294 296 299 295 296 296
309 310 316 317 313 314 313 312 296 288 300 296 292 292 293 291 292 293 294 295 294 291 292 295 294 293 293 291 291 291 289 285 285 284 285 287 287 290 296 295 295 293 293 294 295
307 308 312 317 315 316 317 303 287 293 295 300 297 294 296 293 296 294 295 294 293 292 290 289 288 290 292 293 291 288 290 285 280 282 286 291 287 293 297 297 294 294 294 294 293
305 311 310 313 314 316 306 290 291 295 299 297 297 294 295 294 295 293 292 294 294 292 289 289 289 293 290 292 294 291 286 292 286 286 282 288 292 297 295 295 293 293 293 291 292
302 303 304 313 316 312 297 290 293 299 300 299 292 296 291 294 292 291 293 293 292 292 293 292 286 295 295 291 291 291 292 284 286 278 278 284 286 288 292 292 292 291 290 289 290
301 295 301 313 314 301 289 290 293 299 299 296 294 293 293 292 294 293 293 296 298 295 294 294 290 289 293 290 289 286 286 287 286 285 279 278 283 293 292 290 290 289 288 287 288
299 287 304 312 295 296 291 293 296 295 298 296 297 295 293 293 291 291 290 294 299 298 292 295 291 285 289 296 295 293 290 291 284 282 284 283 283 292 290 289 287 285 285 286 286
294 294 303 308 288 289 294 293 295 294 294 294 292 295 295 291 287 291 292 296 298 296 293 294 288 282 285 289 290 287 290 289 288 285 282 280 283 292 287 286 285 283 284 285 285
291 285 293 299 297 291 289 289 289 293 293 294 293 295 292 289 291 288 290 293 294 294 294 295 288 284 280 285 289 285 287 288 286 281 282 282 283 288 290 288 283 282 284 284 282
289 285 289 287 289 290 290 289 286 286 291 292 289 290 287 284 285 285 288 289 291 290 291 290 283 285 286 287 287 285 284 283 282 282 278 281 281 285 287 281 281 281 282 284 281
285 285 287 285 286 286 287 286 285 287 287 285 285 287 286 283 285 283 284 285 285 286 285 286 280 283 278 283 283 280 282 282 281 281 280 280 280 287 282 281 281 281 281 282 281
288 290 287 283 282 283 283 285 283 285 283 284 283 282 281 284 286 286 286 285 284 282 281 280 280 278 275 280 278 273 277 280 281 282 281 277 280 280 278 279 280 280 281 281 281

GFSSW_sfc_thetae_027.txt.gz
Theta_e
322 322 322 322 322 322 323 323 323 322 322 323 323 323 323 324 323 321 310 316 319 330 324 316 315 314 315 313 313 312 302 299 301 301 302 306 304 308 310 307 309 310 310 313 314
321 321 321 321 322 322 322 322 323 323 323 323 323 323 323 323 317 312 320 324 333 327 315 313 311 312 310 310 311 307 302 302 306 305 303 305 305 306 306 306 307 309 312 314 313
320 321 321 321 321 322 322 323 323 323 323 323 323 323 322 322 311 308 326 330 333 325 316 315 313 311 307 310 309 307 302 305 306 307 306 304 305 307 305 303 306 307 310 312 313
321 320 321 321 321 322 323 323 323 323 323 323 323 322 322 318 300 310 329 331 332 319 314 312 310 307 305 304 308 303 306 306 307 308 305 304 307 304 305 306 309 310 311 311 311
321 321 321 321 321 322 322 323 323 324 323 323 322 322 318 306 306 324 330 331 320 314 311 309 307 307 303 304 305 304 304 306 307 307 306 306 304 304 304 308 310 310 310 310 310
321 320 320 320 321 322 322 323 323 323 323 322 322 321 312 302 312 323 326 322 315 313 311 311 308 309 305 304 302 305 304 304 305 305 305 302 303 304 305 308 308 308 308 309 309
320 320 320 320 321 322 322 323 323 322 321 322 322 318 307 307 315 321 321 317 315 313 310 312 312 307 307 303 306 303 299 301 302 303 303 303 299 300 306 308 306 306 307 308 309
320 319 319 320 321 321 322 322 321 321 321 320 322 316 305 309 315 314 314 311 314 313 312 311 311 308 305 307 302 299 300 295 302 301 302 301 295 302 306 304 304 305 306 307 308
320 319 320 320 320 321 321 320 319 321 321 321 316 311 303 310 307 310 311 307 310 310 309 308 309 305 305 299 296 299 293 296 298 304 300 299 296 302 305 304 303 304 305 306 307
320 320 320 320 320 321 320 315 319 319 320 318 312 303 304 303 307 307 309 309 306 307 305 304 304 300 300 297 290 295 295 297 296 300 299 297 297 301 303 303 302 303 304 305 306
321 321 321 321 321 322 319 317 315 311 313 310 311 307 311 307 308 305 307 305 306 304 298 302 297 294 298 300 299 297 295 294 297 300 298 298 297 299 302 302 302 302 304 305 306
321 321 322 322 321 321 318 315 311 309 306 315 312 308 308 306 303 303 307 301 300 297 300 297 294 299 301 300 296 295 294 293 297 300 299 296 295 298 300 301 302 303 304 304 304
321 321 321 321 321 321 317 311 312 310 304 308 306 304 304 305 305 305 304 302 299 298 297 295 299 301 297 296 295 295 294 294 294 297 297 295 293 297 301 303 304 303 303 302 301
320 320 320 320 317 321 314 312 312 310 300 301 299 300 301 303 298 301 303 302 299 296 298 297 298 295 295 294 295 291 297 295 293 291 287 294 285 294 299 301 300 300 299 299 299
316 317 320 316 322 318 312 312 311 307 289 299 296 304 302 298 298 298 303 301 296 296 296 295 295 294 292 294 296 293 295 293 292 290 290 291 288 294 298 296 297 297 297 297 297
311 315 317 320 323 317 314 312 311 297 287 298 297 296 295 296 296 298 298 300 300 296 296 297 297 295 296 296 296 296 293 293 294 290 285 292 291 292 295 296 294 295 296 296 296
308 309 316 320 316 320 319 317 298 289 301 298 295 295 296 295 294 295 296 295 296 292 293 297 295 299 296 293 295 293 290 287 286 285 285 291 290 292 298 297 296 295 295 296 296
306 308 312 319 321 320 319 305 288 295 296 302 299 297 297 298 298 296 297 296 300 297 293 290 287 294 294 294 293 292 293 288 281 283 286 292 286 293 300 296 296 296 295 295 294
305 311 310 314 320 320 308 292 291 295 299 298 299 295 295 298 298 298 297 296 298 297 290 290 290 295 293 294 296 293 290 295 287 288 283 287 292 297 301 296 295 295 294 292 292
305 305 306 314 319 314 299 292 294 299 300 300 293 296 291 294 294 294 294 297 296 296 297 294 287 296 297 294 295 291 293 286 286 278 278 284 288 289 292 293 294 292 291 290 291
303 297 305 314 316 303 290 291 293 298 299 297 294 293 293 292 293 293 293 296 299 295 297 296 291 290 294 291 290 288 287 287 288 286 280 280 285 296 293 293 292 289 289 289 288
300 290 308 314 295 297 292 294 295 296 299 297 297 295 293 293 291 291 290 294 300 298 293 296 291 286 288 294 296 295 291 291 283 282 285 284 284 293 292 290 289 288 288 288 288
294 296 307 307 289 292 294 293 296 294 295 294 293 295 295 291 287 290 291 297 298 296 293 295 288 282 284 288 292 290 291 290 289 286 282 279 283 291 289 288 288 287 287 286 286
294 288 295 299 299 293 291 290 290 296 295 295 293 294 292 289 291 288 289 294 295 295 294 295 289 284 280 282 287 285 287 289 287 282 283 283 284 289 291 291 289 286 286 286 285
293 289 293 288 291 292 292 289 287 288 292 293 290 290 288 285 286 286 289 290 292 291 291 290 282 284 285 286 286 285 284 285 283 284 280 283 283 286 289 289 286 284 284 284 285
288 287 290 291 292 291 290 288 287 288 288 286 287 289 290 286 287 283 286 286 285 288 286 289 280 282 278 283 283 280 282 283 283 284 283 283 282 289 287 284 284 284 282 282 282
292 293 290 286 287 287 288 288 286 289 287 288 288 286 284 287 289 288 288 287 287 284 283 282 280 278 274 279 279 274 279 281 282 284 283 278 282 282 282 281 281 281 282 282 282

GFSSW_sfc_thetae_030.txt.gz
Theta_e
322 322 322 322 322 323 323 323 323 323 323 323 324 324 324 324 324 321 312 318 320 331 327 315 313 313 314 312 312 309 297 294 297 297 297 302 298 302 302 299 302 304 302 305 311
321 321 322 322 322 323 323 324 323 324 324 324 324 324 324 323 317 312 322 331 332 331 315 311 309 310 306 308 308 302 297 298 301 300 299 301 300 300 299 300 300 302 306 307 309
321 321 322 322 322 323 323 324 324 324 324 324 324 324 323 321 312 309 328 330 332 327 316 314 312 310 305 306 306 304 298 302 302 304 303 301 300 302 299 298 301 300 303 304 303
321 321 321 321 322 322 323 323 324 324 324 324 324 323 323 318 299 315 329 331 332 319 314 311 309 305 302 301 306 299 303 303 304 304 302 300 303 300 301 301 305 304 305 304 304
322 321 321 321 321 322 323 324 324 325 324 323 323 323 318 308 306 323 329 331 321 316 310 308 305 304 300 301 302 299 302 304 304 303 302 303 301 300 301 303 305 305 305 304 303
321 321 320 320 321 322 323 324 324 324 323 323 322 321 314 301 314 324 324 322 315 312 309 309 306 306 302 301 299 301 301 301 301 301 302 300 299 298 301 303 303 303 302 302 302
321 320 320 320 321 322 323 323 323 322 321 322 322 318 309 305 316 321 321 316 314 312 308 310 309 306 304 300 302 301 296 298 299 300 299 300 295 296 301 302 301 302 300 301 302
320 320 320 320 321 322 322 323 321 321 321 320 322 316 304 310 314 314 315 312 314 313 311 309 310 306 303 304 300 296 295 290 298 300 298 297 290 298 301 299 299 300 299 300 302
320 319 320 320 321 321 322 322 318 321 321 321 317 313 303 312 308 309 310 308 310 310 309 308 308 302 301 295 292 293 287 290 294 300 297 294 291 298 300 299 298 300 300 300 301
320 320 320 321 321 321 322 320 320 318 320 319 313 304 304 303 307 308 308 309 307 306 304 303 301 295 295 291 285 289 290 292 292 296 296 293 292 297 299 299 299 300 299 299 299
321 321 321 321 322 323 321 316 312 309 309 309 310 309 312 306 309 306 308 305 305 303 296 299 293 290 294 296 296 293 290 290 293 297 294 294 294 295 298 299 299 299 298 297 298
321 321 322 322 322 322 319 315 308 308 303 313 313 313 312 308 303 303 306 300 299 295 298 294 290 297 298 297 294 293 290 289 293 296 294 292 292 296 297 298 298 297 296 296 296
321 321 321 321 321 320 317 311 313 311 301 307 308 306 305 306 305 303 303 301 297 295 296 292 296 300 297 294 293 292 290 290 289 292 293 290 287 291 296 297 297 297 296 295 294
322 321 321 320 317 321 314 313 313 311 297 300 300 300 301 304 299 303 304 301 298 295 297 295 298 295 292 292 293 288 294 292 290 286 282 289 279 288 294 294 294 294 293 293 293
319 318 319 317 321 317 312 313 312 307 286 300 296 305 302 299 298 298 301 299 295 295 293 292 292 291 291 293 294 291 292 290 289 285 284 285 282 287 293 289 290 292 292 292 293
312 317 318 319 321 315 314 312 310 296 286 295 297 296 295 296 296 298 298 299 297 294 294 293 294 293 293 295 293 293 289 289 288 285 279 286 285 286 288 289 289 292 292 293 292
309 310 315 320 314 319 318 315 297 289 301 295 294 295 295 293 293 294 294 292 291 288 289 293 293 293 294 290 291 289 285 280 279 277 279 288 285 287 294 292 292 291 291 291 291
307 308 311 319 321 321 317 303 288 295 296 300 298 296 295 296 294 293 293 292 297 294 290 287 284 291 292 291 289 288 289 281 274 277 279 286 280 288 293 293 293 292 291 291 290
307 309 308 313 319 318 307 292 291 295 298 297 299 295 294 298 298 295 294 293 295 294 289 286 286 290 291 291 291 290 286 292 285 281 280 282 287 292 292 291 291 290 289 288 288
306 305 306 314 318 313 298 292 295 299 299 299 293 295 290 292 292 293 291 294 293 294 294 292 285 294 293 291 291 290 292 284 285 273 268 279 280 284 289 290 290 288 286 287 287
305 298 306 314 316 302 289 291 294 298 299 296 293 292 292 290 292 289 290 294 297 293 296 294 290 287 290 288 288 286 285 285 286 282 275 275 279 290 289 291 288 287 287 286 286
300 291 307 313 295 296 290 294 296 295 298 296 296 294 292 291 289 289 289 292 298 296 291 294 290 282 286 292 292 290 288 288 283 279 281 282 282 291 288 288 288 287 287 286 286
294 296 307 307 288 289 293 293 295 294 294 294 293 295 294 290 286 289 290 295 296 294 291 293 285 274 277 284 288 287 288 289 288 285 280 278 279 292 288 287 288 287 286 286 286
293 287 295 299 298 292 290 290 290 296 294 295 293 293 290 288 291 287 288 293 294 293 294 294 286 278 275 279 284 280 283 285 282 279 278 279 281 285 288 287 287 285 285 284 283
292 288 293 287 290 291 292 290 288 288 293 293 291 290 288 284 285 285 288 288 292 292 290 288 276 280 282 283 282 281 280 282 280 281 276 279 280 284 287 282 281 281 281 282 283
287 286 289 289 290 290 290 287 287 288 289 287 287 288 288 285 286 279 284 284 283 286 285 287 273 277 270 279 280 278 280 280 280 280 280 280 279 285 282 281 280 282 281 279 280
291 292 289 288 287 286 287 287 287 289 290 289 288 286 284 286 287 286 286 286 285 281 281 279 274 267 265 276 274 267 275 278 279 280 280 276 279 278 277 279 278 279 280 280 281

GFSSW_sfc_thetae_033.txt.gz
Theta_e
322 322 322 323 323 323 324 324 324 324 324 324 324 324 324 324 323 320 312 316 318 332 326 311 309 307 307 305 305 302 291 288 291 292 294 298 296 300 300 297 298 301 300 302 306
321 321 322 322 322 323 324 324 324 324 324 325 324 324 324 323 316 309 322 333 332 332 311 306 304 305 300 302 303 297 291 293 296 294 295 297 295 295 296 297 296 298 301 303 307
321 321 322 322 322 323 323 324 324 324 325 325 324 324 324 321 308 306 327 331 331 329 313 309 307 305 299 300 300 299 293 297 300 301 299 298 298 298 296 294 297 298 300 300 304
322 322 322 322 322 322 323 324 325 325 325 324 324 324 323 315 292 312 327 331 330 317 311 307 304 299 297 296 301 295 300 300 301 301 299 298 299 299 298 300 302 301 302 300 301
321 321 321 321 321 322 323 324 325 325 324 324 323 323 314 303 303 321 328 329 319 313 307 305 301 299 295 296 297 295 296 300 301 300 299 299 297 298 298 302 303 303 302 301 300
321 320 320 320 321 322 323 324 324 324 323 322 322 322 308 297 314 321 321 319 312 308 305 304 302 302 298 297 295 296 297 297 298 299 299 297 296 298 299 300 300 300 299 299 299
320 320 319 320 321 322 323 323 324 323 322 322 322 317 306 302 314 319 319 312 311 309 306 307 305 301 300 296 299 297 293 295 296 297 296 297 293 295 299 298 298 298 297 298 299
320 319 319 320 321 322 323 323 323 321 322 321 323 313 299 307 309 313 311 308 310 310 308 307 306 303 300 300 297 293 290 287 295 296 296 294 288 296 298 295 297 298 297 297 297
319 319 319 320 320 321 322 323 320 321 321 322 313 307 299 311 305 306 305 305 307 306 304 307 304 298 297 292 288 288 284 287 291 296 295 292 289 296 298 297 295 296 296 296 295
319 319 319 320 321 321 322 323 318 318 319 319 315 298 301 300 304 305 304 306 303 302 300 299 297 291 290 288 282 285 285 288 288 293 293 290 290 294 296 296 296 293 294 293 293
320 320 320 321 322 323 320 312 308 305 305 304 303 299 306 303 306 303 305 302 302 298 292 295 289 287 290 291 290 289 287 286 289 294 291 290 290 293 296 295 296 292 292 292 293
320 320 321 321 322 322 316 308 305 306 300 308 310 310 306 305 300 301 303 297 296 292 294 291 287 293 294 294 292 289 287 287 290 293 290 289 289 293 295 292 292 292 291 292 293
320 321 321 321 320 317 310 307 309 305 297 303 304 304 303 305 302 299 300 298 293 291 292 288 292 297 295 292 291 289 287 287 288 289 290 287 285 288 290 292 293 292 292 292 291
321 322 321 320 314 314 308 309 309 305 292 298 299 298 300 301 296 300 301 298 295 292 293 292 296 295 291 290 291 286 291 290 289 284 280 286 278 286 289 288 290 290 289 289 290
321 321 320 319 315 313 310 309 307 303 281 296 295 303 299 296 295 295 298 295 292 292 291 290 290 289 289 290 292 289 290 288 287 283 282 282 279 284 288 286 287 288 289 289 290
318 318 318 317 316 312 310 308 307 292 283 291 294 293 292 293 293 295 295 295 294 291 290 290 292 292 292 293 291 291 287 287 284 283 277 283 282 283 285 287 287 288 289 290 289
315 317 316 320 314 314 314 312 295 287 298 291 290 293 291 290 290 292 291 288 288 285 285 290 290 291 292 288 290 288 283 279 277 275 277 285 283 286 290 289 289 288 287 288 288
310 311 312 317 319 317 315 302 287 293 294 296 293 292 290 292 291 290 289 288 292 289 287 285 284 288 290 290 288 286 286 279 272 275 277 284 281 286 289 290 289 289 288 288 287
311 308 309 312 318 317 306 292 289 293 297 296 296 291 291 295 295 289 288 289 293 292 287 284 284 289 289 289 290 287 284 289 282 281 275 280 284 287 289 288 287 287 286 285 287
305 304 305 313 317 310 298 293 293 298 297 297 291 293 288 291 292 291 290 291 290 292 292 290 282 291 289 291 289 289 291 282 283 271 270 277 279 281 285 286 286 285 285 285 285
303 297 305 312 314 300 289 291 294 298 298 294 291 289 289 288 291 287 288 291 292 291 295 292 288 285 289 287 287 284 283 286 285 282 275 271 277 287 288 287 285 285 285 286 286
299 290 304 311 294 295 291 292 296 293 296 293 293 292 289 289 286 286 287 289 294 293 290 292 287 278 284 289 289 289 286 286 282 278 279 280 280 289 288 287 286 286 286 285 284
294 295 305 307 286 288 292 293 294 292 293 293 291 293 292 288 285 288 289 293 295 293 290 291 283 271 276 281 287 285 287 288 287 284 277 274 277 287 286 286 287 286 286 284 283
293 288 294 299 295 289 289 289 289 295 293 294 293 293 290 288 289 286 287 292 293 292 295 293 285 277 274 277 283 279 282 282 283 276 274 276 279 283 284 283 285 286 284 282 280
292 287 291 286 290 291 291 289 287 288 292 293 290 289 287 284 285 285 287 288 290 293 290 288 276 281 282 281 280 279 279 280 278 279 274 278 278 281 283 279 279 280 282 282 282
286 286 288 286 290 289 290 287 286 289 290 287 287 289 289 285 284 279 283 284 283 284 284 286 273 276 269 279 279 277 278 278 278 278 278 279 278 285 279 280 279 280 279 278 279
289 290 289 287 286 287 286 287 286 288 287 289 289 287 284 284 286 286 286 285 285 282 281 280 274 267 265 276 272 266 273 276 277 279 277 274 278 275 276 279 277 277 278 279 279

GFSSW_sfc_thetae_036.txt.gz
Theta_e
322 322 322 323 323 323 324 324 325 324 324 325 325 325 325 324 322 317 307 315 316 331 324 309 307 305 305 303 303 299 290 287 289 290 291 297 295 298 297 295 296 299 297 299 304
321 321 322 322 322 323 324 324 324 324 325 325 325 325 324 324 313 308 320 331 334 331 309 304 302 303 299 300 301 294 288 290 294 293 294 296 295 296 295 295 295 295 299 301 304
321 321 322 322 322 323 323 324 324 324 325 325 325 325 324 321 304 304 325 328 332 327 310 307 305 303 297 298 298 296 291 295 297 298 297 297 296 296 294 294 296 298 297 299 302
322 321 321 321 322 322 323 324 325 325 325 325 324 324 323 313 293 309 327 330 330 315 309 305 302 298 295 294 299 293 299 298 300 300 298 295 298 297 297 299 300 300 300 298 299
321 321 321 321 321 322 323 324 325 325 325 324 323 323 313 301 303 319 327 327 313 310 305 303 299 298 294 295 295 293 295 298 299 298 297 297 296 295 297 300 300 300 299 298 296
321 320 320 320 321 322 323 324 325 325 323 322 322 322 305 295 315 320 318 315 309 307 303 303 300 301 296 295 294 295 295 296 297 298 297 295 293 295 298 296 299 298 296 295 296
321 320 319 320 321 322 323 324 324 324 322 322 322 316 306 300 314 318 316 311 309 307 304 305 304 300 299 295 298 296 293 294 295 295 294 295 292 293 298 296 296 296 293 295 295
320 319 319 319 320 321 323 324 324 322 322 321 323 312 297 306 308 312 310 306 309 308 306 305 304 301 298 298 296 291 289 287 293 294 294 293 288 295 297 294 295 294 291 293 294
319 318 319 319 320 321 322 323 322 320 321 322 311 305 298 310 303 304 304 304 305 304 303 306 302 296 296 290 287 287 283 285 290 294 293 291 288 294 297 294 293 292 291 292 293
319 319 319 320 320 321 322 322 318 318 318 318 315 299 300 298 302 303 302 305 302 301 299 298 294 290 289 286 282 284 284 286 287 292 291 290 289 293 295 294 292 289 289 291 292
319 319 320 320 321 323 320 312 308 305 306 302 300 297 301 302 304 302 303 301 301 297 291 293 288 286 288 290 288 287 285 285 288 292 289 289 289 293 293 293 290 289 290 291 291
319 320 320 321 322 322 316 308 307 306 300 307 307 306 303 303 298 300 302 296 295 291 293 290 287 292 292 292 290 288 286 286 289 291 289 288 289 289 290 289 289 289 289 290 289
319 319 320 321 320 316 311 308 308 305 298 302 304 305 303 306 302 301 300 296 293 290 290 288 291 294 293 291 290 288 287 286 288 288 288 285 284 286 289 290 290 290 290 289 288
320 320 320 320 314 314 308 309 308 305 292 296 298 298 299 301 295 299 299 297 293 291 291 290 294 293 290 290 290 286 290 289 287 284 280 284 277 284 286 286 287 287 286 287 287
320 320 321 320 312 311 311 308 307 302 282 296 295 301 298 297 295 294 297 295 292 291 291 291 289 289 288 290 290 288 289 287 285 283 280 281 278 282 286 284 285 285 287 287 287
319 319 319 318 316 313 309 309 307 291 283 290 293 292 291 292 292 294 294 294 293 290 289 290 291 291 291 290 290 290 287 286 283 281 276 281 281 281 284 285 285 286 287 287 287
319 319 317 320 312 311 311 311 294 287 296 289 289 291 290 288 289 291 289 288 287 285 285 288 289 290 291 288 288 287 284 279 276 275 276 283 280 283 286 287 287 286 286 286 286
318 317 315 319 315 315 314 302 286 292 292 294 291 291 288 290 289 289 288 286 289 288 286 285 283 288 290 289 287 285 284 277 269 273 276 283 280 284 286 288 288 287 286 286 286
314 309 311 315 318 317 307 292 291 291 296 293 293 288 287 293 290 288 287 287 291 291 287 284 284 287 288 288 290 286 283 287 281 280 278 280 281 286 286 285 285 285 285 284 285
307 306 306 315 318 310 301 294 295 298 298 297 290 294 288 291 290 286 286 290 291 292 291 288 280 289 288 291 288 288 290 281 281 268 272 276 278 279 283 283 284 283 283 284 285
305 300 306 313 313 300 292 293 296 298 298 294 291 291 291 289 291 287 288 290 291 291 292 290 286 284 288 286 286 284 284 284 284 281 271 269 276 285 286 286 284 283 284 283 284
300 295 306 311 295 296 291 294 296 294 295 294 294 292 290 289 288 286 287 288 293 294 289 291 286 278 284 288 288 286 285 285 281 277 278 278 279 288 288 287 286 285 285 284 284
296 295 306 307 290 290 293 294 294 291 292 292 291 293 292 290 286 287 288 292 293 292 290 291 281 271 276 281 285 284 285 285 284 282 274 276 277 286 286 285 285 285 285 284 282
295 287 294 299 295 293 290 290 290 294 293 294 292 292 289 287 288 285 286 290 291 291 295 293 283 278 275 277 281 279 282 283 281 274 275 278 279 282 284 283 284 285 285 282 280
293 289 293 289 291 291 292 290 289 288 292 293 290 290 288 284 285 285 287 287 289 293 288 287 277 280 281 282 281 280 281 280 279 279 275 278 278 281 282 280 281 281 282 281 279
288 287 289 289 293 291 290 287 287 289 289 287 288 289 288 285 285 281 284 284 283 285 284 285 274 277 270 279 280 278 279 278 279 279 278 279 278 284 281 278 278 278 281 281 280
291 291 289 288 288 288 287 288 288 290 288 289 290 287 285 286 287 286 286 286 285 283 282 281 276 271 269 275 273 268 273 276 277 277 276 273 277 275 277 279 278 277 277 278 278

GFSSW_sfc_thetae_039.txt.gz
Theta_e
321 321 322 322 322 323 324 324 325 324 325 325 326 325 325 325 322 314 301 314 317 330 323 307 304 304 303 302 301 296 288 285 287 288 291 295 295 296 295 295 295 297 298 297 302
320 321 322 322 322 323 323 324 324 324 325 325 325 325 324 324 312 306 319 329 332 330 307 302 300 302 298 299 299 293 286 288 291 293 294 295 293 294 295 295 293 294 298 299 303
321 321 321 321 322 322 323 324 324 324 325 325 325 324 324 320 303 302 328 329 331 325 308 305 304 301 296 298 298 294 290 293 295 296 296 295 294 295 292 293 295 296 297 298 299
322 322 321 321 321 322 322 324 324 325 325 324 324 324 323 311 294 306 327 328 328 314 307 303 300 296 294 292 297 294 297 296 298 298 296 294 296 295 295 298 298 298 297 297 295
321 321 321 321 321 321 323 323 324 325 325 323 323 323 310 299 302 317 326 325 311 308 303 301 298 297 293 294 294 293 294 296 298 297 295 296 295 294 296 299 298 297 295 295 294
321 320 320 320 321 321 322 324 325 325 323 322 322 321 302 294 313 319 315 310 308 305 302 301 299 299 295 294 292 293 294 295 296 296 295 294 292 293 296 295 297 295 294 293 293
321 320 320 320 320 322 322 323 324 324 322 322 322 315 304 299 314 317 313 308 307 305 302 303 302 299 298 294 297 295 292 293 293 293 293 294 290 292 296 296 294 293 292 292 293
320 320 319 319 320 321 322 323 324 324 321 320 322 310 298 305 308 312 308 305 308 307 305 304 303 301 297 297 294 289 288 286 291 292 293 292 289 295 296 293 292 290 289 291 292
320 319 319 319 319 320 322 323 322 322 321 322 310 303 298 309 303 304 304 303 303 302 302 305 301 295 295 289 285 286 282 284 289 293 292 289 288 295 295 294 292 288 289 291 290
319 319 318 319 319 320 322 322 319 317 317 317 314 299 301 297 301 302 301 304 301 299 298 297 293 289 288 285 282 283 283 285 285 289 291 288 289 293 293 292 289 288 289 289 289
319 319 319 319 320 322 319 311 307 305 307 302 299 298 299 300 303 300 301 301 300 296 289 292 287 285 288 289 287 286 284 284 287 291 288 288 288 290 289 288 287 288 288 288 288
319 319 319 320 321 322 317 308 307 305 300 307 305 302 302 302 297 299 301 296 294 290 291 289 285 291 291 290 288 287 285 285 288 290 288 287 287 287 288 287 287 287 287 287 287
319 319 319 320 321 318 312 310 308 305 299 302 304 304 302 303 300 300 299 295 292 289 289 288 291 293 292 289 288 286 285 285 287 288 286 284 284 285 287 288 288 288 287 287 286
319 319 319 320 316 314 308 310 308 306 293 295 298 299 299 302 297 299 299 296 292 290 289 289 293 292 290 289 290 285 290 288 286 283 280 283 278 282 284 284 285 285 285 285 286
319 318 319 320 312 308 311 308 307 303 283 296 295 300 298 299 295 293 297 294 291 291 290 290 289 289 288 290 291 288 288 286 285 282 280 280 278 281 284 282 283 284 285 285 285
318 318 319 319 317 313 308 308 306 291 282 290 292 291 292 292 292 293 293 295 293 290 288 289 290 290 291 289 289 289 286 285 282 280 276 280 280 280 282 284 283 285 285 286 285
318 318 318 321 313 311 310 309 293 287 294 288 288 290 289 288 289 290 289 287 286 284 284 286 287 288 290 287 287 287 284 279 276 274 276 281 279 282 285 285 286 285 285 285 284
318 318 317 320 316 311 312 302 286 292 292 292 290 288 287 288 287 288 287 285 288 287 284 284 283 288 289 289 286 284 285 278 269 273 276 282 279 284 285 286 287 286 285 285 284
318 317 317 319 313 313 307 293 291 294 295 290 290 286 286 289 288 287 286 286 289 290 287 284 284 286 287 288 289 285 282 285 279 275 274 278 282 285 285 284 284 284 284 284 284
315 309 310 318 314 311 302 295 296 299 298 294 287 290 284 289 288 285 285 288 290 291 291 288 281 287 287 289 287 287 289 281 279 269 267 275 278 280 281 282 283 283 283 283 284
306 302 307 316 314 305 295 296 298 299 298 294 292 291 289 290 289 284 287 290 291 290 291 289 286 283 287 285 284 284 283 284 283 277 270 268 275 283 284 285 284 284 284 284 284
303 296 307 312 299 298 295 295 297 295 296 295 294 294 291 290 290 288 287 290 292 293 289 290 285 277 283 285 285 285 285 285 280 276 277 277 278 286 286 286 285 284 285 284 283
296 295 305 306 294 291 293 295 296 293 293 293 293 294 292 290 287 287 287 291 291 292 290 291 282 273 277 281 284 282 284 284 282 278 273 274 277 285 286 285 286 285 284 284 283
295 289 294 298 296 294 291 292 291 295 294 294 292 293 290 288 289 285 286 289 291 291 295 293 283 279 279 278 282 280 283 283 280 274 279 279 282 282 284 284 284 284 285 285 282
294 290 292 286 290 293 294 292 291 289 293 294 290 290 288 285 285 285 286 286 288 291 287 288 278 279 280 280 280 279 280 280 279 280 278 280 281 282 284 284 283 283 282 282 280
289 289 290 289 294 291 292 290 290 291 290 289 289 290 290 286 287 284 286 284 284 284 284 284 274 277 274 279 280 278 280 281 282 281 280 281 280 286 282 281 278 279 280 281 280
290 291 291 288 290 290 288 290 290 292 289 290 292 289 287 289 287 285 286 286 285 284 282 280 274 270 268 274 272 269 273 278 279 280 279 275 279 274 276 279 279 279 278 280 280

GFSSW_sfc_thetae_042.txt.gz
Theta_e
320 321 321 322 322 323 323 324 324 324 325 325 326 325 325 324 322 312 299 311 313 329 322 305 303 303 302 301 299 294 287 284 287 288 290 293 294 294 295 293 295 295 300 297 302
321 321 321 322 322 322 323 324 324 324 325 326 326 325 325 324 310 303 318 328 332 329 304 300 299 300 297 299 298 291 285 286 289 293 294 294 293 294 296 293 295 293 297 299 299
322 321 321 322 322 322 323 324 324 325 325 325 324 324 323 319 302 300 325 328 331 323 306 304 302 300 294 298 297 292 288 290 293 294 294 294 293 294 295 292 293 293 297 296 294
322 321 321 321 321 322 322 324 324 325 325 324 323 323 322 309 294 304 326 328 329 310 305 302 300 295 292 292 295 292 295 294 297 297 295 293 295 295 294 295 296 295 294 293 293
321 321 321 321 321 321 322 323 324 325 325 322 322 322 309 297 302 315 326 322 310 306 302 300 297 296 291 292 293 293 293 295 296 296 295 294 294 293 295 294 294 295 294 292 292
320 320 320 320 320 321 322 323 324 325 325 322 322 321 300 294 311 317 312 307 306 304 301 300 298 299 294 292 291 292 293 294 295 294 294 293 291 291 293 293 294 293 291 291 291
320 320 320 320 320 321 322 323 324 324 324 322 321 314 301 300 314 316 310 306 306 303 301 301 301 297 296 293 295 293 291 292 292 292 292 293 290 291 293 292 291 290 290 291 291
320 319 320 319 320 320 321 323 324 323 322 320 321 308 299 304 308 311 306 305 306 305 304 303 302 299 296 296 292 289 288 285 289 291 291 292 288 293 293 292 289 289 288 289 289
320 319 319 319 319 320 321 322 321 321 321 321 308 302 298 309 303 303 303 302 302 301 301 304 300 294 294 288 285 285 282 283 288 291 290 289 288 292 292 291 288 287 287 288 288
319 319 319 319 319 319 321 322 319 317 316 317 312 299 301 297 301 302 301 303 300 298 297 296 292 288 287 285 282 283 282 284 284 288 290 287 289 290 288 288 286 286 286 286 287
320 319 319 319 319 321 320 311 307 304 305 302 300 299 298 300 302 299 301 300 298 294 288 291 286 285 287 288 286 286 284 283 285 289 287 287 287 287 287 287 286 285 285 285 286
320 319 319 319 320 322 318 306 306 304 300 306 305 300 302 301 296 298 301 295 293 289 290 287 284 289 289 289 287 285 283 284 287 289 288 286 286 285 286 286 286 285 285 285 285
320 319 319 319 320 319 313 310 308 305 298 302 304 303 304 301 299 298 299 295 291 289 288 286 290 292 290 287 286 285 284 284 286 286 285 283 283 284 285 286 286 286 286 285 284
320 318 318 319 315 315 311 316 308 306 292 294 298 300 300 302 297 300 299 296 291 289 289 288 291 291 287 287 288 284 289 288 286 283 280 283 278 282 283 283 284 284 283 283 283
319 318 318 320 312 310 313 308 306 303 281 295 295 299 298 300 295 293 296 295 290 290 290 290 289 288 287 289 290 288 288 286 284 281 280 279 278 281 282 281 282 283 284 283 283
318 318 318 318 317 313 308 307 305 291 282 291 292 291 293 292 292 293 293 295 294 290 288 290 290 290 290 288 289 289 286 284 281 280 276 280 280 279 281 283 282 283 284 284 283
318 317 317 319 312 310 309 308 293 287 293 288 287 289 290 287 289 290 289 287 287 284 284 286 287 288 290 287 287 286 285 279 276 274 276 279 277 281 285 285 285 284 284 284 283
318 318 316 319 318 311 311 301 286 292 291 290 289 288 286 287 287 288 287 286 288 287 284 284 283 288 290 288 286 284 285 279 271 272 275 280 278 283 284 285 286 286 285 284 283
317 316 316 318 315 312 303 292 290 292 295 289 288 283 284 287 286 286 285 285 290 288 285 283 285 287 287 288 288 283 282 284 279 273 274 278 281 283 283 282 283 284 283 282 283
314 312 312 319 315 311 299 293 295 299 297 291 288 287 282 285 284 284 284 287 288 290 291 289 282 286 286 288 288 286 288 282 279 269 267 275 277 278 281 282 282 282 282 283 283
310 303 310 320 314 305 293 293 298 301 298 293 292 289 285 287 286 283 284 288 290 288 291 288 286 283 286 284 284 284 283 283 282 277 270 267 274 282 284 283 283 283 284 283 284
305 297 308 316 300 300 296 299 301 298 297 296 295 293 290 290 287 284 285 288 292 292 288 290 285 279 283 285 285 285 285 285 279 276 276 276 278 285 285 285 285 285 285 284 283
300 299 305 305 294 295 296 297 297 294 294 294 293 295 292 290 288 289 288 290 292 292 290 291 284 273 278 282 283 283 284 285 282 278 274 273 276 285 285 284 285 284 284 283 283
296 291 295 298 297 297 294 293 293 296 295 295 294 293 292 289 291 288 286 289 291 291 295 294 285 280 279 280 283 281 283 283 282 274 277 280 282 281 283 284 283 284 284 283 283
296 292 294 288 292 294 297 294 292 289 294 295 291 291 292 287 288 286 286 287 289 291 288 290 284 281 281 280 279 280 282 282 280 283 279 283 281 282 285 285 284 284 283 283 283
290 290 290 290 294 292 293 291 291 291 291 289 288 291 291 287 288 284 286 286 286 286 286 285 279 278 274 279 279 278 280 280 282 280 278 279 280 284 282 282 282 282 281 281 281
291 291 290 291 290 289 288 288 289 293 292 293 292 290 289 290 290 289 289 290 289 286 283 282 277 275 274 274 275 276 276 280 280 280 281 278 283 276 277 280 280 280 279 280 281

GFSSW_sfc_thetae_045.txt.gz
Theta_e
320 321 322 322 322 323 323 324 325 325 325 326 326 325 325 324 322 312 299 311 313 328 321 306 305 304 304 303 301 297 289 286 289 290 293 298 297 299 299 298 299 301 301 300 302
320 321 321 322 322 322 323 324 324 325 326 326 325 325 324 324 309 302 318 327 331 328 305 301 300 301 299 301 300 293 288 289 292 293 295 297 296 298 298 297 298 299 300 298 298
321 321 321 321 321 322 323 324 324 325 326 325 323 323 323 319 301 300 325 328 331 321 306 304 303 301 297 299 298 295 290 292 294 296 297 297 296 298 296 296 298 298 296 296 296
321 321 321 321 321 321 322 323 324 325 325 324 323 323 322 308 293 304 326 328 329 309 305 303 301 297 294 293 298 293 296 295 298 298 297 296 297 296 297 298 297 295 295 294 294
321 321 321 320 320 321 322 323 324 325 325 324 324 323 307 298 301 315 325 323 311 306 302 301 298 297 293 294 295 295 295 296 297 297 295 295 295 295 295 293 295 295 294 293 292
320 320 320 320 320 320 321 322 324 325 325 323 323 321 299 295 311 315 310 306 305 304 301 301 299 299 295 294 294 294 294 295 295 295 295 295 293 294 294 294 293 293 292 291 291
320 320 320 320 320 320 321 322 323 324 324 322 321 314 299 301 313 314 309 305 305 303 301 302 301 299 297 294 296 294 292 293 293 293 293 294 292 292 293 292 291 290 290 290 290
320 319 319 320 320 320 321 322 322 323 323 321 321 306 300 304 310 311 306 305 305 304 303 303 302 300 297 296 292 290 290 288 291 293 293 293 290 291 292 292 289 289 289 289 289
319 319 319 319 319 319 320 321 321 321 321 321 308 300 299 308 303 304 304 304 302 301 302 303 300 295 295 290 287 287 285 285 289 292 292 292 290 290 290 291 288 288 288 288 288
319 319 319 319 319 319 320 321 320 316 316 315 310 299 301 298 300 301 301 303 300 299 298 297 292 289 288 287 284 285 284 285 286 290 291 289 290 288 289 289 287 286 286 287 287
319 319 319 319 319 320 318 311 306 303 304 301 300 299 298 299 301 299 301 300 298 295 291 292 288 287 288 288 288 287 285 286 287 290 289 289 289 287 288 287 286 286 286 286 286
319 320 320 319 320 321 318 307 306 303 299 306 305 301 300 300 295 298 301 296 293 289 290 287 285 290 290 288 287 286 284 284 287 289 289 287 288 286 287 286 287 285 285 285 286
319 319 319 319 319 319 314 311 308 304 297 301 304 302 302 300 297 296 299 295 291 288 288 286 289 290 290 286 286 284 284 284 286 287 286 285 285 284 285 286 286 286 286 286 285
320 319 318 318 315 315 311 316 309 305 291 294 298 301 299 300 296 300 299 297 291 289 289 287 291 291 287 287 288 283 288 287 286 285 282 284 280 284 284 284 285 285 285 285 284
320 319 318 319 311 311 312 314 306 303 280 294 295 299 299 299 295 294 297 296 290 290 290 290 288 288 287 288 290 287 289 287 286 283 282 282 281 283 283 282 283 284 284 284 284
319 319 318 317 315 313 308 307 305 291 282 290 291 291 294 293 292 292 294 295 294 290 288 290 290 291 291 289 290 288 286 284 282 281 277 282 282 281 281 283 284 284 284 285 284
318 318 316 318 310 311 309 309 293 286 292 287 287 290 291 287 288 290 289 287 287 284 283 286 287 289 290 287 288 287 286 280 277 276 278 280 279 283 285 286 286 285 285 285 284
318 317 316 318 317 310 310 301 285 291 290 289 288 288 289 288 287 288 287 286 289 287 283 284 282 287 289 288 286 285 286 281 275 273 276 281 278 284 286 286 286 287 286 285 284
317 316 315 317 316 312 303 291 288 290 294 288 287 283 284 286 286 285 285 285 290 289 287 283 284 287 288 288 288 285 283 286 279 274 276 279 282 285 285 284 284 284 284 284 283
315 312 311 318 317 311 299 291 293 298 293 291 288 288 283 283 283 284 283 287 289 290 291 288 282 286 286 288 288 286 288 282 280 272 271 276 278 280 283 283 282 282 284 284 284
312 305 311 318 314 304 292 292 296 299 297 291 291 288 285 285 285 282 284 286 289 290 292 289 286 284 286 284 285 284 284 283 283 279 273 270 276 283 284 284 283 284 285 285 284
309 298 309 317 299 300 295 296 298 298 300 298 295 295 288 288 285 284 284 286 290 291 289 290 286 279 282 285 285 285 285 284 280 276 276 277 277 285 285 285 285 285 286 285 285
302 301 306 312 295 295 298 298 299 297 298 298 295 295 293 291 287 286 285 289 291 292 291 290 284 276 278 282 283 283 284 285 282 280 275 275 275 285 284 284 285 285 285 285 285
298 293 296 298 299 298 296 295 295 298 297 298 295 295 292 290 292 287 286 289 291 291 296 295 286 284 283 282 284 281 283 283 284 275 278 280 280 283 284 285 284 284 285 284 284
298 294 296 289 293 296 297 295 292 292 295 296 292 294 294 291 290 289 287 287 290 293 289 291 286 282 280 280 280 280 283 282 282 285 281 282 282 283 287 287 286 285 284 283 283
293 291 292 291 295 295 294 293 292 294 293 292 292 294 293 293 293 289 286 287 287 287 287 287 283 282 278 280 279 280 281 282 283 283 283 281 282 286 287 284 283 284 283 283 282
291 292 291 292 290 292 292 293 292 295 293 294 294 293 291 292 292 289 289 291 290 287 285 286 280 282 279 275 277 278 279 280 280 280 284 279 284 280 280 282 283 283 282 281 281

GFSSW_sfc_thetae_048.txt.gz
Theta_e
320 321 322 322 322 323 324 324 325 325 326 326 326 325 325 325 323 318 308 315 318 328 322 313 313 311 313 310 308 305 301 297 298 298 300 304 303 305 306 305 306 306 304 303 306
320 321 321 321 322 322 323 324 324 325 326 325 324 324 324 324 315 309 321 326 331 328 311 309 307 308 308 308 308 304 300 297 300 302 302 303 303 304 304 304 304 303 304 304 306
321 321 321 321 321 321 322 324 324 325 326 325 324 324 324 322 310 307 325 328 330 322 312 311 310 308 304 307 305 302 299 299 300 303 304 303 303 304 303 301 303 302 301 302 303
321 321 320 320 320 321 322 323 324 325 325 326 324 324 322 315 301 310 326 328 329 315 312 310 308 304 302 301 305 300 301 301 303 304 303 302 303 302 302 302 301 301 301 301 301
321 321 320 320 320 320 321 323 324 325 325 325 324 323 313 307 309 320 325 326 317 312 309 307 304 304 300 301 302 301 302 302 304 303 302 301 301 301 299 299 300 300 299 299 299
320 320 320 320 320 320 321 322 323 324 325 325 323 321 309 304 317 320 315 312 311 311 308 308 305 306 302 301 301 301 300 301 302 301 301 300 299 301 297 300 299 299 298 297 297
320 320 320 320 321 321 321 322 323 323 324 323 321 316 308 309 320 319 313 311 311 310 307 308 308 305 305 300 302 300 298 301 300 299 299 300 297 297 298 299 297 296 296 296 296
320 319 319 320 320 320 320 321 321 321 322 322 321 312 307 308 320 315 313 311 311 311 309 310 309 306 304 302 300 298 298 296 298 298 298 299 297 296 297 298 296 295 295 295 295
319 318 319 319 319 319 320 321 320 321 321 321 314 309 306 312 309 314 312 309 308 308 308 307 307 303 302 299 297 296 295 293 295 298 298 298 296 296 296 297 295 295 294 294 294
318 318 319 319 319 319 319 321 322 317 317 317 313 306 306 302 305 307 309 309 306 306 305 304 303 299 297 297 292 295 293 293 294 297 297 296 297 295 295 295 294 294 293 293 293
319 319 319 319 320 320 320 319 312 309 311 307 307 306 303 304 306 304 307 305 304 303 298 299 297 294 298 299 298 296 294 294 294 295 296 297 297 298 294 294 294 293 293 292 292
319 319 320 320 320 320 319 313 311 310 305 310 309 306 304 305 299 302 306 302 300 296 297 295 293 300 297 296 295 294 293 294 294 294 294 296 295 298 293 293 294 293 292 292 292
319 319 319 319 319 319 315 314 313 311 305 306 308 308 306 303 301 300 304 301 297 294 295 295 297 297 294 292 292 293 292 293 293 293 294 293 293 293 290 291 291 292 293 293 293
320 319 319 319 314 316 312 318 318 311 298 299 302 307 302 304 299 303 305 301 296 294 294 294 296 293 292 292 293 291 294 293 291 291 289 291 289 292 290 289 289 290 291 292 291
319 319 319 319 315 311 313 319 318 310 285 299 299 303 302 303 300 297 302 300 295 294 295 294 292 293 292 293 294 294 294 293 292 291 290 289 288 293 289 288 289 290 291 292 292
319 319 318 316 317 316 313 313 310 294 285 294 296 296 297 296 295 296 297 300 299 295 294 296 296 296 296 293 295 293 292 290 290 290 284 290 289 291 288 290 290 291 291 291 290
318 318 316 319 311 311 313 311 293 286 298 292 293 295 297 292 291 293 292 293 294 290 291 294 292 294 294 292 292 292 291 286 284 283 283 285 285 292 292 291 291 290 290 291 290
317 317 316 319 317 311 312 301 284 294 295 293 292 294 294 292 292 291 291 291 296 294 292 290 288 291 294 296 292 290 293 288 281 281 284 284 283 290 291 291 291 293 292 291 289
316 314 315 318 315 313 305 290 290 295 299 293 291 290 291 291 293 291 292 293 295 295 292 289 290 292 292 293 295 289 287 292 283 280 284 287 288 292 289 288 289 290 290 289 289
313 309 310 319 315 309 300 291 294 300 300 297 291 294 290 290 290 291 290 295 293 296 298 293 289 289 290 294 293 291 294 286 287 281 280 282 283 288 286 288 287 287 288 289 289
312 301 311 319 313 303 292 292 297 302 300 295 295 294 293 290 292 290 292 294 296 294 297 293 291 288 289 288 290 288 288 288 290 287 283 281 284 291 291 291 288 289 290 290 289
307 294 314 317 299 300 294 296 299 299 302 300 297 297 293 291 289 290 291 295 296 296 291 296 291 286 287 290 290 293 291 290 287 281 283 282 286 290 291 292 292 291 291 292 291
300 299 309 312 294 295 298 298 299 298 298 298 297 298 298 292 289 291 293 294 295 295 294 294 289 285 285 287 288 287 289 291 290 288 284 284 287 290 289 290 292 291 291 291 291
302 293 299 299 301 298 295 295 295 301 298 299 299 298 292 293 293 294 291 292 294 295 298 297 292 289 287 290 291 286 288 289 289 287 287 286 288 287 289 290 290 291 292 291 290
301 295 299 290 293 293 298 297 294 294 298 299 295 296 296 291 292 291 295 290 292 294 294 294 288 291 293 288 290 289 288 288 287 290 287 290 288 290 292 291 292 293 292 291 290
296 293 292 294 296 295 294 294 294 296 294 294 294 296 296 293 294 291 294 292 292 290 290 291 288 290 287 286 285 284 289 289 289 290 290 290 289 295 294 293 292 291 290 290 290
292 293 294 294 293 292 292 293 294 297 296 298 296 295 293 295 297 291 291 293 292 290 288 288 288 284 283 286 281 280 285 287 289 291 291 286 291 290 288 290 291 292 290 290 290

GFSSW_sfc_thetae_051.txt.gz
Theta_e
320 321 322 322 322 323 324 325 325 325 326 325 326 325 325 325 324 320 313 316 320 329 322 314 314 313 315 311 311 310 301 299 299 300 302 307 304 307 309 307 308 308 307 306 309
320 320 321 321 321 322 323 324 324 325 326 325 326 325 325 324 319 314 320 328 330 329 313 310 308 310 309 309 310 306 301 300 303 304 304 306 305 306 305 305 305 305 307 308 309
321 320 321 321 321 321 322 323 324 325 326 326 326 325 324 322 314 310 325 327 331 322 314 313 312 309 306 308 307 305 301 301 302 305 306 305 304 307 304 303 305 305 305 305 306
321 321 320 320 321 321 322 323 324 325 325 326 326 324 323 318 302 313 327 328 330 317 314 311 309 306 305 303 307 302 303 303 304 305 304 304 306 304 304 303 304 304 304 305 304
321 321 320 320 320 321 321 322 323 324 325 325 325 324 318 311 311 321 325 326 317 314 311 308 306 306 303 303 304 303 304 304 306 305 305 304 303 304 303 303 303 303 303 302 303
321 320 320 320 320 321 321 322 323 324 324 325 324 321 314 306 318 322 316 314 313 312 310 310 307 308 304 303 303 304 303 304 304 304 304 301 303 302 301 303 302 301 301 301 301
321 320 320 320 320 321 321 321 322 321 322 323 322 318 312 311 320 319 314 313 313 311 308 311 310 307 307 303 305 303 300 304 304 304 302 303 299 299 302 302 301 300 301 300 299
320 320 319 320 320 321 320 321 321 321 322 321 322 316 309 311 321 316 316 312 313 313 311 312 312 308 306 306 303 301 301 298 303 301 301 301 298 300 301 300 301 301 300 299 298
318 319 319 319 320 320 320 320 320 321 321 322 317 312 307 313 311 316 315 310 310 311 310 310 310 306 304 301 300 300 296 298 299 302 300 300 300 300 300 300 301 300 299 298 298
317 318 318 319 320 320 319 320 322 321 318 318 315 308 309 305 308 313 313 312 308 308 306 306 305 301 301 300 293 297 297 298 297 300 299 299 299 299 299 300 300 300 299 298 297
318 318 319 319 320 320 319 319 313 311 313 308 309 308 307 305 309 309 311 308 308 306 300 304 299 296 300 301 301 300 298 297 300 300 297 299 299 302 299 299 299 299 298 297 297
319 319 319 320 320 320 319 312 312 312 306 313 312 310 307 307 301 305 310 304 302 299 302 297 294 301 303 301 300 298 296 296 300 298 296 298 298 302 300 299 300 299 297 297 295
319 318 319 319 320 318 315 314 315 313 305 307 311 309 308 305 303 302 306 304 300 299 298 297 299 301 298 297 295 296 295 296 296 296 297 296 295 298 302 299 298 298 298 297 296
320 318 318 319 314 316 312 318 321 314 298 300 304 309 307 306 301 307 307 303 298 297 298 298 302 297 296 295 296 293 299 297 295 293 291 297 289 298 300 294 294 294 295 295 296
319 319 318 319 316 312 314 319 320 315 286 302 303 308 307 304 303 298 305 301 298 297 297 296 294 294 294 295 297 295 298 296 295 293 293 294 289 295 296 291 291 293 294 295 295
318 318 318 316 317 316 317 318 315 293 285 297 300 299 298 302 297 298 298 302 301 298 297 297 299 298 298 297 297 298 295 293 293 293 287 292 291 293 291 292 293 293 294 294 294
317 317 316 319 311 314 317 311 292 285 300 296 295 298 299 296 295 296 294 293 293 289 291 295 296 298 298 294 295 296 293 288 286 284 284 292 292 294 297 295 295 293 293 294 293
316 316 316 318 318 315 313 299 283 294 296 299 297 298 296 298 296 294 293 292 296 297 295 292 290 296 297 298 296 292 294 289 283 285 288 286 285 292 295 296 295 295 294 294 292
315 314 313 317 315 316 305 288 290 295 300 298 296 294 295 295 297 294 294 294 298 297 292 293 294 298 298 300 300 293 290 297 288 283 283 288 291 295 292 291 293 293 293 292 291
312 309 308 319 315 311 300 289 294 301 302 301 294 296 293 294 292 293 294 298 298 300 302 297 292 293 293 295 295 295 297 287 288 282 281 287 289 290 288 289 290 292 291 292 291
310 303 312 318 313 303 293 292 296 303 303 299 297 296 296 296 294 292 296 298 300 299 299 298 294 289 291 289 291 290 289 291 292 290 286 284 287 295 295 293 290 291 292 292 291
307 296 314 316 298 299 294 298 299 299 303 299 299 299 297 297 294 295 294 298 301 299 293 298 294 291 291 295 296 296 292 292 287 285 288 287 289 292 296 296 294 292 292 293 293
301 302 314 311 292 293 297 297 300 298 299 298 297 300 300 296 290 295 298 302 301 298 296 296 290 286 288 290 290 288 291 293 293 291 286 285 288 292 293 294 295 294 294 294 293
301 293 300 303 302 295 294 293 295 300 299 300 299 301 298 295 297 295 296 294 297 298 299 299 291 289 288 292 292 286 289 290 290 286 287 288 291 289 291 292 294 295 295 294 293
300 296 300 291 293 295 295 294 293 293 299 299 296 297 296 292 293 292 296 292 293 295 294 296 287 290 292 294 293 291 289 289 287 290 287 291 291 295 293 293 294 295 295 294 292
293 294 297 298 298 295 294 292 290 291 296 295 294 297 297 294 295 292 294 294 293 292 291 293 287 290 287 292 292 289 291 291 290 290 291 292 293 300 296 296 295 294 294 293 292
295 294 292 295 294 293 293 292 291 294 297 299 298 296 295 297 300 298 295 296 296 294 289 288 287 285 284 289 289 279 285 290 292 292 293 288 294 292 293 293 294 294 294 293 293

GFSSW_sfc_thetae_054.txt.gz
Theta_e
320 321 322 322 322 323 324 325 325 326 327 327 327 326 326 325 324 322 314 317 322 327 322 313 313 312 312 310 311 307 296 293 294 296 298 302 299 301 302 300 302 303 300 302 304
320 321 321 322 322 322 323 324 325 325 326 327 327 327 326 324 318 315 319 327 330 329 314 310 308 309 305 307 307 301 297 296 299 299 298 302 300 301 298 300 299 300 303 305 305
321 321 321 321 321 322 322 323 324 325 326 326 327 326 325 321 314 311 326 329 330 323 314 312 311 308 304 305 304 301 296 298 299 303 303 302 299 301 298 297 298 299 300 302 303
321 321 321 321 321 321 322 323 324 325 325 326 326 325 323 318 302 315 327 328 329 316 313 311 308 305 303 301 305 297 301 300 303 303 302 300 302 298 299 297 302 300 301 301 301
322 321 321 321 321 321 321 322 323 324 324 325 325 324 318 310 311 319 325 325 318 314 311 309 304 305 301 301 302 299 301 302 303 302 301 303 299 299 298 299 301 301 301 299 299
321 321 320 320 321 321 321 321 322 323 321 323 324 322 315 304 319 319 316 315 314 311 309 308 306 306 302 301 299 301 302 301 302 302 302 299 299 298 298 300 299 300 298 297 298
320 320 320 320 321 321 321 321 322 321 322 323 323 317 312 309 320 317 314 313 313 311 309 310 309 305 305 301 303 301 297 300 300 301 299 300 296 295 298 299 298 298 296 297 297
319 319 319 320 320 321 321 321 322 321 322 323 323 316 307 314 319 317 315 312 312 312 311 311 310 308 305 304 301 297 296 292 299 300 298 297 292 298 298 297 296 297 295 297 296
318 319 319 319 319 320 320 320 320 322 321 322 317 313 306 315 311 316 314 310 310 310 309 310 310 303 302 295 293 296 290 293 294 299 297 295 293 296 298 297 296 296 296 296 295
318 317 318 319 319 320 320 320 321 321 320 318 316 306 308 305 310 314 313 312 308 307 305 304 301 297 296 294 288 291 291 294 293 295 296 293 293 295 296 296 295 296 295 294 294
318 318 318 319 319 320 318 316 312 309 312 307 307 306 307 306 311 309 311 308 307 304 297 300 294 292 295 297 298 296 294 292 295 296 294 294 294 296 296 295 295 295 294 294 294
319 318 318 319 320 320 317 311 311 311 303 311 310 310 309 307 301 306 309 302 301 296 299 295 291 298 300 299 297 295 293 292 296 296 293 293 293 297 296 295 296 295 294 293 292
319 318 318 319 320 318 314 313 316 313 303 304 311 309 308 305 302 301 305 302 298 296 297 294 297 300 298 295 294 294 292 292 292 293 293 290 289 293 297 296 297 297 296 294 292
320 319 318 319 314 315 311 317 319 316 295 297 304 308 306 305 300 306 306 303 298 295 297 295 300 296 295 294 295 290 296 295 293 289 284 291 283 292 295 293 293 294 292 291 292
318 319 319 319 315 311 314 318 319 314 282 301 302 309 306 302 301 299 303 300 296 295 297 293 293 293 293 294 296 292 295 292 291 288 287 287 285 289 294 290 292 293 292 291 292
316 317 319 317 317 316 317 317 313 293 282 296 299 298 298 301 298 298 298 300 300 296 296 295 296 295 295 295 296 296 292 290 289 288 281 288 288 288 292 292 293 293 292 292 291
312 315 316 319 311 317 318 311 291 283 299 294 294 298 297 296 295 295 293 291 291 288 288 292 293 295 296 291 294 294 289 283 280 279 280 287 286 291 292 291 293 292 291 291 291
312 314 314 318 317 317 312 299 283 291 294 299 298 297 294 297 295 293 291 290 294 293 291 287 286 293 295 294 291 289 290 283 276 279 281 282 281 288 290 291 293 294 293 292 290
312 313 312 316 316 316 304 288 289 294 298 297 296 293 293 296 295 292 291 291 294 294 289 290 290 295 295 296 297 289 286 294 285 277 277 284 287 291 290 289 290 291 291 290 289
308 309 308 317 316 311 299 290 292 300 301 299 292 295 291 293 292 291 291 295 294 296 298 295 288 292 290 293 293 291 294 284 285 277 276 282 284 286 285 287 289 290 290 291 289
306 301 310 317 314 302 292 292 295 301 302 297 296 295 294 294 292 290 292 296 298 296 297 295 292 285 289 287 288 287 286 288 289 285 280 277 284 292 293 291 288 291 291 291 289
304 294 312 315 296 297 293 296 299 299 301 300 300 299 296 296 294 293 291 296 300 299 292 296 293 283 285 291 292 292 290 290 286 282 285 284 286 290 291 293 291 291 291 292 290
298 298 310 309 290 292 296 296 299 298 297 298 297 298 299 296 292 296 295 299 300 297 294 296 289 283 285 286 289 287 290 292 292 287 285 281 285 289 290 291 291 291 291 291 290
297 291 299 302 301 294 293 293 293 300 299 299 298 300 297 295 297 293 294 295 297 297 299 299 290 287 286 288 288 283 286 289 289 285 284 286 289 286 287 288 290 290 291 291 290
296 293 298 290 293 295 296 293 291 292 298 300 296 297 295 292 293 293 295 293 293 296 295 296 287 290 290 292 290 286 285 288 286 288 285 288 289 293 290 289 291 293 291 290 290
291 292 296 295 296 294 293 292 291 292 294 294 294 296 297 293 294 291 294 294 292 292 291 294 287 289 287 289 290 288 289 287 288 289 290 290 290 295 297 293 291 292 292 290 290
297 295 292 290 292 291 291 292 292 294 295 296 296 296 294 296 300 300 298 298 297 293 289 289 286 285 283 286 287 284 288 290 291 290 290 286 291 294 291 290 290 291 292 291 291

GFSSW_sfc_thetae_057.txt.gz
Theta_e
321 321 322 322 322 323 324 325 325 326 326 327 327 328 326 326 324 320 310 316 319 326 322 309 307 305 305 303 303 299 290 287 290 291 294 297 296 298 299 299 299 300 298 300 303
321 321 321 322 322 322 323 324 324 325 326 326 327 327 326 325 317 311 320 328 329 326 310 305 302 303 299 301 301 295 290 291 293 294 294 298 297 298 296 296 296 297 300 302 303
320 321 321 321 322 322 322 323 324 324 325 326 326 326 325 321 310 308 326 328 329 322 312 307 306 303 298 299 297 296 291 294 296 299 299 298 297 298 296 293 295 297 298 300 299
321 321 321 321 321 322 322 322 324 324 324 324 325 325 322 315 296 312 326 327 328 313 309 306 303 298 297 296 300 292 297 297 301 300 299 297 299 296 296 296 299 298 299 298 298
321 321 320 320 320 321 322 322 323 323 322 322 325 323 314 304 306 316 324 323 315 310 306 304 300 299 296 296 298 295 297 299 301 300 298 300 297 296 295 296 298 299 299 297 297
320 320 320 320 320 321 321 322 322 323 322 323 324 322 310 298 315 316 315 313 311 307 304 303 301 301 298 296 295 297 298 298 299 300 299 297 296 297 295 296 297 298 296 295 296
319 319 319 320 320 320 321 321 321 322 322 323 324 317 306 305 314 312 311 308 309 307 305 306 304 300 300 297 299 298 293 296 297 298 297 297 294 294 296 296 296 295 294 295 295
318 317 319 319 320 320 320 321 321 321 322 323 323 312 301 311 313 312 310 307 308 307 308 307 306 304 300 300 297 293 292 289 296 297 296 296 290 296 295 295 294 294 292 294 295
318 318 318 319 319 319 320 321 320 321 323 323 313 308 301 313 310 313 310 306 306 306 305 308 304 299 297 292 290 291 286 289 293 297 295 293 290 293 295 294 293 292 292 293 293
318 317 318 318 318 319 320 320 320 319 320 318 315 299 304 302 308 311 309 308 305 303 302 301 298 293 292 289 284 287 287 290 290 294 293 291 291 293 294 293 293 292 292 292 292
319 318 318 318 318 320 317 313 308 305 308 300 302 301 303 304 308 307 308 305 304 300 293 296 290 288 291 292 293 291 289 288 291 294 292 291 291 293 294 292 291 291 292 292 292
319 319 318 318 319 320 314 307 307 307 299 309 308 307 304 305 299 304 307 299 298 293 295 292 289 295 297 296 294 292 290 289 292 294 292 291 291 293 293 294 294 294 293 292 290
320 319 318 318 319 318 311 310 313 309 298 303 308 306 303 303 300 300 303 299 295 293 293 291 295 299 296 294 292 291 290 289 290 291 290 288 288 290 294 295 294 295 295 293 291
320 319 319 318 314 315 311 315 316 314 290 294 300 305 302 302 297 305 305 300 296 293 294 293 297 295 293 292 293 289 293 293 292 288 283 288 283 288 291 292 292 294 293 291 290
316 318 319 319 314 311 313 317 315 310 282 297 299 307 303 301 299 298 302 298 294 294 295 292 292 292 292 293 295 290 292 291 290 286 284 284 282 286 292 292 291 293 290 290 290
313 315 318 317 317 316 316 317 312 293 281 294 298 297 296 299 296 297 297 299 298 294 293 292 294 294 294 293 295 294 292 290 287 286 280 285 285 286 289 293 294 294 290 289 290
312 313 314 319 311 318 317 311 290 283 296 292 292 296 294 294 292 293 292 291 290 287 287 290 290 293 294 291 293 293 289 282 279 278 280 285 284 290 292 292 294 293 291 289 290
311 311 313 316 318 318 313 296 282 289 292 296 295 295 291 294 292 291 289 287 291 290 287 286 283 291 293 292 290 289 288 281 275 277 279 283 280 287 292 291 292 293 292 290 289
310 310 311 313 317 316 304 286 287 292 295 295 295 291 290 293 292 290 287 287 291 292 288 286 286 292 292 294 295 287 286 292 286 274 275 283 286 291 289 289 289 290 290 288 288
303 305 306 314 317 311 299 290 290 297 300 298 291 293 288 290 291 288 287 291 292 294 294 293 286 289 289 293 291 290 292 284 283 273 274 280 282 286 286 289 288 287 288 288 288
301 297 306 315 314 302 292 292 296 299 300 297 294 292 291 291 291 288 289 292 295 293 296 293 292 284 287 287 288 287 286 287 288 283 277 275 284 289 292 292 289 288 290 289 288
297 290 308 314 297 295 291 294 298 297 300 300 299 297 293 294 292 289 289 293 297 296 291 295 292 280 284 289 289 289 289 288 285 281 281 281 286 289 289 291 291 290 290 290 289
294 293 307 308 288 290 293 295 297 297 297 297 296 298 298 295 292 294 293 296 298 295 292 295 289 280 282 285 287 286 289 292 291 284 283 283 285 288 289 288 288 288 289 290 289
295 286 293 300 298 292 290 291 292 299 298 299 298 299 296 294 296 294 292 296 295 297 298 298 290 287 285 286 287 283 286 288 289 284 284 287 290 290 286 288 288 288 288 289 288
294 287 293 288 290 293 293 292 291 291 298 298 296 296 295 292 293 293 296 293 294 295 296 296 287 290 290 290 289 284 284 288 286 289 286 289 289 293 294 289 290 290 288 288 288
289 288 289 290 293 291 293 291 291 293 294 294 293 296 296 293 294 290 294 295 293 293 291 294 287 288 287 288 288 287 290 286 287 289 290 290 289 294 295 295 290 290 289 289 289
292 294 292 288 287 290 290 291 292 294 294 296 296 295 294 296 299 298 297 298 297 294 291 289 286 285 284 286 287 283 288 289 292 291 289 286 291 291 292 293 290 290 291 290 290

GFSSW_sfc_thetae_060.txt.gz
Theta_e
321 322 322 322 322 322 323 324 324 325 326 326 327 327 327 326 324 317 307 313 317 325 321 307 305 303 303 301 301 296 289 286 287 290 292 295 294 297 297 297 296 298 297 298 303
321 321 322 322 322 322 322 323 323 324 325 326 326 326 326 325 315 309 321 326 326 325 307 302 300 301 298 299 299 294 288 289 292 292 293 295 295 297 295 294 294 295 298 301 302
321 321 321 321 321 322 322 322 323 323 324 324 324 325 325 320 307 305 326 327 326 321 310 306 304 301 296 297 296 293 290 292 294 296 297 297 295 297 294 292 295 296 298 299 299
321 321 320 320 321 321 322 322 322 323 323 323 324 325 323 313 294 310 325 325 326 313 307 304 301 297 295 294 298 290 295 295 298 298 297 296 297 295 295 295 298 298 298 297 297
321 320 320 320 320 321 322 322 322 322 323 323 324 323 312 300 304 314 323 321 313 308 303 301 298 298 294 294 296 292 295 297 298 298 297 298 296 295 295 295 296 298 298 297 296
318 320 320 320 320 320 321 322 322 322 322 323 324 322 308 294 313 314 313 311 309 305 302 302 299 300 297 295 293 296 296 296 298 298 298 296 295 295 294 295 295 296 295 295 296
318 318 319 319 319 320 320 321 321 322 322 323 324 316 304 300 312 310 309 306 306 305 302 304 303 299 299 295 298 296 292 294 296 297 296 296 293 294 294 294 294 294 293 294 295
318 318 317 319 319 320 320 321 321 321 322 323 324 311 298 309 310 308 308 305 306 306 306 305 305 302 299 299 296 291 291 288 293 295 295 295 289 295 294 294 293 293 291 293 294
318 318 317 318 319 319 319 320 320 321 322 323 311 305 297 313 310 312 307 304 305 304 304 307 303 297 296 291 289 289 285 287 291 295 293 292 290 293 293 293 292 291 291 292 292
319 318 318 318 318 318 319 320 320 319 319 318 313 298 301 301 306 310 307 306 303 301 300 299 296 292 290 289 284 285 285 287 288 292 291 289 290 292 293 292 292 291 290 291 292
319 319 318 318 318 319 316 310 305 303 306 297 299 295 301 303 307 305 307 304 302 298 292 294 290 288 292 291 291 289 287 287 290 294 291 290 291 293 292 290 290 290 291 291 292
320 319 319 318 319 319 313 305 305 305 297 306 306 305 303 304 299 303 305 299 297 292 294 291 288 294 295 293 291 290 287 288 290 293 291 290 289 291 292 292 293 293 292 293 290
320 319 319 319 318 317 309 309 313 308 296 300 305 304 304 302 299 299 302 298 294 292 292 290 293 296 295 292 290 289 288 287 289 290 289 287 287 289 292 293 293 295 296 295 293
317 319 319 318 313 315 310 315 314 311 289 293 299 303 300 302 297 303 304 299 294 292 293 292 296 294 292 291 292 287 292 291 290 287 283 287 282 287 290 291 291 295 294 294 291
314 315 319 318 314 311 314 316 315 310 284 296 298 306 301 298 296 297 301 297 292 293 293 290 292 292 290 292 294 290 292 290 288 285 282 282 281 285 289 289 292 295 293 292 291
313 313 314 316 316 315 316 316 312 292 283 292 298 296 296 297 294 295 297 298 296 293 293 291 293 294 294 293 294 293 290 289 286 284 279 285 284 285 287 291 292 296 293 291 290
311 311 311 317 311 317 318 310 290 283 295 290 292 294 294 294 292 293 291 291 290 287 286 289 290 291 293 290 291 291 288 280 279 277 279 284 282 289 290 293 293 295 292 289 290
310 310 310 312 318 317 313 295 282 290 291 295 294 293 291 293 291 290 288 287 290 289 286 285 282 290 292 292 289 288 287 281 274 276 279 282 280 286 291 293 294 292 291 289 288
309 305 307 311 314 316 305 287 288 289 294 294 296 291 288 292 291 288 286 286 290 290 287 284 284 289 290 292 294 287 285 290 285 272 275 282 285 291 290 291 290 292 288 286 288
299 300 303 312 314 311 299 291 290 296 298 297 292 294 288 290 289 288 286 290 291 293 293 290 283 287 288 292 291 289 291 283 282 273 273 280 281 286 288 289 291 289 287 286 287
299 294 302 313 312 300 291 289 296 298 299 296 294 292 290 291 292 287 288 291 293 292 295 293 289 284 287 286 287 286 285 286 286 281 276 274 283 289 291 291 290 291 288 287 287
295 287 304 312 295 294 290 293 297 298 300 298 298 297 291 292 292 289 288 292 295 295 290 293 291 280 284 287 288 288 288 287 283 279 282 280 286 289 291 292 292 292 289 288 288
291 291 303 307 287 289 291 293 296 296 297 297 296 297 297 295 291 293 290 295 296 295 292 294 289 281 282 286 287 286 289 292 288 283 284 279 285 287 288 290 289 290 287 288 287
290 284 291 299 296 290 289 290 291 297 296 299 297 299 295 294 297 295 294 296 296 296 298 298 289 286 285 285 287 284 285 288 290 284 284 285 290 290 287 289 289 288 287 287 287
291 286 291 285 289 292 292 291 289 290 296 297 295 296 294 291 293 293 296 294 294 296 296 296 288 289 290 287 286 284 287 288 287 289 286 289 289 294 294 291 293 290 288 286 286
287 285 287 287 291 288 292 289 289 290 293 292 292 294 296 293 293 289 294 294 294 292 293 295 288 289 287 289 288 286 288 285 288 290 290 291 290 294 294 293 291 291 289 287 288
294 293 290 286 285 287 287 288 289 292 294 295 295 294 292 295 298 299 296 296 297 295 291 290 288 285 285 288 287 283 288 290 290 289 289 286 292 296 290 292 293 293 290 289 289

GFSSW_sfc_thetae_063.txt.gz
Theta_e
321 321 322 322 322 322 323 323 323 324 325 326 326 326 326 326 323 315 305 312 315 327 321 306 303 302 302 299 299 293 287 285 287 289 291 294 293 295 295 296 294 296 297 298 308
320 321 321 321 321 322 322 322 322 323 324 325 325 326 325 324 313 307 320 326 326 324 305 301 298 300 297 297 297 292 286 289 291 291 292 294 293 296 294 293 292 294 297 299 306
320 320 320 320 321 321 322 322 322 323 323 324 325 325 324 320 305 303 326 327 326 319 307 304 302 299 296 296 295 290 288 291 293 295 295 295 293 294 293 291 294 295 297 298 301
320 320 319 320 320 321 321 322 322 322 323 323 324 324 323 311 291 307 325 326 326 311 306 302 299 295 293 292 296 291 293 292 296 296 296 294 295 293 293 295 296 297 298 297 299
320 320 319 319 319 320 321 322 322 322 322 323 324 324 311 297 301 311 323 320 309 306 302 299 297 296 293 294 294 291 293 295 296 296 294 296 295 294 294 294 295 297 297 297 297
318 319 319 319 319 320 320 321 321 321 321 322 324 322 306 292 311 311 310 308 306 303 300 300 298 298 295 293 292 294 294 294 296 296 295 295 293 294 294 294 294 296 296 295 296
318 317 317 319 319 319 320 320 321 321 321 322 324 316 303 298 311 309 307 304 304 303 301 302 301 298 296 294 296 295 291 293 294 295 295 295 292 293 294 294 294 294 294 294 295
318 317 317 318 319 319 319 320 320 321 321 322 324 309 296 308 309 307 306 304 304 305 304 303 303 300 297 297 295 290 290 287 291 294 294 294 289 294 294 293 293 292 291 293 294
318 318 317 317 318 318 319 319 320 320 321 322 309 303 295 312 308 310 305 303 303 303 303 306 301 295 295 290 288 288 284 286 290 294 292 291 289 292 292 292 292 291 291 292 292
319 318 318 318 318 318 318 320 319 318 318 317 312 296 299 299 305 309 305 305 301 299 299 298 294 291 289 288 282 284 284 286 286 290 290 288 289 292 291 291 292 290 290 290 292
320 319 319 318 318 318 315 309 301 300 304 295 297 293 299 302 306 304 305 302 301 297 291 292 289 287 290 290 289 288 286 286 289 292 290 289 290 293 292 290 290 290 291 291 292
320 320 319 319 319 319 312 303 301 302 295 304 304 304 304 303 299 302 304 298 295 291 292 290 287 293 293 292 290 288 286 286 289 291 290 289 289 291 291 291 293 293 293 292 293
319 320 319 319 318 317 310 308 312 307 294 298 303 302 303 301 298 300 301 297 293 290 291 288 292 294 293 290 289 288 286 285 287 289 288 286 286 288 291 293 292 294 296 295 294
316 317 319 319 313 315 310 315 314 308 290 293 297 302 300 301 296 303 302 298 292 291 291 290 294 293 290 289 291 286 290 290 288 286 282 286 282 286 289 290 291 294 294 295 294
313 314 316 318 313 310 313 316 314 310 284 296 296 304 299 297 296 296 300 296 292 292 292 289 291 291 289 290 292 289 291 289 287 284 282 281 281 285 287 288 291 294 295 295 293
311 312 313 316 316 313 316 317 312 292 284 291 297 295 294 295 293 295 296 297 295 292 291 289 292 293 293 292 293 292 289 287 285 283 278 285 284 284 286 291 291 295 295 293 291
310 310 309 312 311 317 317 309 291 282 296 290 291 293 293 291 290 292 291 291 289 286 286 288 289 291 292 289 290 290 288 280 278 276 279 282 281 288 290 291 293 294 295 291 289
309 309 307 310 315 317 313 298 282 290 291 296 293 292 290 292 289 289 288 288 291 288 284 284 281 289 291 293 289 288 287 281 273 275 278 282 280 286 290 292 292 292 292 289 287
307 301 304 307 312 312 305 287 288 289 294 293 295 290 287 291 290 287 286 285 289 290 286 284 284 288 289 290 294 286 284 289 283 271 274 281 284 289 290 290 291 291 288 286 287
298 296 298 309 310 307 298 290 291 296 297 297 291 293 288 290 289 285 285 289 289 292 291 289 282 287 288 291 290 288 290 283 281 273 270 279 280 284 288 289 291 291 289 288 287
298 291 298 309 309 298 288 291 294 298 298 295 293 291 290 290 292 288 289 290 291 291 294 290 287 283 286 286 286 286 285 284 285 281 276 273 283 288 290 292 292 291 292 289 287
296 286 299 309 292 292 288 291 297 297 300 297 297 295 291 292 291 290 288 294 294 293 288 291 288 279 283 286 287 287 286 287 282 279 281 280 285 289 290 290 291 292 291 287 287
290 290 297 305 285 286 288 291 294 295 296 296 295 297 296 293 290 291 291 294 296 294 292 293 288 281 283 285 286 285 287 291 288 283 284 279 284 287 288 290 290 289 289 288 286
288 283 287 295 295 288 287 287 288 295 295 298 297 298 296 294 295 292 291 295 296 294 297 298 289 284 284 285 287 283 285 287 289 284 284 285 289 291 288 289 290 290 289 287 286
288 286 287 280 285 291 291 288 287 287 294 296 294 295 294 291 292 293 296 296 294 296 296 295 286 288 289 289 286 285 286 287 287 288 286 289 289 293 294 289 291 293 290 287 286
285 285 287 286 288 285 290 289 288 289 291 291 291 292 294 292 294 290 295 295 294 293 293 295 285 287 286 290 288 286 286 286 288 290 290 291 290 296 294 293 291 293 292 288 287
292 290 290 285 284 284 284 285 289 292 292 293 293 292 291 294 297 298 298 297 297 294 291 291 288 286 285 287 287 283 287 289 287 290 290 286 292 296 294 291 294 295 291 290 289

GFSSW_sfc_thetae_066.txt.gz
Theta_e
320 321 321 321 322 322 322 322 323 323 324 325 325 325 325 325 323 314 304 311 313 326 322 304 301 300 300 298 297 291 287 284 286 287 290 292 292 292 293 295 293 295 297 299 310
320 320 321 321 321 322 321 321 322 322 323 324 325 325 325 324 312 305 319 327 327 324 302 299 297 298 296 295 295 290 285 287 290 289 291 292 292 294 294 292 292 293 296 301 307
320 320 320 320 320 321 321 322 322 322 322 323 324 325 324 319 303 302 325 327 327 317 305 302 300 298 294 297 296 289 287 290 292 293 294 293 292 294 293 290 294 295 296 301 304
320 319 319 319 319 320 321 321 322 322 322 322 324 324 323 309 290 305 324 325 326 309 304 300 298 295 292 293 294 291 291 291 294 295 294 292 294 292 292 294 294 296 297 298 303
320 319 319 319 319 319 320 321 321 321 321 322 324 324 312 296 299 309 322 319 307 304 300 298 296 295 292 294 292 291 291 293 294 294 293 295 293 293 293 295 294 295 297 297 299
319 318 319 319 319 319 320 320 321 321 321 322 324 322 304 291 309 309 307 306 304 301 298 299 297 297 294 292 291 292 293 293 294 294 294 293 292 295 295 293 293 295 295 296 297
318 318 317 318 319 319 319 320 320 321 321 322 323 315 300 297 309 307 306 303 303 302 299 300 299 297 295 292 294 293 291 292 292 293 293 295 291 292 295 292 294 294 294 294 295
319 317 317 317 318 319 319 319 320 320 321 322 323 306 294 306 308 305 305 302 303 303 302 302 301 299 296 295 294 289 289 286 290 293 292 293 288 293 292 293 293 292 292 293 294
319 318 318 318 317 318 318 319 319 320 321 322 307 302 293 311 305 307 303 302 302 301 302 304 300 294 294 290 287 287 283 284 289 293 290 290 288 291 290 291 292 291 291 292 292
320 319 318 318 318 318 318 319 319 317 316 315 310 293 297 297 304 307 303 303 299 298 298 297 293 290 288 287 281 283 283 284 285 289 288 288 289 292 291 291 291 291 291 291 292
320 320 319 319 318 318 315 306 298 296 302 293 293 291 298 301 305 302 303 301 299 296 291 292 289 287 290 289 287 286 284 284 286 291 288 288 289 292 292 289 290 290 291 292 292
320 320 320 319 319 319 312 301 298 301 295 302 301 302 304 302 298 301 302 297 294 290 291 288 286 292 292 290 288 286 285 284 287 289 289 288 288 291 292 291 292 294 293 293 293
317 320 320 320 318 316 308 307 312 306 294 297 302 301 300 301 297 299 301 296 292 289 289 288 290 293 292 289 288 286 285 284 286 287 287 285 285 287 290 291 292 293 295 295 295
314 315 319 319 313 314 310 314 313 305 291 294 296 301 299 300 295 302 301 298 292 291 289 289 292 291 288 288 290 285 289 288 286 285 281 284 280 285 288 290 290 293 293 294 295
313 313 314 318 312 310 313 315 314 310 283 296 296 303 298 294 294 295 299 295 291 291 291 288 290 289 288 289 291 287 290 288 286 283 281 281 280 284 285 287 291 294 295 294 294
310 311 311 315 315 313 315 315 311 293 284 290 295 294 293 294 293 295 296 296 294 291 289 288 292 292 292 291 292 291 288 286 284 282 278 283 283 282 285 289 290 295 294 293 291
309 309 308 310 310 316 316 309 291 283 295 289 290 292 291 290 290 292 291 290 289 285 285 286 288 290 291 289 289 288 287 280 277 276 278 281 280 287 289 291 292 294 295 290 290
309 308 306 307 312 310 312 299 283 289 289 294 292 291 289 290 288 288 288 288 291 286 283 283 282 288 291 292 288 287 286 279 272 274 277 282 279 285 290 291 291 291 291 289 289
306 299 300 305 309 309 299 288 286 288 293 293 295 291 288 290 289 286 286 286 289 289 286 282 282 288 288 289 293 285 284 288 282 271 274 280 283 288 290 290 291 291 288 288 290
299 295 296 305 309 303 292 286 290 296 297 296 291 292 287 288 288 284 284 288 288 291 290 287 282 285 287 290 289 287 289 282 280 273 269 278 280 283 288 290 291 291 290 290 288
295 288 296 304 305 294 285 288 293 297 298 295 293 290 290 289 289 286 287 289 290 289 294 289 286 283 286 285 285 285 284 283 284 280 275 272 282 287 289 290 291 290 291 290 289
292 283 296 307 290 289 285 289 295 296 300 297 298 296 292 291 291 289 288 292 294 293 289 290 288 280 283 285 286 285 286 286 281 278 280 280 285 289 289 290 290 290 291 289 288
285 287 295 302 284 285 286 289 292 293 294 296 295 297 296 293 290 291 290 294 295 293 291 292 286 280 282 283 284 284 286 289 286 283 281 278 285 287 288 289 290 289 290 289 287
288 280 286 291 291 287 285 285 287 292 293 296 295 297 295 293 295 292 290 292 295 294 297 298 289 285 283 284 286 283 285 287 289 283 283 284 288 290 288 289 290 290 289 288 287
290 283 285 281 282 284 290 288 285 285 292 293 291 293 292 289 291 290 294 291 292 295 296 296 286 288 288 288 288 286 285 287 287 288 285 288 288 292 294 291 293 292 291 289 288
286 283 287 282 286 283 284 285 287 287 288 288 289 290 292 290 291 288 292 293 294 292 294 294 286 288 286 289 289 287 290 289 287 288 289 290 289 297 295 294 290 292 293 291 289
293 292 288 284 282 280 282 283 283 286 291 292 291 290 289 292 296 296 297 297 297 294 291 290 287 285 284 286 287 282 286 288 290 291 290 286 291 296 295 292 293 294 292 292 292

GFSSW_sfc_thetae_069.txt.gz
Theta_e
320 321 321 321 321 321 322 322 322 323 323 324 325 325 325 325 323 314 304 310 313 326 321 304 302 301 302 301 300 296 291 288 290 290 293 294 295 296 298 298 299 300 301 304 313
320 320 320 320 321 321 321 321 321 322 323 323 324 325 324 324 311 305 319 327 327 324 303 300 299 300 297 298 297 292 289 290 292 292 293 295 295 296 297 297 298 298 300 305 311
319 319 319 319 320 321 321 321 321 321 322 323 324 325 324 318 302 301 325 327 326 317 305 303 301 300 297 297 295 292 289 291 293 294 296 295 294 296 295 294 297 299 299 303 309
319 319 319 319 319 320 321 321 321 321 321 322 323 325 323 307 289 305 324 325 325 308 304 301 300 296 294 293 296 291 292 292 296 297 295 294 295 294 294 298 299 298 300 304 309
320 319 319 318 319 320 320 321 321 321 321 322 323 324 310 295 298 309 321 318 306 303 300 299 297 296 293 294 294 292 293 294 295 295 294 296 295 295 295 297 298 297 298 302 309
319 318 318 319 319 319 320 320 321 321 321 322 324 322 302 291 307 309 306 305 303 301 299 299 298 298 295 293 292 294 294 294 295 295 295 295 293 295 296 296 297 297 297 300 304
318 318 317 318 318 319 319 320 320 320 320 321 323 313 297 295 308 307 305 302 303 302 300 301 300 298 296 294 295 294 291 293 293 294 295 295 293 294 295 295 296 296 296 297 299
319 318 317 317 318 318 319 319 319 320 320 321 322 304 293 304 308 305 304 302 303 303 303 302 302 299 297 296 294 291 290 287 291 293 294 294 289 294 294 295 296 295 295 295 297
319 318 317 318 317 317 318 319 319 320 321 322 305 299 292 310 305 306 302 301 301 301 301 303 300 295 295 290 288 288 284 285 289 293 292 292 290 293 293 293 293 294 294 294 295
320 319 318 318 318 318 318 319 319 317 315 312 309 292 296 296 304 305 302 303 299 298 298 297 293 290 288 288 282 284 284 285 286 290 290 289 290 293 293 292 293 294 294 293 295
320 320 319 319 319 318 314 304 296 294 301 293 292 290 297 301 304 302 302 300 298 296 291 292 289 287 290 289 286 286 285 284 287 291 290 289 289 293 293 291 292 293 293 295 295
320 320 320 319 319 319 313 301 296 299 294 300 299 300 302 302 298 300 302 297 294 290 290 288 286 291 291 290 289 286 285 285 288 289 290 289 289 292 293 292 294 296 297 296 297
317 319 320 320 319 316 310 307 311 305 294 297 300 299 298 301 297 298 300 295 291 288 289 287 289 292 291 288 287 286 285 285 287 288 288 286 285 288 291 293 295 295 297 298 297
313 314 317 319 313 313 310 314 313 305 292 295 295 300 299 299 294 301 300 297 291 290 288 288 291 290 288 287 289 284 289 288 287 286 282 286 280 286 289 291 291 294 295 296 297
310 311 312 318 312 310 312 314 314 309 281 295 295 302 297 293 294 295 298 296 290 290 290 288 289 289 287 289 290 287 289 288 286 284 282 282 282 285 287 288 292 295 297 297 294
310 310 309 314 315 313 315 315 311 293 283 290 294 294 292 293 292 294 295 296 294 291 290 287 290 291 291 290 291 290 288 286 284 283 279 282 283 282 285 289 291 293 296 294 293
309 309 307 308 307 310 316 309 291 284 294 288 289 291 290 289 290 291 291 289 288 284 284 286 288 290 291 288 289 288 286 279 277 276 278 281 280 284 289 289 292 294 295 292 293
308 307 304 306 309 308 307 299 283 289 290 293 291 289 288 290 288 288 288 287 290 285 282 283 281 288 291 290 288 287 286 279 272 274 277 281 279 285 290 292 292 291 291 291 293
305 298 298 303 307 306 299 286 287 288 293 293 294 289 285 288 287 286 285 285 289 288 285 282 282 287 288 289 292 285 283 286 282 270 275 281 283 288 289 290 291 292 290 291 292
296 294 295 302 307 301 291 286 290 295 296 295 290 293 289 287 288 285 284 287 288 291 289 286 281 285 286 289 288 287 289 282 280 273 270 279 280 284 288 290 292 291 292 292 292
294 287 295 302 303 293 284 286 292 297 298 295 293 292 289 289 290 285 286 288 289 289 293 288 285 282 285 284 284 285 284 283 284 280 275 274 284 286 289 290 291 292 292 292 292
290 281 295 304 289 287 284 287 295 294 299 297 297 295 293 291 290 288 286 290 293 292 288 290 286 280 282 285 286 284 284 285 281 278 279 279 285 288 289 289 290 291 291 290 291
286 285 294 301 282 281 285 287 291 291 294 295 294 295 296 293 289 291 289 294 294 292 290 292 286 277 282 283 283 284 285 288 285 282 279 278 284 288 288 289 290 291 291 291 290
289 280 285 289 289 285 282 283 285 290 291 294 293 296 294 292 294 291 292 294 295 294 297 297 288 284 282 284 285 282 284 287 288 283 283 284 288 289 287 288 290 291 291 291 290
289 283 284 280 281 283 286 285 283 284 290 291 288 290 290 288 289 290 293 294 295 295 295 295 287 287 288 286 285 284 284 286 286 287 284 288 287 292 292 292 295 298 292 291 290
287 285 288 282 284 281 282 282 284 287 286 286 287 288 289 288 289 284 290 292 292 293 292 294 287 288 287 290 287 286 288 286 287 288 288 289 288 296 297 292 292 295 295 292 291
292 292 288 284 281 281 281 282 282 284 286 290 288 288 287 289 292 294 294 294 294 293 291 289 285 285 284 285 286 283 287 289 290 288 288 285 291 296 294 294 296 297 295 293 293

GFSSW_sfc_thetae_072.txt.gz
Theta_e
321 321 321 321 321 322 322 322 322 322 323 324 325 325 325 325 324 320 311 314 318 327 322 311 310 310 310 308 306 304 302 299 300 298 301 302 302 302 304 305 307 310 307 311 324
320 320 321 320 321 321 322 322 322 322 322 323 324 325 325 324 316 311 320 327 327 326 310 309 307 308 307 305 306 305 302 301 302 303 302 302 303 304 303 304 305 306 308 309 321
320 320 319 319 319 320 321 321 322 322 322 322 323 325 325 322 310 308 325 327 325 320 312 310 309 307 304 305 303 301 300 299 300 301 302 302 301 304 303 302 306 307 309 308 320
320 319 319 319 319 319 321 321 321 321 322 322 323 325 323 315 296 311 324 325 324 314 311 308 308 305 303 301 303 299 299 300 301 303 302 301 302 302 303 307 306 309 309 309 315
320 319 318 318 319 319 320 320 321 321 321 322 324 324 315 304 304 315 321 320 313 310 308 307 305 305 301 302 301 300 300 300 302 301 302 301 302 302 302 307 306 305 304 308 312
320 319 318 318 318 319 319 320 320 321 321 321 323 322 309 298 313 314 311 310 310 309 307 308 306 306 303 301 300 301 301 301 302 302 302 300 301 301 305 306 304 304 306 307 310
319 318 318 318 317 318 319 319 320 320 320 321 323 316 305 302 315 314 310 309 309 308 307 308 308 306 304 301 302 301 299 301 301 301 301 302 300 299 306 303 304 304 306 306 307
319 318 317 317 317 317 318 319 319 319 320 321 323 312 301 310 316 310 310 309 310 310 309 309 309 306 304 303 301 299 299 296 299 299 300 301 297 303 302 303 304 306 307 306 306
319 318 318 318 318 318 318 319 319 319 320 322 313 307 299 315 310 312 310 307 308 308 308 307 308 303 303 300 298 298 294 294 296 300 299 299 298 303 302 301 303 305 306 306 306
320 319 318 318 318 318 318 319 319 319 317 314 311 300 302 301 310 309 309 308 306 306 306 305 304 301 300 298 290 293 293 293 294 297 297 298 297 302 303 301 303 305 306 306 305
320 320 319 319 319 319 317 310 304 301 308 299 298 297 300 306 310 308 307 306 306 304 299 300 298 295 298 299 296 294 294 293 296 296 296 297 297 300 303 303 302 304 305 306 306
319 320 321 319 320 319 317 305 302 306 299 304 302 302 305 307 302 305 307 303 302 298 298 297 294 299 297 297 296 294 294 293 296 295 295 296 296 300 301 302 303 304 305 306 307
314 316 320 320 319 317 314 312 314 310 301 302 303 301 301 305 301 303 304 301 299 295 296 294 296 298 296 294 293 294 293 293 293 294 295 294 293 297 300 300 302 303 304 305 306
312 312 314 319 314 315 312 318 316 310 299 299 299 303 302 304 298 305 306 303 297 295 296 296 298 295 294 293 294 291 295 294 293 292 289 293 287 294 298 298 300 302 304 305 306
310 309 310 318 315 312 313 317 317 312 284 299 298 305 301 298 299 299 303 301 296 295 296 293 293 293 292 294 296 293 295 294 293 292 290 292 288 293 294 295 298 302 305 306 307
310 310 309 312 313 310 316 315 313 294 283 294 298 297 295 296 296 299 300 302 300 296 295 294 296 296 296 294 296 295 294 292 292 291 286 291 289 291 294 296 299 301 303 302 303
310 309 307 307 306 310 312 310 289 284 297 292 293 295 294 293 293 295 295 294 293 289 289 292 293 295 296 293 294 294 292 285 284 284 284 289 288 292 297 297 300 302 304 301 302
309 307 306 306 310 307 307 299 284 290 293 296 295 293 292 293 293 293 293 291 295 292 290 288 286 293 296 295 293 292 293 288 283 282 286 286 284 292 298 300 301 301 302 300 300
305 304 303 305 309 309 300 286 288 292 296 294 294 292 291 292 292 292 292 293 295 294 288 287 287 292 293 296 296 291 288 294 288 281 284 288 293 297 297 298 299 299 300 301 302
302 299 298 304 310 305 294 287 290 296 298 297 292 295 290 291 291 291 290 295 294 296 298 292 287 290 291 295 294 293 295 287 287 283 281 286 287 290 295 296 299 299 299 301 302
299 292 298 304 308 298 287 289 293 299 300 295 293 293 294 291 293 290 291 293 294 294 297 295 291 288 291 290 291 290 289 289 290 288 285 283 288 298 298 298 298 300 300 300 301
295 286 299 307 291 292 288 290 295 296 300 298 297 294 292 294 291 291 293 296 296 295 291 295 292 288 289 292 292 293 292 292 286 284 286 285 288 295 298 297 297 298 299 299 299
290 290 298 302 284 285 289 289 293 294 295 296 295 296 297 292 289 291 293 297 296 295 292 294 289 285 287 289 290 289 290 292 292 290 287 286 288 294 295 297 298 299 300 299 298
291 284 290 292 291 287 285 286 287 294 293 296 295 297 295 293 293 290 291 296 297 295 297 297 290 288 287 290 292 287 290 291 290 286 287 288 291 297 295 297 298 300 301 301 300
291 286 288 282 284 287 288 287 285 285 292 293 290 291 291 288 289 290 293 295 297 298 296 292 285 288 291 293 290 289 290 290 289 290 287 291 292 295 298 298 300 302 302 300 300
288 287 288 286 286 285 286 284 285 287 288 288 288 290 291 288 289 287 291 292 292 295 294 293 285 286 285 290 290 288 291 290 291 291 292 292 292 299 301 300 298 300 301 301 302
294 293 289 286 285 283 282 283 283 287 288 289 290 289 288 290 292 292 294 294 294 292 291 289 287 285 282 288 288 284 289 292 292 293 292 289 294 299 298 298 299 300 301 301 301

GFSSW_sfc_thetae_075.txt.gz
Theta_e
321 321 321 321 321 321 322 322 322 322 323 324 324 325 325 325 323 322 312 315 318 327 320 313 313 313 313 311 311 309 303 300 301 302 303 307 305 307 309 308 309 312 311 316 323
320 320 320 320 320 321 321 321 322 322 322 323 324 325 325 325 318 312 319 327 328 325 312 310 308 310 308 309 309 307 302 302 306 306 304 306 306 307 305 306 306 308 312 314 325
319 320 319 319 319 320 320 321 321 321 322 322 323 325 325 323 311 310 323 327 327 319 313 311 311 309 305 307 307 306 302 305 304 304 305 305 304 307 305 304 307 307 310 311 321
319 319 319 318 319 319 320 320 321 321 322 322 323 324 323 319 297 312 324 325 324 316 313 310 308 305 303 302 305 300 303 303 304 304 304 303 306 304 305 307 310 311 312 312 317
320 319 318 318 318 319 319 320 320 321 321 322 323 324 318 306 305 315 322 320 314 313 310 308 306 306 302 303 303 301 302 302 303 303 304 304 303 304 305 309 310 309 309 311 313
320 319 318 318 318 319 319 319 320 320 320 321 323 322 311 299 315 316 313 312 312 311 309 309 307 308 304 303 302 304 303 303 304 304 303 301 303 303 305 309 309 308 308 309 311
319 318 318 318 318 318 319 319 319 320 320 321 322 318 306 304 317 316 312 311 312 311 308 310 311 307 307 303 305 303 300 303 303 303 302 304 300 300 306 307 306 307 308 309 310
319 318 318 318 318 318 318 319 319 319 319 321 323 315 303 312 318 312 312 311 312 312 312 311 312 309 307 307 304 300 301 296 302 302 303 303 296 305 306 307 306 307 308 309 310
319 318 318 317 318 318 318 319 319 319 320 321 314 310 301 316 310 314 313 309 311 311 311 310 311 306 305 301 298 300 294 296 298 302 302 301 299 304 306 304 304 307 308 309 309
319 318 318 318 318 318 318 319 319 319 317 316 312 303 305 302 311 312 312 311 308 309 307 306 305 300 301 298 291 294 295 296 296 299 299 299 299 303 305 305 305 306 307 308 309
320 320 319 319 319 319 318 314 307 304 308 301 301 300 301 309 313 310 310 308 308 306 299 303 297 295 298 299 299 297 296 295 298 299 297 297 298 301 304 304 304 305 306 307 308
318 318 320 320 320 319 320 309 306 310 299 304 302 302 306 309 303 308 309 304 303 298 302 299 295 300 301 301 299 297 295 294 298 300 296 297 297 301 303 303 304 305 306 307 308
314 315 318 320 319 317 317 316 316 312 301 303 304 300 302 307 301 304 307 305 301 298 299 296 298 301 299 297 295 296 294 295 295 298 298 296 295 298 302 304 305 305 307 307 307
310 311 312 319 314 317 313 319 318 314 297 298 301 304 303 304 298 308 308 304 300 296 298 297 301 297 297 295 296 292 298 296 295 293 289 296 288 296 299 300 303 304 305 306 308
310 310 309 313 314 311 313 318 319 312 283 300 299 307 304 298 300 301 307 303 297 297 297 294 295 295 294 295 298 294 298 296 295 293 293 293 289 293 299 297 299 303 306 308 310
310 310 309 312 313 309 311 316 313 294 283 296 300 298 295 297 298 301 301 304 302 298 297 296 298 298 297 296 298 298 296 295 295 293 286 291 291 292 296 298 300 303 305 306 306
309 309 307 308 307 309 311 310 291 284 299 294 295 297 296 294 295 297 295 295 293 289 290 294 294 297 298 294 296 296 293 286 285 285 285 293 291 293 298 301 302 302 305 306 305
307 307 307 306 310 308 308 299 283 290 293 298 297 297 293 295 295 295 294 292 296 295 292 289 287 294 297 296 293 293 293 288 284 284 287 288 286 292 301 302 303 304 305 306 305
306 305 303 307 309 308 299 285 287 292 297 295 296 293 293 294 295 294 293 293 296 296 290 289 289 296 296 298 298 292 289 296 289 287 285 288 293 298 300 299 301 302 304 304 306
302 300 299 306 311 305 294 286 289 296 298 298 291 295 292 293 292 292 293 297 296 298 299 295 289 293 293 296 297 294 297 288 289 283 281 286 289 291 297 298 302 301 302 304 305
301 293 300 306 309 299 288 290 293 299 299 295 294 293 295 293 294 292 294 296 298 297 299 296 293 289 292 291 291 291 290 291 291 289 285 283 288 298 299 300 300 302 303 303 304
298 287 304 308 291 293 288 291 295 296 300 298 298 294 291 291 292 293 292 295 298 297 293 296 293 289 290 296 297 294 292 292 287 285 288 287 288 300 301 300 301 302 302 303 302
292 292 301 302 284 287 290 290 293 294 296 296 295 297 297 291 287 286 292 297 298 295 293 295 288 284 288 292 293 290 293 293 293 291 288 285 288 298 299 300 301 301 303 303 302
292 285 291 294 294 289 286 286 287 294 295 297 295 297 295 292 294 290 291 295 298 297 297 294 287 287 286 287 291 289 291 293 292 287 287 288 291 296 299 300 301 302 303 304 304
291 287 291 284 286 288 288 286 285 286 292 294 292 293 293 289 291 291 293 294 298 297 296 292 285 287 288 289 289 287 290 291 289 291 287 290 292 296 299 300 302 304 304 304 304
287 287 291 288 289 287 286 285 285 286 288 287 288 290 291 288 289 288 291 292 292 297 295 294 286 288 284 289 289 286 289 289 290 293 292 293 293 300 301 303 302 303 303 302 303
294 294 291 287 286 285 286 286 285 289 290 291 290 289 287 290 293 294 294 294 294 292 291 288 285 285 282 288 287 283 287 290 291 294 293 289 295 299 299 300 302 302 303 303 303

GFSSW_sfc_thetae_078.txt.gz
Theta_e
321 321 321 321 321 321 322 322 322 322 323 323 324 325 326 326 324 322 313 316 320 326 320 312 311 311 311 311 310 307 298 294 297 298 298 302 300 301 302 302 301 306 304 310 317
320 320 320 320 320 321 321 321 321 321 322 322 323 324 325 325 319 312 319 325 326 325 312 308 306 308 304 307 307 301 297 298 300 300 299 301 300 301 298 299 300 303 306 312 320
320 320 319 319 319 320 320 321 321 321 322 322 323 324 324 322 313 310 325 324 327 321 313 310 308 307 302 304 303 302 298 301 300 302 302 301 298 302 298 297 301 301 304 310 317
319 319 319 318 318 319 320 320 321 321 321 322 323 324 323 319 299 313 323 324 325 315 312 308 306 302 300 299 303 296 301 300 303 302 301 299 302 299 300 300 303 303 306 309 315
320 319 318 318 318 319 319 320 320 321 321 321 323 323 318 307 306 314 321 320 314 313 309 306 303 302 299 300 301 297 298 299 301 301 299 302 298 299 299 302 304 304 305 306 312
319 319 318 318 318 319 319 320 320 320 320 321 323 322 313 299 315 315 312 312 312 310 307 307 304 305 301 299 298 301 300 299 300 300 300 298 297 298 299 303 303 303 302 303 306
320 319 318 318 318 318 318 319 320 320 320 320 322 318 307 304 316 314 312 311 311 310 307 309 308 304 303 300 303 301 296 298 299 300 298 299 296 296 300 301 302 301 301 303 304
319 318 318 318 318 318 318 319 319 319 319 321 322 315 302 314 315 312 311 310 311 311 311 311 309 308 304 303 300 296 294 289 297 299 299 297 289 298 299 299 299 300 300 301 303
319 318 318 318 317 318 318 319 319 319 320 321 315 310 301 315 310 313 311 308 309 310 309 309 310 304 302 295 292 294 287 290 294 299 298 296 292 298 300 297 298 298 300 301 302
320 318 318 318 318 318 318 319 320 318 318 316 311 303 304 302 311 312 311 310 307 307 305 305 302 296 296 292 285 288 288 291 290 295 294 293 293 298 300 299 298 299 299 300 301
320 320 319 319 319 319 318 315 307 305 307 300 301 300 302 309 314 309 310 307 307 303 295 299 292 290 293 294 295 293 291 290 291 296 293 293 293 295 297 297 296 297 298 299 300
317 318 319 320 320 320 317 310 306 309 300 303 303 302 306 309 303 307 309 301 301 295 298 295 291 296 298 297 295 293 290 289 293 295 292 292 292 295 296 297 298 298 298 299 300
313 314 316 320 319 317 316 316 316 312 300 301 302 300 302 306 300 303 305 301 298 295 295 293 295 299 296 294 294 291 290 289 290 292 292 289 288 292 297 299 299 299 301 301 301
310 311 313 318 314 316 313 318 320 315 294 296 299 302 303 304 297 308 306 302 297 294 295 295 299 295 293 293 294 289 293 293 291 288 283 291 280 289 293 293 296 298 298 298 300
311 310 310 312 313 311 310 317 319 312 281 298 299 306 303 297 298 301 305 301 295 294 294 291 292 292 292 293 295 291 294 292 290 287 286 286 283 287 291 290 293 296 297 299 300
309 309 309 312 313 309 311 316 313 292 282 295 298 296 295 296 298 300 299 302 299 295 294 292 295 294 294 294 294 296 292 291 289 287 280 286 285 284 288 291 292 296 297 299 298
307 308 307 308 306 309 312 309 291 283 298 293 294 296 294 292 294 296 294 292 290 286 287 291 291 294 295 291 294 292 288 280 279 278 279 285 283 286 291 293 293 295 297 297 298
306 306 307 305 310 309 309 298 282 288 292 299 298 296 292 293 292 293 292 289 293 290 287 285 283 291 294 293 290 290 288 281 274 277 279 283 280 287 293 294 297 297 297 298 298
305 304 304 307 310 309 300 284 286 290 297 295 296 292 291 293 292 291 290 289 293 293 287 285 286 293 294 294 294 289 286 291 284 277 277 282 287 292 294 294 295 295 296 295 297
300 299 299 308 309 305 293 286 289 295 298 298 290 294 290 291 290 290 290 293 293 295 295 291 284 291 291 293 292 290 293 284 283 274 272 279 281 285 290 293 295 294 295 297 299
300 292 300 308 308 298 287 288 292 297 298 293 292 292 293 293 292 290 292 294 295 295 296 292 289 285 289 287 288 287 286 288 287 284 277 276 281 291 293 294 295 296 297 296 297
295 286 302 306 291 292 287 292 295 295 299 296 295 291 287 288 288 291 291 293 297 296 291 294 291 283 286 290 291 291 289 289 282 280 282 281 284 296 295 295 296 296 297 295 295
291 291 301 302 282 285 290 290 292 292 295 295 294 296 295 290 286 287 290 296 298 295 293 294 288 279 283 287 289 287 289 291 290 285 281 279 283 293 294 294 295 295 296 298 295
292 283 291 294 292 288 285 286 287 293 294 295 294 297 294 291 293 289 290 294 297 296 296 295 286 285 283 285 290 285 288 290 289 282 284 284 288 292 292 292 294 295 297 297 297
291 286 290 282 284 286 287 286 284 285 292 293 292 292 292 289 290 289 292 293 296 297 295 290 284 286 287 289 287 286 287 288 287 287 285 287 288 292 293 294 296 297 298 298 297
286 286 290 286 288 285 286 284 284 286 289 287 288 291 292 289 290 287 291 292 291 294 292 292 284 286 283 288 288 285 287 288 288 288 288 288 288 296 298 298 296 297 298 298 298
292 293 290 286 284 283 283 284 285 287 289 290 290 289 288 290 293 293 293 292 293 292 291 288 285 284 279 285 284 279 283 287 288 290 290 286 291 296 296 296 296 297 298 299 300

GFSSW_sfc_thetae_081.txt.gz
Theta_e
322 321 321 321 321 321 322 322 322 322 322 323 323 324 325 325 325 320 311 315 318 326 321 307 307 306 305 304 304 300 292 289 292 293 294 297 297 299 300 300 299 303 305 308 316
321 321 320 320 321 321 321 321 322 321 322 322 323 323 324 324 317 310 320 326 325 325 308 304 302 303 298 301 301 295 290 292 295 293 294 298 297 298 296 297 297 300 305 314 318
320 320 320 319 319 320 321 321 321 321 321 322 323 323 323 321 310 308 326 327 325 320 310 307 304 303 298 299 298 296 293 296 295 298 298 297 295 299 296 293 297 300 303 314 315
320 319 319 318 319 319 320 320 321 321 321 321 322 323 322 316 293 310 324 325 325 312 309 305 302 297 294 294 298 292 297 296 299 300 298 296 298 295 297 298 301 301 304 312 314
320 319 318 318 318 318 319 320 320 320 321 321 323 323 314 303 303 312 321 319 311 309 305 303 299 298 294 295 296 293 294 296 299 298 297 299 295 295 296 299 299 302 305 311 314
319 319 318 318 318 318 318 319 320 320 320 320 322 322 308 294 312 311 310 309 309 307 304 303 300 301 297 296 294 296 297 296 297 297 297 295 294 295 297 299 298 301 302 304 311
319 318 318 318 317 317 317 318 319 320 320 320 322 318 303 299 312 310 310 308 308 306 304 305 304 300 299 295 299 298 293 294 295 297 295 296 291 294 297 298 298 298 298 300 304
319 318 318 318 318 317 317 318 319 319 320 320 322 311 298 310 310 309 308 306 307 307 307 306 305 304 300 299 297 292 291 286 293 296 297 293 286 294 296 296 296 296 295 298 300
319 318 318 317 317 318 318 318 319 320 320 320 310 305 297 314 307 309 306 305 306 306 305 308 305 299 298 292 288 289 283 286 291 296 296 293 288 296 297 295 295 295 296 297 298
319 318 318 318 318 318 318 319 319 317 317 316 310 295 299 300 308 309 306 307 304 303 301 301 298 292 291 287 282 285 285 287 286 293 293 291 291 295 297 295 295 295 296 297 298
320 319 319 318 318 319 316 312 302 299 302 295 296 295 301 307 310 306 306 304 303 299 291 296 290 286 290 291 290 288 287 285 288 294 292 290 290 293 295 293 292 293 294 295 297
315 317 319 320 320 320 315 307 303 304 295 303 300 299 304 306 300 304 305 298 297 291 293 291 287 292 294 293 291 289 287 286 289 293 290 289 290 292 293 295 297 295 293 294 294
312 313 315 320 320 317 311 313 314 309 296 299 300 298 299 304 298 300 302 298 293 291 291 289 293 297 293 292 291 289 287 286 287 289 289 287 285 289 293 294 295 295 296 296 297
311 311 311 317 314 315 312 314 316 311 289 293 297 298 301 300 294 304 303 298 293 291 291 290 296 293 291 291 291 287 291 290 288 285 281 287 278 285 290 293 292 295 295 296 296
309 309 310 312 313 311 311 314 316 307 280 295 297 304 301 294 296 298 301 297 292 292 291 289 291 290 290 291 292 289 292 289 288 285 282 283 280 284 287 287 291 293 293 293 296
307 308 310 311 313 309 311 316 311 290 280 293 296 294 293 295 296 297 297 299 296 291 291 289 292 292 291 292 292 294 291 290 287 284 278 283 283 279 285 288 289 292 292 295 297
306 307 306 308 305 310 311 309 289 283 296 291 291 293 291 290 292 293 292 291 287 284 284 288 289 291 293 289 292 290 285 277 277 276 277 282 280 283 289 291 292 292 292 295 295
305 306 305 305 308 308 308 297 283 289 291 298 295 292 289 290 290 291 289 288 291 286 285 283 281 289 292 290 288 287 285 278 272 275 277 281 279 285 291 293 293 294 292 295 295
305 298 299 303 309 307 299 284 285 290 296 295 295 289 288 289 289 289 287 286 290 291 285 283 283 290 291 292 292 287 284 288 281 273 275 280 284 289 291 292 294 293 293 293 295
294 293 294 305 306 303 293 287 289 294 297 297 290 293 286 287 288 287 287 290 290 293 291 288 283 289 289 291 290 288 290 282 281 271 270 277 279 283 288 291 293 293 293 295 295
293 286 295 306 303 295 286 288 290 297 298 292 290 288 289 288 289 288 289 293 294 292 294 289 286 284 288 287 286 286 285 286 285 281 275 273 279 287 289 293 293 293 294 294 295
294 281 297 303 288 287 284 290 294 295 298 294 293 290 287 287 286 289 289 291 296 295 288 292 288 280 284 288 289 289 288 287 281 279 281 280 283 293 294 294 295 295 296 294 295
290 285 295 299 279 280 287 289 291 291 295 294 292 293 293 289 285 287 287 296 297 294 290 292 285 275 280 286 287 286 287 289 287 283 279 276 282 291 292 293 294 294 296 296 296
288 281 289 289 286 282 282 284 286 292 292 294 293 295 293 289 291 288 289 294 296 295 296 294 287 284 281 283 288 284 286 289 287 279 282 282 286 288 290 290 291 293 295 297 296
290 281 284 279 282 285 284 283 283 284 290 292 291 292 291 288 289 287 291 293 295 296 294 290 284 285 286 287 287 286 286 287 285 287 283 285 285 289 292 294 296 297 297 295 296
286 279 284 283 283 282 284 282 282 285 287 287 288 291 292 289 290 288 291 291 290 294 292 291 283 286 283 287 286 284 287 288 287 287 286 286 286 293 294 295 294 295 296 296 296
286 291 288 282 281 282 279 281 282 285 286 289 288 288 287 289 292 292 292 292 292 292 290 288 285 283 278 284 284 278 283 287 288 289 289 284 289 293 292 293 294 294 293 293 294

GFSSW_sfc_thetae_084.txt.gz
Theta_e
322 322 322 322 322 322 321 321 321 322 322 322 323 324 324 324 324 318 308 314 315 323 320 305 304 303 303 302 302 298 291 288 290 290 293 295 294 296 298 299 298 301 304 307 317
322 321 321 321 321 321 321 321 321 321 321 321 322 323 324 323 314 308 320 327 326 324 306 302 300 302 298 300 299 294 290 291 293 292 293 295 295 297 295 295 296 299 306 311 318
321 321 320 320 320 320 320 320 321 321 321 322 322 323 323 320 307 307 324 326 325 319 308 305 302 301 296 297 296 294 291 294 294 295 296 297 294 296 295 292 297 299 306 312 316
320 320 319 319 319 319 319 320 320 320 321 321 322 323 323 315 290 309 323 323 325 310 307 303 299 296 294 293 297 293 295 295 297 297 296 295 296 294 295 296 299 300 309 313 316
320 320 319 318 318 318 319 319 320 320 320 321 322 323 313 300 301 311 320 318 309 307 303 300 297 296 293 293 295 293 293 295 297 296 295 297 294 294 295 298 297 299 308 312 315
319 318 318 318 318 318 318 319 319 320 320 320 322 322 305 292 310 310 308 308 308 305 302 301 298 299 295 293 293 295 295 294 295 295 295 293 291 293 295 296 297 300 302 310 313
319 318 318 318 317 317 317 318 319 319 319 320 321 317 301 296 310 308 308 305 306 305 302 303 303 298 297 295 297 296 291 292 293 295 294 294 290 293 294 296 296 296 298 301 309
319 318 317 317 317 317 317 318 319 319 320 320 321 310 294 310 309 307 306 305 306 305 306 304 304 302 299 298 296 291 289 284 289 294 294 291 286 291 294 293 294 294 293 296 300
318 317 317 317 317 317 317 318 319 320 320 320 308 303 294 313 306 308 305 304 305 304 304 307 303 297 296 290 287 288 281 285 288 294 294 291 287 293 294 293 294 293 294 294 296
319 318 317 317 317 318 318 319 319 316 316 315 308 296 299 299 307 307 305 306 302 302 300 300 295 291 289 286 280 283 283 285 284 291 291 289 290 293 295 292 294 294 294 294 295
319 319 318 318 318 319 316 309 298 296 302 294 294 293 300 306 309 304 305 303 302 297 290 294 289 287 290 289 287 286 286 285 286 292 291 290 290 292 293 292 292 291 292 293 295
315 316 318 320 319 319 314 304 302 302 293 301 300 297 303 304 298 302 304 297 295 290 292 290 286 292 293 291 289 286 284 284 288 291 289 288 288 291 292 293 295 294 292 292 293
312 313 314 319 319 315 311 310 316 308 293 297 299 297 299 302 297 299 301 296 292 289 290 287 290 294 292 289 288 286 285 285 287 287 287 286 284 287 290 291 293 294 294 294 293
310 310 312 316 314 315 308 315 315 308 288 291 295 297 300 299 293 302 301 297 292 290 289 289 293 292 289 288 290 285 290 289 288 284 280 285 278 283 288 290 290 293 292 292 293
308 309 310 314 313 311 311 312 314 303 276 294 295 303 299 293 295 297 300 296 291 291 290 288 289 289 288 289 291 288 291 288 287 284 282 281 280 283 285 287 290 291 291 292 293
306 307 309 311 312 309 311 314 308 288 273 291 295 293 292 293 294 296 296 297 295 291 289 288 291 290 291 290 291 292 289 287 285 282 277 281 281 279 283 287 288 291 291 294 296
306 306 305 307 307 310 312 308 289 281 293 290 290 292 289 289 291 292 291 290 287 284 283 287 287 290 291 288 290 288 284 277 276 275 276 280 279 281 287 289 290 290 292 293 295
306 306 301 305 307 310 309 297 282 288 289 297 293 290 287 290 289 291 289 287 289 284 283 282 280 288 291 289 287 286 285 278 271 274 276 280 278 284 289 289 291 291 290 292 293
304 297 297 301 308 308 299 285 285 289 294 295 293 287 286 288 288 288 286 286 290 288 284 282 282 288 290 290 292 286 282 285 280 270 274 279 282 288 289 291 290 291 292 293 294
294 292 293 303 305 304 293 287 289 294 297 297 290 291 284 285 286 285 285 288 288 291 290 286 280 287 288 289 289 287 289 281 279 270 269 277 278 281 285 289 292 293 292 293 294
292 286 293 304 301 296 287 289 290 295 298 293 290 288 288 286 287 284 286 290 293 292 292 287 284 282 287 286 285 285 284 284 284 279 274 271 278 285 288 289 292 292 293 294 294
289 281 295 304 289 286 283 290 295 294 297 293 292 290 288 288 287 287 288 291 295 293 287 289 287 280 283 286 288 287 287 287 281 278 279 279 281 290 291 292 293 293 294 294 294
288 284 294 300 280 284 284 288 291 293 294 292 291 292 292 289 285 287 287 294 296 293 290 291 286 274 280 285 286 284 285 287 285 282 279 276 282 289 291 290 291 292 293 294 295
288 280 286 292 285 281 283 284 285 291 293 295 293 293 291 289 290 287 288 292 295 294 296 294 287 283 280 282 286 283 285 287 285 279 282 280 283 286 288 290 291 291 293 293 293
289 280 283 280 281 284 283 283 283 283 288 292 289 291 290 287 288 287 290 291 294 295 294 291 284 286 287 288 287 284 284 285 284 284 281 284 284 287 289 291 293 292 292 294 295
285 283 282 280 282 281 282 281 282 283 286 286 287 290 290 287 289 286 289 290 290 293 291 291 282 285 283 287 286 284 286 286 287 287 285 284 285 291 293 292 291 292 293 292 292
288 291 286 282 283 279 279 281 282 283 285 287 288 288 288 290 292 292 293 294 294 292 288 287 285 283 279 284 284 279 284 286 288 288 287 284 289 292 289 292 292 290 290 290 291

GFSSW_sfc_thetae_087.txt.gz
Theta_e
322 322 322 322 322 322 322 322 321 321 321 321 322 323 323 324 324 316 306 312 313 323 318 304 303 302 302 301 300 298 291 288 290 290 292 294 294 295 296 298 300 300 304 306 320
322 322 322 322 322 322 322 321 321 321 321 321 322 323 323 323 312 308 320 328 325 323 304 302 300 300 297 298 298 295 290 291 292 291 293 295 294 296 297 295 299 300 307 311 319
322 322 321 321 321 321 320 320 320 320 320 321 322 323 323 320 305 304 324 327 325 318 305 304 302 299 295 296 295 292 291 293 292 293 295 296 293 295 294 294 296 298 303 312 316
321 321 320 320 320 320 320 319 319 319 320 320 321 323 322 314 290 307 324 324 324 308 306 301 299 294 292 294 297 291 293 294 296 296 294 294 295 292 294 296 296 300 306 312 316
320 320 320 319 318 319 319 319 319 319 320 320 321 322 314 298 300 310 320 319 307 306 302 299 296 295 292 293 294 292 291 293 296 294 293 296 292 293 294 296 296 297 308 312 318
319 319 319 318 318 318 317 318 318 319 319 320 322 322 304 291 309 309 307 307 306 303 302 300 297 298 294 293 291 294 293 292 293 293 294 292 290 291 292 293 295 297 305 309 313
319 318 318 318 317 317 316 317 318 319 319 320 321 315 299 295 309 307 306 305 305 303 301 302 302 297 295 294 295 295 289 290 291 292 292 293 288 292 292 292 293 294 296 304 309
318 318 318 317 317 317 317 317 318 319 320 320 321 308 293 308 308 305 305 304 305 305 304 303 303 301 297 296 294 290 288 284 287 292 292 290 285 290 292 292 292 292 291 294 300
318 317 317 317 317 317 317 317 318 319 320 320 308 300 293 312 305 307 304 303 304 304 304 306 302 296 294 290 285 287 281 283 288 292 292 289 286 290 292 292 293 292 292 293 294
318 317 317 317 317 317 318 318 319 316 314 312 306 296 298 298 305 305 304 305 301 300 300 299 295 290 288 286 280 282 283 284 283 289 290 288 289 292 293 291 293 292 293 293 293
318 318 318 318 318 318 315 307 298 295 300 293 294 294 298 305 307 303 304 302 300 296 290 293 290 286 288 288 285 285 284 283 285 290 289 289 288 291 293 291 292 291 292 292 293
316 318 318 318 319 319 313 300 297 299 292 300 299 297 302 304 298 301 303 297 294 289 291 289 285 291 292 290 287 286 283 282 286 289 289 287 288 290 291 292 293 293 291 291 292
312 314 316 319 319 315 310 308 314 306 292 295 299 296 298 302 295 298 300 296 291 289 288 286 288 292 291 287 287 285 284 283 285 285 285 285 284 286 289 290 291 292 293 293 292
309 310 313 319 314 312 309 314 314 308 287 289 294 297 300 299 292 301 300 297 292 289 290 288 291 290 288 286 288 283 289 287 286 284 280 283 277 283 286 288 289 291 291 290 290
307 308 312 316 312 310 310 313 314 302 277 292 293 301 298 293 294 296 299 296 290 290 289 286 289 288 287 288 290 287 290 287 285 282 281 280 279 282 284 286 289 289 290 290 290
306 307 310 312 312 309 311 313 307 288 275 290 294 292 291 292 293 295 295 296 294 290 288 287 290 289 290 289 290 291 287 285 283 280 276 280 281 279 282 285 286 289 290 293 294
306 307 305 307 307 310 312 306 287 278 291 288 289 290 288 288 291 291 290 289 287 283 282 286 286 289 290 288 289 286 284 278 275 275 276 278 278 281 286 287 287 288 290 290 292
306 305 301 305 308 310 309 296 283 286 288 294 291 289 286 289 288 289 288 286 288 284 282 281 280 288 290 289 286 285 285 278 271 272 275 280 277 283 287 289 289 288 289 292 293
303 296 297 302 308 309 300 285 285 290 292 293 291 286 285 287 287 287 286 285 288 287 283 281 281 287 288 289 291 285 282 285 279 268 273 278 281 287 287 288 291 292 293 293 293
294 293 292 302 306 305 294 287 289 294 296 297 287 288 283 284 285 285 285 287 287 290 287 285 280 286 287 288 289 286 288 281 278 270 268 276 277 280 284 289 290 291 291 292 293
291 285 293 303 303 297 288 289 290 294 298 294 291 289 288 286 285 283 284 289 292 291 292 286 284 282 286 285 284 284 283 282 282 279 273 270 277 284 286 288 290 290 291 292 293
288 281 294 302 288 290 288 290 294 293 296 294 293 290 289 288 287 286 286 290 292 292 287 288 285 279 283 286 286 285 286 285 280 277 278 278 281 288 288 291 291 291 291 292 293
284 284 294 300 281 285 285 287 291 292 293 291 290 293 292 289 285 287 289 294 295 291 289 290 283 273 279 283 285 283 284 285 284 281 278 275 280 289 288 289 290 291 291 292 292
284 279 286 292 286 282 283 284 285 291 292 293 292 293 291 288 290 288 288 292 295 294 295 295 287 280 279 280 284 282 284 285 285 280 282 279 282 285 287 288 290 290 291 292 292
287 279 282 278 283 283 282 283 284 284 288 293 289 289 289 285 287 286 289 289 293 295 294 292 284 285 286 287 286 283 283 285 283 284 281 284 283 285 288 289 289 290 292 292 291
281 281 282 280 281 283 282 281 282 284 285 286 286 290 290 287 287 285 288 288 288 292 291 291 283 285 282 286 286 284 284 284 284 285 284 282 285 290 292 290 290 290 290 290 290
288 288 284 281 279 279 280 281 282 283 285 286 288 288 287 290 291 291 293 292 292 290 289 287 284 281 270 284 284 280 283 284 284 286 286 283 288 291 288 291 291 289 289 289 290

GFSSW_sfc_thetae_090.txt.gz
Theta_e
321 321 322 323 323 323 323 323 322 322 321 321 322 323 323 323 323 315 306 310 313 323 318 302 302 300 301 300 299 296 291 288 290 290 291 292 293 293 295 296 298 299 301 305 320
321 322 322 322 322 322 322 322 322 321 321 321 321 321 323 323 312 308 319 325 324 324 303 302 299 300 298 297 297 294 289 290 292 292 292 293 293 295 297 296 298 299 304 311 321
322 322 322 322 322 322 321 321 321 320 320 321 321 322 322 319 304 302 323 324 321 317 304 302 301 299 295 295 294 291 290 292 292 293 295 295 292 294 294 294 296 298 300 312 317
322 322 321 321 321 321 320 320 320 319 319 320 321 322 322 313 289 306 323 322 321 308 304 299 298 294 292 292 295 292 292 293 295 295 294 294 294 292 293 296 295 297 302 311 316
320 321 321 320 320 320 319 319 319 319 319 320 321 322 313 298 298 309 320 317 306 305 301 298 296 294 292 292 293 290 290 292 294 293 292 295 293 292 293 295 295 296 305 310 317
319 319 319 319 319 319 319 318 318 319 319 319 321 321 303 291 307 308 307 307 305 302 300 298 296 297 292 292 290 293 291 291 292 292 292 291 288 293 292 294 294 296 301 307 312
319 318 318 319 318 318 317 317 318 319 319 320 320 314 299 294 307 306 306 304 305 302 301 301 299 296 295 292 295 293 289 289 290 291 291 292 288 291 291 291 292 293 295 303 308
318 318 318 318 318 317 317 317 318 319 320 319 321 308 293 308 307 305 304 303 303 304 303 301 302 300 296 295 292 289 287 284 286 291 291 289 284 288 292 289 292 291 291 293 298
318 317 317 317 317 317 317 318 318 319 319 320 307 299 293 312 305 306 303 302 303 303 303 305 301 295 294 288 285 285 280 282 286 290 290 288 285 289 291 291 292 291 291 291 293
317 317 317 317 317 317 317 318 319 315 313 310 305 295 298 297 304 304 304 304 300 300 299 297 294 290 288 286 280 281 281 283 282 286 289 287 289 292 292 291 292 291 291 291 292
318 317 318 317 318 318 315 306 296 295 299 293 294 294 297 304 306 302 303 301 298 295 290 292 288 284 289 287 284 285 283 281 283 288 288 287 288 290 292 291 291 292 292 292 292
318 318 318 318 319 319 310 297 296 297 292 299 298 297 302 304 297 300 303 296 293 288 291 289 285 290 291 288 286 286 283 282 285 288 288 286 287 289 290 291 292 292 292 291 291
315 318 318 318 319 314 309 304 313 305 291 295 298 296 298 301 295 298 300 295 290 288 288 286 288 292 290 287 286 283 282 282 284 284 285 283 283 284 288 289 290 291 291 291 291
309 311 317 319 312 310 308 313 313 307 285 288 294 296 299 299 293 300 299 296 291 288 288 287 290 289 287 285 287 282 287 286 285 283 279 283 277 282 285 287 288 290 288 289 289
307 308 314 318 311 307 309 313 313 300 277 291 292 300 297 293 294 296 299 295 290 289 289 285 288 287 286 287 289 286 288 286 283 281 280 279 279 282 281 285 287 288 289 291 291
306 306 310 313 312 309 311 313 305 288 275 289 293 291 290 291 293 295 295 296 293 290 288 286 290 289 289 288 289 289 286 284 281 280 276 279 280 278 281 284 287 287 288 289 290
306 306 305 309 307 311 313 304 286 281 290 287 288 290 288 288 290 291 290 288 286 283 282 285 286 288 289 287 288 285 284 277 275 274 275 277 278 280 285 285 284 287 289 289 290
304 303 303 306 308 311 309 293 281 284 286 292 289 288 286 288 287 288 287 285 287 284 282 281 280 287 290 288 286 284 284 278 271 272 275 279 277 282 285 287 288 287 289 291 292
303 298 299 302 307 309 301 284 285 288 293 290 290 285 284 286 287 287 286 285 288 286 282 281 281 287 288 288 289 284 281 283 278 267 272 277 280 285 285 289 290 291 291 291 291
294 293 294 302 306 305 294 287 290 294 296 294 287 288 283 285 285 285 285 287 287 289 288 285 280 285 286 288 287 285 287 280 278 269 267 275 276 279 284 287 289 290 291 291 292
292 286 293 301 303 297 287 288 291 295 298 294 290 288 286 285 285 283 284 288 290 289 291 285 283 282 285 284 283 283 282 281 282 279 273 270 276 283 284 289 289 290 290 291 292
289 282 295 301 291 291 288 292 294 294 296 295 294 291 288 287 284 285 285 288 292 292 286 287 285 279 282 285 285 284 284 284 279 276 277 277 280 286 286 290 290 289 291 291 291
284 286 296 299 285 286 287 288 292 293 293 292 291 292 292 289 285 286 289 293 293 291 289 290 283 274 279 282 284 283 283 284 283 281 278 274 280 287 288 288 289 289 290 290 291
283 281 286 292 288 285 285 286 286 291 293 293 292 292 291 289 291 287 289 292 293 293 295 294 285 280 278 280 283 282 283 284 284 279 281 279 281 285 286 288 288 288 289 291 290
283 280 283 279 285 283 282 283 284 285 290 292 288 289 289 286 287 287 289 290 293 294 292 291 284 285 285 286 286 283 283 284 283 286 281 284 282 285 288 288 289 289 290 290 289
280 280 283 280 282 284 282 281 283 283 286 289 286 289 289 287 287 284 288 288 287 291 290 291 282 283 278 283 283 282 286 286 285 284 283 282 284 290 290 289 288 290 290 289 288
287 286 283 281 279 281 280 280 282 284 284 286 288 288 286 288 290 291 293 291 291 289 288 288 284 276 271 282 282 278 283 284 285 284 285 283 287 289 288 290 290 289 289 288 288

GFSSW_sfc_thetae_093.txt.gz
Theta_e
322 322 322 322 324 324 324 324 324 323 325 324 322 324 323 323 323 315 306 310 313 324 317 304 304 303 304 302 301 300 293 290 292 292 294 295 297 297 300 300 300 305 304 309 324
322 322 322 322 323 323 323 323 323 322 322 322 322 322 323 323 312 307 317 325 324 323 304 302 300 302 300 299 299 296 292 293 295 294 294 295 296 297 298 298 299 302 307 318 325
322 322 322 322 322 323 322 322 322 321 321 321 321 322 322 319 304 303 325 326 323 317 304 303 302 300 297 298 296 295 292 294 294 295 296 296 295 297 297 296 299 300 303 317 322
320 321 322 322 322 322 322 321 320 320 320 321 321 322 321 313 289 306 324 324 321 307 304 301 299 296 295 294 296 293 294 294 297 296 296 295 296 295 296 299 299 300 305 316 320
320 320 321 322 321 321 321 320 320 319 319 320 321 321 313 301 300 309 321 318 307 305 301 299 297 296 294 294 295 293 293 294 295 295 294 296 294 294 295 298 297 299 307 315 321
319 319 319 320 321 320 320 320 320 319 319 319 321 321 304 291 307 309 308 306 305 302 300 299 298 297 294 293 292 293 292 293 294 294 294 292 291 293 294 295 295 297 301 308 317
319 319 319 319 319 319 319 318 318 319 319 319 320 314 299 295 307 305 306 304 305 303 301 301 299 298 295 293 295 293 291 291 291 293 292 293 290 292 293 293 293 294 296 301 308
318 318 318 318 318 318 318 317 318 318 319 319 321 308 293 307 305 305 304 303 303 304 303 303 302 299 296 295 292 290 288 286 289 292 292 291 286 290 293 293 293 293 294 294 297
317 317 317 318 318 318 317 318 318 318 319 320 307 298 291 311 304 304 303 302 303 303 303 304 300 295 294 289 286 286 283 284 287 291 292 290 287 291 293 293 293 293 293 293 294
317 317 317 317 317 317 317 318 318 315 312 310 305 294 298 298 304 303 303 303 301 301 299 298 294 290 287 286 282 283 282 283 282 287 289 288 289 292 293 293 293 293 294 294 294
317 317 317 317 317 317 315 304 296 295 298 293 294 293 298 304 305 302 302 300 298 295 290 292 288 286 289 287 285 286 283 282 284 289 289 288 288 291 293 292 292 293 294 294 295
317 317 318 318 318 319 306 295 295 297 291 298 298 296 303 303 297 299 302 295 293 288 290 289 285 290 291 287 287 285 283 284 286 288 288 286 288 290 291 292 294 294 293 293 293
317 317 317 318 318 315 305 303 310 302 291 294 297 296 299 300 295 297 299 294 290 288 288 286 287 291 290 286 286 283 283 283 283 285 285 283 284 285 288 289 291 291 292 292 292
311 314 317 318 313 310 306 311 311 303 285 288 293 296 299 299 293 300 299 295 290 287 288 287 289 288 287 285 286 283 287 286 285 283 280 283 278 283 286 287 289 291 289 291 292
308 308 311 318 309 307 309 312 310 298 275 290 291 300 297 293 294 296 298 294 289 288 288 285 287 287 286 287 288 285 287 286 285 282 281 281 280 283 283 286 288 290 291 290 291
307 307 308 315 312 309 311 313 303 285 274 287 292 291 290 291 293 295 295 296 293 289 288 287 289 289 288 287 288 288 285 284 282 280 277 279 280 280 282 285 285 288 289 290 292
305 306 305 308 308 310 311 302 286 276 289 287 287 289 287 288 290 290 290 288 286 282 282 284 286 288 289 287 288 285 283 278 276 275 276 278 278 281 285 286 286 288 289 292 293
304 304 303 305 308 312 307 294 281 284 285 290 289 288 285 288 288 289 287 286 288 285 282 281 279 287 290 288 286 284 284 278 271 272 275 279 277 282 285 287 288 288 291 292 293
303 299 299 302 307 308 299 285 286 286 291 288 288 284 283 286 287 287 285 285 287 286 283 281 281 287 287 288 289 285 281 284 277 267 273 277 280 286 286 289 289 290 292 292 293
296 295 295 301 305 305 294 287 290 294 295 291 286 287 282 283 285 285 285 287 287 288 287 285 280 285 286 288 287 285 287 281 278 270 268 275 277 280 283 288 289 289 291 291 292
292 290 295 300 303 296 285 287 292 296 297 293 290 287 285 284 284 283 285 288 290 290 290 285 284 282 285 284 283 283 283 282 282 279 273 270 276 282 284 288 289 290 291 291 291
288 285 295 302 292 291 286 291 295 294 297 295 293 291 288 288 285 284 283 287 292 291 286 286 284 279 282 284 286 284 284 284 279 276 277 277 279 287 286 290 290 291 291 290 290
284 286 295 299 286 286 288 289 293 294 293 293 291 293 292 289 284 287 288 292 292 290 288 289 282 275 279 282 284 283 284 284 283 282 277 276 280 287 287 289 289 290 290 291 291
283 282 287 292 288 286 286 287 287 293 293 294 292 293 291 289 290 287 288 292 293 292 295 293 285 282 279 280 283 282 283 284 284 279 281 280 282 285 286 288 289 290 290 290 289
282 280 283 282 285 285 287 286 285 286 291 293 290 288 288 286 287 287 290 290 293 294 291 290 278 282 284 285 284 282 284 284 283 286 282 285 283 284 288 288 290 291 290 289 289
280 281 283 280 283 285 285 283 284 285 289 289 287 289 290 286 287 285 289 289 288 290 289 290 282 284 281 285 285 283 285 284 284 284 283 283 284 289 289 290 289 291 290 288 288
287 285 284 282 282 283 283 281 283 285 285 287 289 288 287 288 291 291 292 292 290 289 288 287 284 279 273 281 281 275 282 284 284 284 285 282 287 289 288 288 289 289 289 288 288

GFSSW_sfc_thetae_096.txt.gz
Theta_e
324 324 324 323 323 325 325 325 326 326 327 326 325 324 323 324 323 317 305 313 316 325 317 309 310 310 310 308 307 306 303 299 298 299 301 304 304 304 306 306 308 313 310 316 331
323 324 323 323 324 324 324 325 325 325 324 325 324 323 323 323 312 308 318 325 326 325 309 308 306 308 307 306 306 306 302 302 304 304 303 303 305 305 305 305 305 308 312 323 331
322 322 323 323 323 324 324 325 324 324 323 323 323 323 323 320 305 304 325 327 328 322 310 309 308 307 304 305 304 302 301 302 302 302 303 303 302 305 305 303 307 307 310 322 329
321 321 322 323 323 323 323 323 323 323 322 322 322 322 321 315 292 310 328 328 325 313 308 307 305 303 302 301 302 299 300 301 301 302 302 302 303 302 305 305 306 309 312 323 327
320 320 321 322 323 323 322 322 321 321 321 321 322 321 316 304 304 313 323 321 312 308 306 306 303 303 300 302 300 300 300 300 301 300 301 301 301 302 303 307 305 305 311 319 324
319 319 319 321 322 322 322 321 320 320 321 320 321 321 310 296 310 314 313 310 308 306 305 305 305 304 300 299 300 300 300 300 300 300 300 299 299 300 303 303 303 303 307 313 321
318 318 318 320 321 321 321 320 320 320 320 320 321 317 304 301 310 311 310 310 309 307 304 305 305 303 302 299 300 299 297 298 298 299 299 300 298 297 303 300 301 302 305 308 315
318 318 318 319 320 320 320 319 320 320 320 321 321 313 299 310 310 308 309 307 309 309 308 308 307 304 302 302 299 297 298 293 295 298 298 298 296 299 299 300 301 303 304 304 307
318 317 318 318 319 319 319 319 319 319 320 321 312 304 296 313 305 308 309 306 307 308 308 307 306 301 300 297 295 294 291 292 292 297 297 296 296 297 300 300 301 302 302 302 304
317 317 317 318 318 318 318 318 318 318 315 312 306 300 302 302 307 306 308 308 305 306 305 304 301 298 296 295 289 291 289 290 292 294 296 295 295 299 300 299 301 303 304 304 304
317 317 317 317 318 317 317 312 303 301 303 298 299 297 299 306 308 304 307 304 303 303 297 298 296 292 295 296 292 294 292 290 291 294 295 295 295 298 301 300 301 303 304 305 305
317 317 317 317 318 318 314 303 301 304 295 300 300 300 305 306 299 302 306 301 300 295 296 296 292 296 294 293 293 293 291 290 292 294 294 294 294 298 299 300 302 303 303 304 305
316 317 317 317 318 316 310 306 312 307 296 296 299 299 302 303 298 299 303 298 296 293 294 292 293 295 293 292 291 291 291 289 290 291 292 292 293 295 297 296 298 299 300 300 300
317 317 317 317 312 313 308 314 315 308 290 291 295 298 301 301 295 302 302 299 294 293 293 293 293 293 292 291 293 289 293 292 290 290 287 291 287 293 296 296 297 298 298 300 300
311 315 317 317 313 307 311 317 314 303 279 293 294 302 299 297 298 299 303 299 293 292 293 291 291 291 291 292 294 290 292 292 291 290 290 289 288 292 291 293 295 297 298 299 299
309 310 315 315 315 313 316 315 308 290 280 289 294 293 293 295 295 297 298 299 297 294 292 291 294 294 293 291 293 292 292 291 290 290 284 289 288 290 291 293 295 296 297 300 300
307 308 308 309 308 314 315 307 290 283 292 288 289 292 292 291 292 294 293 292 290 287 287 290 291 293 294 291 292 292 291 284 283 283 282 284 285 290 293 293 295 295 296 300 301
305 305 306 306 307 314 310 296 283 288 289 293 291 291 289 291 290 291 291 289 291 290 287 285 283 290 294 292 290 290 290 286 280 279 283 283 283 290 293 294 294 295 298 300 301
303 300 300 303 306 308 301 285 286 289 293 290 290 287 287 289 291 290 290 290 292 291 287 285 285 291 292 292 294 289 287 290 282 276 283 286 288 292 293 293 294 297 298 299 299
298 297 297 302 305 304 296 288 292 295 295 293 287 289 285 287 288 288 288 292 290 292 291 289 284 289 290 293 292 291 292 286 286 280 280 282 283 287 290 294 295 296 297 297 297
296 293 297 301 303 293 289 290 293 297 297 293 291 288 288 287 289 288 288 290 292 292 292 290 289 286 290 289 288 287 287 287 289 286 283 280 285 292 292 294 296 296 296 297 297
292 288 298 302 288 287 285 291 296 296 298 296 295 292 289 289 289 287 287 290 295 294 288 290 289 284 286 289 290 289 290 290 285 281 283 282 285 292 291 296 298 296 296 296 298
289 289 298 301 285 286 287 290 294 294 294 294 292 294 293 289 286 289 290 294 295 293 290 291 288 283 284 287 289 287 288 289 288 288 284 284 286 291 293 295 296 296 296 296 296
289 284 290 293 289 287 287 286 288 295 293 294 293 294 291 289 291 288 289 293 295 294 295 295 288 287 283 285 288 286 287 288 289 286 285 285 288 289 291 294 295 295 296 296 296
288 283 286 284 285 288 289 287 287 287 292 294 290 291 289 286 287 288 291 291 293 295 294 292 286 286 287 287 287 287 287 287 286 289 285 288 287 291 292 294 296 297 296 294 293
286 285 286 283 286 287 288 287 287 287 290 288 289 291 291 288 289 286 290 290 290 292 292 292 285 286 283 286 286 284 287 287 288 289 288 289 287 292 296 296 295 295 295 293 293
289 290 288 283 284 285 285 284 286 289 287 291 292 291 290 291 294 295 296 295 293 291 290 289 286 284 282 284 284 283 285 287 288 289 289 286 291 294 291 293 295 296 295 294 293

GFSSW_sfc_thetae_099.txt.gz
Theta_e
323 324 325 325 325 325 327 328 328 328 328 327 327 326 325 325 324 317 305 312 316 326 323 312 311 311 313 310 311 311 303 301 302 302 302 307 305 308 309 307 310 313 311 319 331
323 323 324 324 324 325 326 326 327 327 327 327 327 325 324 324 314 308 318 324 326 327 310 309 308 309 306 307 308 306 302 303 307 307 304 306 307 306 305 306 306 311 316 326 330
322 323 323 324 324 324 325 326 325 326 326 326 325 324 324 320 305 306 326 327 328 327 313 311 311 308 305 307 306 306 303 306 305 306 307 306 306 308 306 304 307 307 311 324 327
322 322 323 323 324 324 325 325 324 324 324 324 324 323 322 313 294 309 328 330 329 319 310 309 308 304 303 302 306 301 303 305 304 304 305 305 307 305 307 307 309 311 313 321 325
321 320 321 322 323 324 324 324 323 323 323 323 323 322 314 302 302 315 326 326 319 312 306 306 304 304 300 302 303 302 302 303 304 303 305 305 304 305 305 309 309 309 312 318 322
320 319 320 320 322 324 324 323 322 322 322 322 323 322 309 296 311 316 316 314 312 310 307 307 305 307 303 302 302 304 302 302 303 303 302 303 303 303 306 308 308 306 309 314 319
319 318 319 320 321 322 323 322 321 321 321 321 322 314 305 301 312 315 313 312 311 310 306 308 308 305 305 301 302 302 299 300 301 301 301 302 300 300 306 304 304 304 306 310 314
318 317 318 319 320 321 322 321 321 321 321 322 322 313 299 312 313 310 312 310 311 311 310 309 308 305 305 304 301 298 300 295 300 300 301 301 297 304 305 303 303 305 306 307 310
317 317 318 318 319 320 320 320 320 320 320 321 313 309 297 312 305 309 311 307 308 310 310 308 309 304 302 298 296 297 293 294 294 299 299 299 297 302 302 302 302 304 305 305 306
317 317 317 318 318 319 319 318 319 319 317 315 309 302 302 302 307 307 310 310 306 307 305 305 303 299 299 296 290 292 293 294 294 296 297 297 297 300 301 301 302 304 305 304 304
317 317 317 318 318 319 317 314 305 303 306 299 300 298 300 306 308 305 308 306 306 304 297 302 296 293 296 297 297 297 294 293 296 296 297 296 297 299 302 302 302 303 305 306 306
317 317 317 317 318 318 314 304 303 305 297 302 301 302 306 306 299 303 307 301 300 295 300 297 293 298 299 295 295 296 294 293 294 296 296 296 295 299 301 301 303 303 304 306 307
317 316 317 317 317 315 311 306 312 309 296 297 300 301 303 304 299 299 303 302 298 296 296 293 295 298 296 294 293 294 293 293 292 294 295 294 293 296 300 301 302 303 304 305 305
316 316 316 316 311 311 308 311 315 311 292 292 295 299 302 303 297 303 304 301 297 294 296 295 295 295 294 293 295 290 295 294 292 292 288 294 287 295 298 298 298 301 302 302 304
316 316 316 316 310 307 308 315 316 306 280 294 294 303 302 297 298 299 304 300 294 294 295 292 292 293 293 294 296 292 295 294 293 291 291 291 288 293 296 295 298 300 301 302 303
315 315 315 314 315 313 317 316 310 289 281 290 294 293 295 296 296 299 299 301 299 294 295 293 296 296 295 295 296 295 294 293 293 292 285 290 290 290 294 295 297 299 300 302 303
311 314 314 314 308 316 317 309 290 283 293 289 289 293 294 291 293 295 294 292 291 287 288 291 292 294 296 292 295 294 291 285 283 283 283 288 287 291 296 295 298 298 300 303 303
307 308 307 308 310 317 312 297 282 289 290 294 293 292 290 292 292 293 292 290 294 292 289 286 284 291 295 294 291 292 292 287 281 281 284 285 284 290 297 298 297 298 300 303 303
305 303 303 303 309 314 301 286 286 290 294 292 292 288 289 291 291 291 291 291 293 293 288 286 286 293 294 294 295 291 287 292 285 281 285 287 290 295 297 296 296 297 300 302 301
299 299 298 303 307 309 297 289 291 297 296 294 288 290 286 288 289 290 289 294 292 294 293 291 284 290 291 294 293 292 294 286 288 282 281 285 286 288 291 294 296 297 300 299 300
298 292 298 303 306 299 289 291 294 299 298 294 292 289 290 288 289 289 290 292 295 291 293 292 291 286 290 289 289 289 288 289 289 289 285 282 286 293 295 297 296 298 300 299 300
295 288 299 303 288 291 288 294 296 297 299 297 296 293 291 291 288 289 289 292 296 294 288 293 290 285 287 290 292 293 291 290 286 283 286 285 287 294 294 298 299 298 299 300 300
291 290 298 299 285 285 288 292 296 296 296 296 295 295 294 291 288 291 292 295 296 293 291 292 290 282 284 288 290 288 290 292 292 290 286 285 287 293 295 298 299 298 298 298 299
291 285 290 293 286 287 287 287 290 297 296 295 295 295 293 291 292 290 291 294 296 295 295 295 292 287 283 286 289 286 289 289 290 286 286 286 289 291 294 296 297 298 298 299 298
290 286 287 285 286 287 287 287 286 288 292 295 292 293 292 287 289 289 292 292 295 295 295 294 286 289 289 289 290 290 289 288 287 289 286 288 289 293 295 296 298 299 299 297 297
288 286 288 285 288 287 287 285 285 286 288 287 288 293 293 289 290 288 291 291 291 294 293 293 285 287 284 288 288 287 290 290 289 289 290 290 290 295 297 299 299 298 298 296 296
292 293 290 285 286 285 286 287 286 287 288 291 290 288 288 291 295 296 297 296 295 292 291 290 286 285 283 286 286 283 286 289 290 291 291 287 292 295 294 295 297 298 298 296 296

GFSSW_sfc_thetae_102.txt.gz
Theta_e
324 325 325 326 326 326 327 324 325 325 321 321 320 319 324 324 323 314 305 312 317 326 321 312 310 309 310 308 310 309 299 296 299 300 299 304 301 303 303 303 303 307 309 319 327
323 323 324 325 325 326 327 327 325 324 323 323 323 326 319 323 315 308 319 322 328 328 310 307 305 307 304 305 305 301 298 300 304 303 301 303 302 302 298 300 301 305 313 325 326
322 323 323 324 324 325 326 327 327 326 326 326 327 326 324 318 305 306 325 327 328 325 312 311 308 306 302 304 302 301 299 303 302 303 304 303 301 303 299 298 301 304 312 321 323
322 322 323 323 323 324 324 326 326 326 326 326 326 324 323 315 296 311 327 328 328 318 311 308 306 302 300 299 303 297 301 301 304 303 303 302 303 299 300 298 304 306 315 320 320
320 321 322 323 323 323 324 325 325 325 324 325 324 323 316 304 302 318 326 329 322 314 308 304 302 303 299 301 301 299 299 301 302 301 300 304 301 298 299 302 304 307 314 317 319
320 320 320 321 322 323 323 324 324 324 324 324 324 323 311 296 311 317 319 319 314 310 307 305 303 305 301 300 299 301 300 299 300 301 300 300 297 297 300 302 302 305 306 312 316
319 319 319 320 321 322 323 324 323 323 323 323 323 315 304 300 311 316 314 312 312 310 305 307 306 303 303 300 301 300 296 296 297 298 298 298 295 296 298 302 301 301 301 305 311
319 318 319 319 320 321 322 322 322 322 322 323 323 312 299 313 311 312 312 310 310 310 309 309 307 304 302 301 299 296 295 291 296 297 297 297 291 299 300 298 298 298 298 301 304
318 317 318 319 319 320 321 321 321 321 322 322 313 307 296 312 305 309 311 307 308 308 309 307 307 301 299 294 291 293 287 290 292 297 296 295 291 295 298 296 295 296 298 299 301
318 317 318 318 319 319 320 320 320 320 317 315 310 302 303 301 306 307 309 309 305 305 303 303 300 296 294 291 285 287 287 291 289 293 294 292 292 295 296 296 295 296 296 296 298
318 317 317 318 319 320 317 314 306 303 306 299 299 299 300 305 308 305 307 305 305 302 294 299 293 289 292 293 293 291 290 289 291 294 293 292 292 294 297 296 296 296 297 298 298
317 317 318 318 319 319 314 303 303 305 296 303 301 302 305 305 299 302 307 299 299 293 297 295 290 295 297 295 292 290 290 289 290 294 292 290 291 294 296 295 296 297 297 298 299
317 317 317 317 318 315 310 306 310 307 295 298 301 300 302 304 298 299 302 300 296 293 294 291 294 297 295 291 290 289 289 288 289 291 291 286 287 290 294 296 297 298 296 296 296
317 316 316 317 311 310 307 311 313 310 289 291 295 299 303 302 297 303 303 299 296 292 294 293 294 294 293 291 292 287 292 291 291 287 282 287 279 287 291 292 294 295 295 293 295
316 316 316 315 308 305 309 313 314 306 278 293 294 303 303 297 297 297 302 298 293 293 293 290 290 291 291 292 294 290 292 291 290 286 285 284 282 285 290 289 292 294 295 297 297
316 315 315 311 311 310 312 314 309 288 278 288 293 294 293 295 296 297 297 299 297 293 293 291 294 293 293 293 294 293 291 291 288 286 278 283 283 282 287 290 291 293 296 297 296
315 315 312 313 305 314 314 306 287 280 292 288 288 293 292 291 293 293 292 290 288 285 285 289 289 292 294 290 292 291 287 279 278 277 277 283 282 285 289 290 293 292 296 297 298
314 314 311 310 312 316 309 293 280 286 288 293 291 292 288 291 291 292 290 287 291 289 287 284 282 289 292 291 288 288 287 281 274 276 278 281 279 285 290 292 293 294 297 298 298
309 304 304 304 310 313 299 283 283 288 292 290 291 287 287 290 290 290 289 288 290 291 285 284 284 291 291 291 292 287 284 288 281 275 278 280 284 289 290 290 291 292 296 296 296
299 300 299 304 308 308 293 286 289 297 295 293 286 289 285 287 287 288 288 291 290 292 290 288 281 289 289 291 290 289 290 282 282 271 271 278 280 282 287 289 290 292 295 295 295
298 292 298 303 307 298 286 288 292 299 297 292 289 288 288 287 288 287 288 291 293 290 291 288 288 284 288 286 286 286 285 286 286 284 277 275 279 285 289 291 290 292 295 294 295
294 286 298 302 293 293 287 292 296 296 299 296 295 292 289 289 287 287 287 290 294 292 287 290 288 281 284 288 289 288 287 287 281 279 280 281 281 291 290 293 294 295 295 296 296
287 286 298 297 286 287 291 292 295 296 295 295 293 294 293 289 284 289 290 294 294 291 289 290 286 279 282 285 288 286 288 289 288 285 279 277 280 290 290 293 295 294 295 296 296
291 285 287 288 287 289 288 289 289 296 296 296 295 295 291 289 291 288 290 293 295 294 295 294 289 285 281 284 286 283 286 287 287 281 281 282 284 287 290 292 293 294 294 295 295
290 285 287 284 285 286 289 289 288 289 294 295 292 293 291 287 288 287 291 291 294 295 293 291 283 285 287 288 288 286 286 287 285 287 283 285 286 288 290 292 294 294 294 295 294
287 285 287 286 286 286 287 285 288 290 291 290 290 292 292 288 289 286 290 290 289 292 291 292 281 284 281 287 287 282 287 287 287 288 287 286 285 290 293 294 293 295 295 294 293
291 292 289 287 286 285 286 285 286 288 288 290 293 292 290 292 294 295 295 294 294 291 289 289 284 281 277 283 283 279 284 287 287 289 288 284 289 291 290 293 293 294 295 294 293

GFSSW_sfc_thetae_105.txt.gz
Theta_e
324 325 326 326 327 327 328 328 328 325 324 322 320 323 325 325 321 313 305 311 317 329 322 309 308 307 308 304 306 305 295 293 293 295 295 299 299 301 301 302 303 307 308 316 325
324 324 325 326 326 327 327 326 327 325 323 321 322 323 322 322 314 308 320 325 326 329 309 305 304 305 302 303 302 298 294 295 299 298 297 299 301 301 298 299 301 308 320 324 325
323 323 324 325 325 326 326 326 325 324 323 322 322 322 321 317 305 306 325 326 327 324 311 309 307 305 301 301 300 298 296 299 298 300 302 300 298 301 297 294 301 306 317 321 321
322 322 323 324 324 325 326 326 324 324 324 324 322 322 321 314 298 314 325 327 328 320 310 307 304 301 299 297 301 295 300 298 301 301 300 300 301 297 298 298 302 310 320 319 320
321 321 321 322 323 324 324 325 325 325 325 326 325 323 315 304 303 315 324 326 319 314 306 304 301 300 296 298 299 296 298 298 299 300 300 302 299 299 298 299 303 311 319 318 320
320 320 320 321 322 323 324 324 325 325 325 325 325 322 308 296 311 318 315 322 317 310 306 304 302 303 300 298 297 299 298 298 298 298 299 299 296 298 298 300 303 313 314 316 318
320 319 319 320 321 322 323 323 324 324 324 325 324 316 304 301 310 316 317 317 314 309 305 306 305 301 300 296 300 299 294 295 296 298 296 297 294 295 298 299 300 303 306 312 315
319 318 319 319 320 321 322 322 322 323 323 324 323 309 297 310 310 312 312 309 312 310 308 307 305 302 300 299 297 294 292 289 294 296 296 296 290 297 297 298 297 297 297 301 307
318 318 318 318 319 320 320 321 321 322 322 323 310 303 296 310 304 308 309 305 307 307 307 307 303 298 298 292 288 289 284 286 290 295 294 292 289 293 295 296 295 294 295 296 299
317 318 318 318 319 319 319 320 320 320 319 315 309 297 301 298 305 306 307 307 302 302 301 300 298 294 292 289 284 283 284 287 286 291 292 290 290 293 294 294 294 294 294 294 298
316 318 318 318 319 319 317 312 305 301 305 298 298 297 298 302 307 303 305 303 302 298 292 296 291 289 291 290 291 289 288 287 288 292 291 290 290 293 294 292 292 293 294 295 296
317 318 318 318 319 319 313 302 301 303 295 302 301 300 302 301 297 301 304 297 296 291 294 292 288 294 295 293 292 289 286 286 288 291 290 288 289 292 293 293 294 294 294 295 295
317 317 317 317 318 314 307 303 309 305 293 296 300 299 300 301 295 297 301 297 293 290 292 289 291 296 294 291 290 288 286 285 287 289 289 285 284 287 293 294 294 295 295 295 295
317 317 317 317 312 310 305 310 309 305 287 290 293 298 301 300 294 301 302 298 293 291 292 291 294 294 291 290 290 286 291 290 288 284 280 283 277 283 287 290 292 293 293 294 295
317 316 316 316 310 306 308 311 309 300 275 291 293 303 301 294 294 296 299 295 291 291 292 289 290 290 290 291 292 288 291 290 288 286 283 282 279 282 286 287 290 291 292 294 294
316 316 316 312 311 310 310 311 304 285 274 287 292 293 293 293 293 295 295 296 295 291 291 290 293 292 292 292 292 292 289 289 286 284 277 280 280 280 285 287 288 290 293 294 294
315 315 313 311 304 311 311 304 285 277 289 285 286 292 290 289 290 290 289 287 288 284 284 288 288 291 292 289 291 290 285 279 277 276 276 279 279 283 287 288 291 292 293 293 294
315 315 312 310 311 310 307 292 276 282 286 291 289 290 287 290 289 289 287 285 289 288 285 282 281 288 291 289 287 286 285 278 272 274 276 279 278 285 289 289 292 294 294 294 295
313 311 306 307 311 310 297 282 280 284 289 288 289 286 284 289 288 287 286 287 288 289 285 282 283 289 290 290 291 286 283 287 280 272 275 278 282 288 289 288 291 293 294 293 294
304 304 301 306 310 305 291 284 286 292 292 290 284 286 281 285 284 284 285 289 289 291 288 287 281 287 288 290 290 288 289 282 281 270 269 276 278 281 285 287 289 292 292 293 294
297 292 297 304 308 297 285 286 289 296 294 289 287 286 285 285 285 283 285 288 291 290 291 289 286 283 287 286 285 285 284 284 285 280 274 273 278 284 287 289 289 290 293 293 293
291 285 297 303 293 292 286 289 293 294 296 294 291 289 287 288 285 285 284 288 293 291 287 290 286 281 283 287 288 287 286 286 282 279 280 280 279 289 288 290 290 291 294 293 294
285 285 296 296 285 287 289 289 292 294 293 293 291 292 290 288 283 286 287 293 292 291 289 291 284 278 281 284 287 286 286 287 286 282 278 276 278 289 289 290 291 293 293 294 294
287 284 287 290 288 290 287 287 288 295 294 295 292 292 289 288 289 287 288 292 294 292 295 295 287 283 279 282 285 283 285 286 286 280 279 280 281 285 288 290 292 292 294 294 294
288 284 285 284 284 289 289 288 286 287 292 294 291 291 289 285 287 287 289 289 293 294 292 291 282 284 286 287 286 285 286 286 284 287 282 286 284 287 289 291 293 294 294 294 293
284 284 286 285 285 287 290 286 287 288 291 289 289 291 291 287 288 286 288 288 288 290 289 290 279 284 281 286 286 283 286 287 287 287 286 283 284 289 291 292 293 293 294 294 293
289 290 288 287 285 284 284 286 288 290 288 291 293 291 289 291 293 293 293 293 292 289 288 288 284 280 278 283 282 279 284 285 287 288 288 283 289 289 288 291 293 293 294 294 293

GFSSW_sfc_thetae_108.txt.gz
Theta_e
324 325 326 327 327 328 329 329 329 327 326 323 325 326 325 324 322 311 304 310 314 325 323 309 308 307 308 305 306 304 294 292 294 294 296 298 297 298 299 302 303 307 313 316 324
324 323 326 326 326 327 328 328 328 328 325 323 323 325 324 322 313 308 319 324 327 325 308 305 303 305 302 303 303 298 293 295 298 298 296 297 297 298 298 299 302 313 318 322 323
323 323 323 325 325 326 327 327 326 325 325 324 324 322 320 315 309 311 325 328 327 323 310 308 306 304 301 302 300 298 295 299 298 298 300 299 297 297 297 296 302 312 316 320 319
322 323 323 323 324 325 326 326 325 324 325 323 323 322 319 312 300 313 327 327 329 317 309 307 303 301 298 296 301 294 299 298 300 300 299 298 299 296 296 298 302 318 321 320 320
321 321 322 322 323 325 325 325 324 324 324 323 323 321 312 304 303 313 326 326 322 313 305 303 301 301 297 298 299 297 298 298 298 299 299 300 296 296 296 299 305 319 320 320 320
320 320 320 321 322 323 325 324 324 324 324 323 323 320 304 298 312 313 318 318 316 311 306 304 302 303 300 299 298 298 299 297 297 298 296 298 295 297 297 300 309 317 318 319 320
320 319 319 321 322 323 323 324 324 324 324 324 324 313 302 302 308 313 317 315 317 311 306 307 305 302 301 299 301 300 295 295 294 296 296 297 293 294 296 301 308 314 314 316 318
319 319 319 320 321 322 322 323 323 323 323 324 323 306 297 308 307 313 311 312 314 311 310 310 306 302 299 300 297 296 292 288 292 295 295 294 290 296 296 298 302 306 308 312 315
318 318 318 319 320 320 321 321 321 323 324 322 311 300 294 309 304 309 311 306 310 309 307 309 307 299 298 292 289 291 287 286 290 294 292 292 290 295 296 296 297 299 300 303 308
313 318 318 319 319 319 320 320 321 320 319 314 310 297 298 296 303 306 308 307 303 304 301 300 298 293 290 289 284 283 285 286 287 291 290 289 290 291 293 294 295 293 294 294 297
314 316 318 318 319 320 318 313 304 304 306 297 298 296 297 301 305 302 305 302 301 299 293 296 289 289 291 291 290 289 288 287 288 290 291 289 290 292 293 291 291 292 292 292 294
315 314 318 318 319 319 314 303 301 302 296 302 301 300 300 300 296 299 303 296 294 290 292 291 288 293 294 293 292 289 287 286 288 290 289 288 290 292 292 292 291 292 292 293 293
315 315 318 318 318 315 308 302 308 305 293 296 300 298 298 298 294 296 300 295 292 289 290 287 290 295 294 291 290 288 287 286 287 288 288 285 285 287 291 291 292 293 293 294 294
315 316 317 317 312 311 305 307 308 302 285 288 293 297 299 298 292 300 302 297 291 290 289 288 292 292 291 290 291 287 290 289 288 285 281 285 279 282 286 289 291 293 292 293 293
310 316 317 317 310 306 307 309 308 301 274 289 292 302 300 293 294 295 299 294 289 289 289 287 289 289 289 291 291 289 291 290 288 284 283 282 279 282 283 285 287 291 290 291 292
309 315 317 314 311 311 311 310 302 285 273 286 292 292 292 293 292 294 296 296 295 291 289 289 290 292 291 292 292 291 289 288 285 283 278 282 281 280 283 287 286 287 289 292 293
307 314 315 314 306 313 310 304 285 276 288 284 286 291 290 288 289 290 291 289 287 282 283 286 286 289 291 289 291 290 286 279 277 276 276 279 278 283 285 288 289 289 290 291 293
306 314 314 313 313 311 305 292 274 284 284 288 289 290 286 289 287 288 289 287 289 285 282 280 279 287 290 289 287 286 286 278 271 273 275 279 278 283 287 288 290 292 292 292 293
305 311 311 310 312 310 298 283 281 284 288 287 288 285 284 288 287 286 288 288 289 286 283 281 281 287 288 290 291 286 283 286 280 271 275 278 280 286 287 286 290 291 291 292 293
297 307 303 311 311 305 292 285 285 290 290 290 282 286 282 285 284 284 285 290 289 289 288 285 280 286 287 289 289 288 289 282 280 272 271 276 277 280 284 287 290 290 291 292 293
296 297 297 308 308 297 286 286 288 292 292 289 285 284 284 285 284 284 285 287 291 288 289 287 285 283 287 286 285 285 284 283 284 281 276 272 277 284 287 287 290 291 292 292 292
287 285 297 300 292 293 288 289 293 293 293 292 290 288 286 287 284 284 283 286 293 290 286 289 286 281 283 287 288 287 286 285 282 279 279 279 279 286 287 288 289 291 293 293 294
285 285 296 300 285 287 290 290 292 293 292 291 288 289 290 287 283 285 286 291 292 290 288 290 284 278 281 284 286 285 286 287 285 283 279 277 279 287 288 288 288 290 292 293 293
285 284 288 296 287 290 287 287 287 294 293 292 290 290 289 286 288 285 287 291 293 292 295 294 286 283 279 281 285 282 284 285 285 280 279 279 282 285 287 289 289 291 293 293 293
285 283 284 285 287 290 290 288 286 287 290 291 289 288 288 284 284 286 288 289 292 294 292 291 280 282 284 285 286 285 286 285 284 286 282 285 283 286 288 290 291 292 293 292 292
284 284 285 285 289 290 289 286 286 288 289 287 287 288 289 285 287 284 287 287 287 289 288 289 277 283 280 285 285 283 285 287 286 286 285 283 283 288 289 292 291 293 293 293 293
289 290 286 285 285 287 287 287 287 289 289 290 291 290 288 290 292 292 292 292 291 289 288 287 282 281 281 283 283 280 284 285 287 288 287 283 289 288 288 291 293 293 294 294 294

GFSSW_sfc_thetae_111.txt.gz
Theta_e
326 326 325 325 327 328 329 330 329 329 329 328 326 326 327 326 321 311 303 308 314 325 321 309 308 307 308 305 308 305 295 290 293 294 294 296 295 296 298 300 302 306 313 316 323
325 325 325 325 326 327 328 329 329 328 326 326 327 326 326 323 313 307 318 326 327 327 306 305 303 306 303 302 303 302 295 294 297 298 295 297 296 297 298 299 304 308 314 321 326
323 324 324 325 326 326 327 328 327 326 325 326 326 325 324 320 311 310 325 328 326 321 307 306 306 305 301 301 300 299 294 299 298 299 298 298 296 297 297 294 303 309 313 318 323
322 323 323 324 325 325 327 327 327 325 324 324 324 322 322 313 301 314 327 328 328 315 307 306 303 300 300 298 301 295 299 299 298 299 297 297 298 295 297 298 300 314 320 319 320
321 321 322 323 323 324 326 326 326 325 323 324 322 321 311 305 306 313 327 328 322 310 303 303 301 300 296 299 299 297 298 298 297 298 297 298 296 295 296 295 308 317 319 319 319
320 320 321 321 322 324 325 325 325 324 323 324 322 320 307 301 313 312 313 321 316 309 302 302 302 303 299 298 298 299 298 298 296 297 297 296 294 296 296 298 313 316 316 319 320
320 319 320 321 322 323 324 324 324 324 323 324 322 312 301 303 308 311 317 318 317 313 306 304 303 303 302 300 301 300 297 298 295 296 296 296 292 293 294 300 311 313 315 317 318
319 319 319 320 321 322 323 323 323 323 322 323 321 306 299 309 307 311 313 314 316 312 311 309 307 302 302 302 299 299 296 293 296 295 296 295 289 296 295 301 307 310 310 314 316
317 318 319 320 320 321 322 322 322 323 323 323 310 300 295 309 302 308 309 308 311 308 307 310 306 298 298 294 291 295 293 292 291 294 293 292 290 295 295 298 299 305 309 311 313
312 318 318 319 320 320 321 322 322 322 320 314 311 295 298 296 302 307 305 309 306 305 304 302 299 293 292 291 287 286 292 288 291 291 290 289 290 291 293 293 297 299 303 306 308
311 314 318 319 320 320 319 315 308 306 306 298 300 296 296 300 304 302 304 301 304 300 296 297 293 288 291 291 289 288 289 289 290 293 290 289 290 294 291 290 291 293 295 297 300
312 312 317 318 319 319 316 307 306 307 296 301 301 301 300 300 295 301 303 295 295 291 294 292 290 294 296 293 291 288 286 288 289 291 290 288 289 291 290 291 293 294 292 294 293
310 313 314 317 318 315 310 304 310 306 294 295 300 300 298 298 294 296 300 294 293 289 290 288 289 295 294 291 290 287 286 285 288 289 288 285 286 287 290 291 291 292 292 293 294
310 312 313 317 312 312 307 307 308 301 286 289 293 297 298 297 292 300 300 296 290 290 290 289 293 292 291 290 291 286 290 289 288 286 283 286 281 284 287 289 290 293 291 292 292
308 311 314 317 311 307 307 308 307 298 275 289 292 301 299 292 293 295 298 294 289 288 288 287 288 288 288 290 292 288 291 289 288 285 283 281 278 287 282 285 289 291 293 293 293
307 309 315 314 312 311 308 308 302 284 274 285 291 290 291 291 291 293 294 294 294 289 287 288 289 292 290 291 291 291 289 287 286 284 278 282 281 280 282 285 287 291 293 294 291
306 307 311 315 306 311 310 302 284 275 286 283 286 290 289 286 288 289 290 287 285 281 282 284 285 287 289 287 288 289 286 279 277 277 278 278 277 286 285 287 288 289 289 290 292
305 306 309 314 314 310 306 291 273 283 283 288 288 289 285 287 286 287 288 286 287 284 281 282 279 286 288 288 285 286 285 277 273 274 276 279 277 283 288 287 288 290 288 291 292
304 304 307 312 313 309 297 282 281 284 287 286 288 284 282 287 286 285 287 287 289 285 282 281 281 285 287 287 289 283 282 286 279 274 276 278 280 286 287 288 288 289 290 291 292
297 298 304 313 312 304 292 285 284 289 289 290 282 285 281 284 283 284 285 290 289 288 287 284 280 285 286 287 288 286 288 281 281 275 272 277 277 280 283 288 288 288 290 291 293
296 293 304 312 310 297 285 286 287 290 292 287 284 283 284 284 284 283 284 286 292 288 287 287 285 283 287 285 283 283 282 282 284 282 277 273 278 284 287 289 289 291 291 292 293
290 285 299 309 293 291 286 290 293 289 290 289 289 286 285 286 282 284 283 286 294 291 286 288 285 280 283 286 286 285 285 287 282 278 278 279 279 285 286 288 289 290 291 291 292
285 285 297 296 286 286 291 290 291 289 289 288 287 288 288 287 282 283 285 290 293 291 288 289 284 277 281 284 285 283 284 285 284 282 280 280 282 286 288 288 288 291 291 292 292
285 284 288 291 292 289 288 288 288 293 291 290 288 289 288 286 287 284 285 291 291 292 295 294 285 283 279 281 284 281 282 283 284 280 281 282 282 285 287 288 288 289 292 292 292
286 284 284 284 287 289 291 289 287 287 290 291 287 288 286 283 284 284 287 289 291 294 292 290 282 283 284 285 286 285 285 285 283 286 282 285 283 288 288 288 289 289 291 291 291
285 283 285 284 288 290 290 287 287 287 289 287 286 287 287 284 286 283 287 287 286 288 289 288 278 282 280 285 285 283 285 287 287 287 286 283 283 287 288 291 290 291 292 292 293
290 288 284 285 286 287 287 288 288 290 289 291 290 289 286 287 290 292 292 291 291 289 288 287 280 278 278 283 283 280 283 284 286 288 287 282 288 287 288 290 291 291 293 293 294

GFSSW_sfc_thetae_114.txt.gz
Theta_e
326 326 325 326 326 327 327 330 330 329 329 328 328 329 328 326 321 312 302 310 314 326 320 307 307 308 307 306 307 303 296 293 293 293 294 294 294 296 298 303 302 305 310 313 323
325 325 325 324 325 326 327 329 329 328 329 329 329 328 327 324 314 308 319 326 325 327 305 304 304 307 305 302 303 301 295 295 298 296 294 294 294 296 298 299 301 305 312 320 326
324 324 324 324 324 326 326 329 327 328 328 327 327 326 326 321 311 310 325 328 325 322 306 305 308 310 301 301 301 298 297 299 300 297 296 296 294 296 296 295 301 306 311 320 324
323 324 324 323 325 326 327 327 327 327 327 326 326 326 322 318 302 315 327 329 327 311 306 303 304 304 302 300 301 298 299 300 304 299 296 295 297 294 297 298 299 309 317 320 322
322 322 322 322 324 325 326 326 326 325 325 325 324 324 316 306 305 312 327 328 320 308 303 302 301 300 302 300 299 297 298 299 299 298 295 297 296 295 295 295 304 315 317 319 321
321 320 321 321 323 324 325 326 325 324 324 323 322 321 307 302 313 312 320 320 315 306 301 302 301 301 298 298 299 299 298 298 298 296 295 296 294 294 296 302 310 314 315 316 320
320 319 320 321 321 323 324 325 324 323 323 322 322 311 304 304 307 308 315 317 314 309 303 304 303 302 301 297 301 300 295 297 298 295 294 295 292 293 294 301 309 312 313 315 317
315 319 319 320 321 322 324 325 323 323 322 322 319 306 301 309 308 312 314 316 316 312 310 308 306 304 303 301 300 298 297 292 295 294 294 294 288 296 295 300 305 309 309 312 314
315 318 318 319 320 321 323 323 323 323 323 320 309 305 300 309 303 309 311 312 309 308 307 310 304 298 298 295 292 297 291 292 295 295 293 292 289 296 294 298 299 306 308 310 312
313 318 318 319 320 321 321 322 322 322 318 314 310 300 299 296 302 308 306 313 306 306 305 301 299 292 290 296 289 289 293 293 294 294 291 290 289 294 291 294 297 302 306 308 310
312 313 318 318 320 322 320 316 309 306 307 302 301 295 296 299 305 302 305 305 307 304 297 299 292 290 290 294 291 290 291 295 290 297 290 291 292 294 293 290 290 294 300 305 308
310 311 318 318 320 321 318 309 308 309 295 302 302 300 299 300 296 300 303 298 301 297 298 294 290 295 294 293 292 289 288 287 291 290 289 288 288 292 291 291 291 293 294 298 301
309 310 315 318 319 317 313 310 313 308 295 296 302 300 297 298 295 297 300 295 297 293 295 294 293 297 295 292 289 287 287 286 288 287 288 285 287 290 292 290 291 291 292 292 296
308 310 312 317 313 313 309 310 312 306 288 289 294 297 298 297 293 300 300 295 291 291 291 290 295 295 290 291 290 286 290 289 288 286 281 284 279 287 291 289 290 292 290 292 292
307 308 311 316 311 308 309 312 307 303 279 291 292 300 298 295 294 294 298 295 288 288 289 287 289 290 289 290 292 288 292 290 289 286 281 280 279 283 285 286 289 291 291 292 293
306 308 309 311 312 312 310 307 302 285 276 286 291 290 291 290 291 293 294 294 293 290 288 288 289 290 290 291 292 292 289 288 285 283 278 282 281 280 284 288 287 290 292 293 294
306 306 306 311 307 310 308 301 283 279 287 283 285 290 289 286 288 290 290 287 285 281 282 284 285 287 289 287 287 290 286 279 277 275 278 279 278 286 287 287 288 290 292 292 290
305 305 306 309 312 309 304 291 279 283 281 287 288 289 285 288 286 286 288 285 286 285 282 281 279 286 288 286 284 286 287 279 271 272 278 278 278 286 288 290 288 289 289 289 289
303 302 303 307 311 308 296 284 282 284 285 285 287 284 282 287 285 285 287 287 289 286 282 280 281 285 286 287 290 283 282 285 279 269 273 277 280 285 287 288 288 289 290 290 290
296 298 301 309 311 303 292 287 283 288 289 289 282 285 281 284 282 283 285 290 288 288 285 284 279 284 285 287 286 286 289 280 279 270 268 276 277 282 282 288 288 288 290 290 291
295 293 302 309 308 296 286 287 286 289 292 286 283 282 283 284 283 283 284 286 291 286 286 284 283 281 285 283 283 282 282 282 283 279 274 274 279 283 286 288 289 290 291 290 292
290 286 300 308 293 290 286 290 291 288 289 288 287 284 285 286 281 283 282 287 293 291 285 286 283 278 280 284 285 284 286 286 281 278 277 277 280 284 285 287 288 289 291 292 292
286 286 297 302 284 284 289 290 290 287 287 287 285 286 287 285 280 282 283 288 291 290 288 288 282 272 278 283 284 283 284 287 287 281 280 276 282 285 286 287 289 289 291 292 292
286 284 289 291 293 287 287 288 287 290 288 288 286 288 287 285 286 284 283 287 290 292 295 294 285 281 279 281 284 281 282 282 284 281 282 279 284 284 284 287 288 289 291 291 292
286 283 284 283 287 288 290 289 287 286 288 289 284 287 285 281 284 282 285 286 288 293 291 291 284 281 282 284 286 285 285 284 282 285 281 285 283 285 288 287 289 290 290 291 291
284 282 285 281 285 288 289 287 287 287 288 286 285 286 286 283 286 281 286 285 285 287 288 287 278 281 278 284 284 283 286 286 287 286 285 286 284 286 284 287 289 290 291 291 292
289 288 283 283 284 285 287 289 288 290 288 291 287 287 285 286 291 291 292 291 290 288 287 285 280 276 273 282 283 280 283 285 286 288 287 283 288 285 286 288 290 290 291 292 293

GFSSW_sfc_thetae_117.txt.gz
Theta_e
322 322 326 326 327 327 328 329 330 329 328 326 326 326 327 325 321 311 302 312 316 328 321 310 309 307 309 308 309 306 297 295 297 295 298 298 299 300 302 308 307 311 313 316 326
320 322 321 326 326 326 327 329 329 328 327 324 324 326 327 323 315 310 318 325 327 329 308 306 305 308 303 303 305 302 298 297 300 299 297 298 298 299 300 304 305 311 317 322 327
318 321 321 326 325 326 327 327 328 328 327 325 324 324 325 321 309 310 326 327 329 321 307 309 309 308 303 303 303 302 298 300 300 300 299 298 298 299 299 299 304 307 313 320 324
317 321 320 325 325 326 326 326 327 327 328 327 327 326 324 316 299 315 327 328 327 310 305 307 309 307 300 300 302 299 301 300 304 300 298 297 299 297 298 302 302 308 318 321 322
317 320 321 323 324 325 325 326 327 327 327 327 327 325 319 309 308 313 328 327 317 307 304 302 306 305 304 302 300 299 299 299 300 298 298 298 297 297 297 299 306 313 319 321 322
314 319 321 322 322 324 325 325 326 326 326 326 326 323 312 304 314 311 320 317 312 305 302 303 302 304 302 300 301 301 298 298 300 298 298 297 295 296 299 301 310 314 316 320 322
314 318 321 321 322 323 324 325 325 326 325 326 324 315 309 307 309 309 319 314 313 305 301 304 304 303 300 298 300 298 297 298 302 298 297 297 295 294 297 303 308 313 313 316 320
318 318 320 321 321 322 323 324 325 324 324 324 323 310 304 311 310 312 316 313 313 313 308 308 307 304 303 302 301 296 298 293 297 297 297 298 295 298 298 300 303 310 311 313 315
318 319 320 320 320 321 322 323 323 323 323 321 310 307 302 309 305 310 314 311 310 308 309 310 304 300 300 297 293 296 289 292 294 295 294 294 292 297 296 297 297 304 309 311 313
314 318 319 319 319 319 321 323 322 321 317 314 310 303 298 297 303 306 310 313 306 304 304 304 299 293 295 297 290 290 289 291 291 295 292 291 290 294 295 294 296 297 306 309 312
312 318 318 319 319 320 320 318 309 306 306 302 301 296 297 300 306 303 310 308 306 304 295 297 293 290 293 297 293 293 294 293 291 298 293 292 294 297 297 293 293 294 298 307 310
310 311 318 318 319 320 319 309 309 308 298 303 303 298 298 302 299 302 310 302 301 295 298 294 290 293 292 294 293 293 292 291 294 292 291 291 290 293 295 295 295 295 294 299 306
309 310 317 318 318 317 314 310 315 310 297 299 301 296 298 300 297 298 302 301 298 293 295 290 292 295 293 290 289 288 287 286 289 288 289 286 287 289 294 293 293 293 295 295 299
307 307 309 317 313 314 309 313 314 308 290 290 296 298 297 298 294 300 301 300 295 294 295 293 296 294 292 291 290 287 291 290 288 287 281 285 280 286 291 295 291 294 293 294 295
307 306 307 315 313 309 310 313 309 306 280 292 294 301 298 296 296 296 299 296 291 290 293 290 290 292 291 291 293 289 291 290 289 286 283 282 279 282 286 290 295 295 294 295 295
307 305 306 308 313 313 314 310 307 288 278 286 292 291 291 290 291 294 295 295 295 291 290 288 290 295 293 293 293 291 290 288 285 286 280 283 281 281 285 288 289 292 294 296 296
306 306 305 307 306 313 308 303 286 282 287 283 286 289 291 286 288 294 290 288 286 282 282 286 284 287 291 288 291 291 289 281 279 279 278 279 280 288 287 288 289 292 293 294 296
304 306 306 306 308 310 305 295 282 283 284 288 288 289 285 288 286 288 288 284 286 285 283 282 280 285 287 287 286 289 289 281 275 273 277 279 278 285 289 292 290 289 289 290 291
304 302 302 304 308 309 298 286 286 285 285 285 288 284 281 285 285 286 287 287 287 286 282 281 281 285 286 288 291 284 286 288 281 271 274 278 281 286 287 288 287 288 289 290 291
297 299 298 306 307 302 294 289 284 287 288 290 283 285 279 284 282 284 286 290 288 288 287 284 280 284 285 288 286 287 290 282 281 273 270 276 277 282 283 286 288 288 289 291 292
296 292 301 306 304 296 287 289 286 288 291 286 282 282 284 283 283 284 285 286 289 286 288 285 283 281 285 283 283 283 284 283 284 280 275 272 278 283 286 288 289 290 288 290 292
292 286 298 304 286 289 289 289 290 288 288 287 286 284 284 285 281 285 283 288 292 289 286 285 283 278 281 284 285 285 284 286 280 277 277 277 281 286 286 286 286 287 288 289 292
286 286 297 300 283 284 290 290 289 287 286 286 284 285 286 285 280 282 284 288 292 290 287 286 281 273 279 282 283 282 283 287 285 281 277 275 281 289 292 292 288 288 290 290 291
286 284 289 293 289 287 287 287 286 289 286 287 285 287 286 284 284 282 283 286 290 291 294 293 283 281 278 280 282 281 282 282 284 278 282 280 284 288 286 286 287 288 288 290 291
286 283 285 283 285 288 289 287 285 284 287 287 284 286 285 281 283 281 283 284 287 292 290 288 280 280 281 282 283 283 283 282 282 285 282 285 283 287 287 289 289 288 288 290 291
284 283 285 283 285 285 288 285 286 286 286 285 285 286 284 282 285 280 285 284 284 287 287 286 279 282 278 282 282 279 284 285 285 286 284 285 283 290 286 286 288 290 289 289 291
289 288 284 284 285 285 285 286 287 289 289 288 286 286 283 285 288 289 290 291 289 288 287 284 278 274 277 281 281 280 283 284 284 286 286 283 289 288 286 288 290 290 290 291 292